GFSSE_sfc_thetae_000.txt.gz
Theta_e
332 339 357 356 354 352 349 346 344 342 341 340 340 343 344 343 342 341 339 338 339 336 335 336 338 340 343 343 343 341 339 336 335 334 334 334 334 336 337 337 336 335 335
335 341 357 357 354 352 349 346 344 343 342 340 339 341 339 336 338 339 340 339 336 335 333 332 334 334 336 338 339 338 338 338 336 334 334 333 332 334 336 337 339 332 335
337 343 353 357 355 352 349 346 344 342 342 338 338 338 336 335 338 339 340 338 336 334 334 332 332 331 332 334 334 335 336 336 336 335 335 326 325 333 335 337 336 334 335
342 348 351 357 354 352 349 347 344 341 340 338 336 336 338 336 339 338 340 336 334 334 333 331 332 332 331 330 331 333 333 334 335 335 326 326 327 334 335 336 336 335 335
346 349 351 357 355 353 350 347 345 342 339 338 338 336 336 339 341 339 337 337 336 335 333 332 332 333 335 336 336 335 334 332 335 332 324 323 323 331 336 334 337 336 335
346 346 352 356 355 355 351 348 346 343 340 338 337 337 337 339 340 341 341 343 341 337 333 332 332 333 334 335 337 337 338 337 338 324 324 324 325 330 333 335 336 334 336
342 345 350 356 355 354 351 348 346 343 341 338 337 337 338 340 340 344 343 341 339 337 334 334 335 336 336 337 336 336 337 339 329 324 323 323 322 334 335 334 335 335 335
341 345 350 353 355 354 352 349 347 343 341 339 337 338 338 339 341 343 343 342 339 337 338 337 338 338 338 337 337 337 338 338 331 325 324 323 328 336 338 338 336 336 336
342 345 347 349 351 351 350 349 348 345 344 341 341 341 341 339 337 340 342 342 340 339 338 339 339 338 338 339 339 339 340 338 330 326 326 325 331 337 339 339 340 339 339
340 344 346 346 346 345 344 347 346 346 345 344 343 341 340 340 338 338 341 341 339 339 340 339 339 340 340 340 340 339 338 335 325 324 324 324 334 339 341 341 342 342 341
341 343 347 346 345 342 342 343 345 345 343 342 339 338 335 326 326 329 334 337 338 339 339 340 341 340 336 333 334 333 329 323 320 321 322 329 335 339 339 339 340 341 341
337 340 343 342 343 340 345 340 338 340 337 336 333 330 327 324 323 327 329 333 337 337 336 337 335 330 322 320 317 318 314 314 314 316 320 330 332 333 333 334 336 339 338
335 339 341 341 341 338 338 335 334 334 334 332 330 327 326 324 322 323 323 324 324 328 330 324 311 309 306 306 306 305 306 307 307 310 315 325 327 330 331 332 333 335 338
328 335 338 339 339 337 335 333 332 331 331 329 328 327 326 322 322 322 324 325 323 325 307 305 303 302 301 300 299 299 300 300 300 304 309 320 324 325 328 329 332 332 331
323 328 333 336 336 336 333 332 330 329 329 328 327 327 325 323 323 321 315 311 308 305 302 300 298 298 296 296 296 297 297 295 297 301 303 315 317 321 326 324 325 324 325
314 323 331 334 335 334 332 330 330 328 328 325 325 325 327 327 313 310 309 305 304 301 298 296 295 295 293 293 293 294 295 293 297 296 299 300 311 315 317 318 319 319 322
309 312 328 332 334 333 332 330 329 328 326 326 327 328 322 309 309 308 304 300 298 296 295 294 293 294 292 292 290 293 294 292 293 293 294 297 300 305 309 312 314 315 317
311 319 326 333 332 331 329 327 328 327 320 316 314 311 308 308 306 303 299 296 295 294 293 292 292 292 291 290 289 291 292 292 292 290 293 295 295 295 300 307 308 310 311
313 321 326 330 330 330 324 319 317 313 313 309 308 307 305 301 301 298 296 294 294 293 292 291 290 290 290 289 290 291 290 290 290 291 291 292 291 292 294 299 303 304 306
315 322 328 330 328 317 313 310 309 306 305 305 303 302 300 297 296 295 294 293 292 292 290 289 288 288 290 289 291 292 290 292 290 288 290 292 290 291 292 291 292 294 302
314 322 328 325 316 314 312 309 308 304 301 299 299 298 297 295 294 294 293 292 291 289 288 288 288 287 287 289 287 288 290 290 290 290 288 289 289 290 290 290 291 292 292
312 320 323 318 313 314 315 310 305 302 298 297 297 296 294 293 294 293 291 290 289 288 287 286 286 286 286 287 284 285 283 285 288 289 287 289 286 289 289 290 290 291 290
311 316 316 312 313 313 306 303 300 298 296 295 293 291 291 292 292 291 290 289 288 287 286 285 285 284 284 284 286 284 280 279 283 286 287 286 286 286 287 288 289 289 290
311 311 309 309 311 308 306 303 299 297 295 294 290 289 290 291 290 290 289 288 287 286 285 285 286 284 284 282 284 287 284 284 280 280 284 285 284 286 285 285 286 288 289
310 307 308 309 309 307 307 304 302 297 295 290 289 288 288 288 288 288 288 286 286 286 284 284 283 282 283 282 282 282 282 282 282 279 277 280 283 284 285 283 285 286 287
308 306 308 309 306 306 305 303 300 297 292 289 287 287 287 287 287 286 287 285 284 284 283 283 283 282 282 282 282 281 281 280 280 279 278 279 279 281 283 284 284 285 286

GFSSE_sfc_thetae_003.txt.gz
Theta_e
338 346 357 356 354 353 350 347 345 344 343 341 342 346 346 347 346 343 342 340 339 338 336 336 339 340 344 345 344 343 341 339 338 335 334 335 334 335 336 337 338 337 338
341 346 359 357 354 353 349 347 346 345 343 341 344 344 341 341 342 342 342 339 338 336 334 333 337 336 338 339 340 341 340 339 336 335 335 334 332 334 335 337 340 335 335
341 348 356 358 356 353 349 347 346 345 342 340 343 340 336 336 338 342 341 338 336 335 335 333 334 333 333 335 335 335 336 336 335 335 334 332 332 334 336 336 338 335 333
344 349 354 358 356 353 350 348 345 344 343 339 338 338 337 335 341 341 340 338 334 335 335 333 334 336 334 334 334 332 332 332 333 336 333 332 331 333 335 338 336 336 336
344 350 355 357 356 354 350 348 346 344 341 339 339 338 338 338 341 340 339 337 336 336 334 334 334 335 336 337 338 338 338 336 333 332 332 332 332 331 334 336 336 339 335
347 353 355 357 356 355 352 349 347 344 341 339 338 337 337 338 340 342 343 344 340 337 335 334 335 336 336 337 337 336 337 337 335 334 334 333 333 332 334 332 335 336 336
347 353 353 357 356 356 353 350 348 345 342 339 339 338 337 340 343 344 343 342 340 338 336 336 338 339 339 338 338 338 336 337 334 334 333 333 333 335 337 337 335 336 337
346 352 352 353 356 355 353 351 348 345 343 340 338 338 338 341 342 343 344 343 341 338 340 339 340 340 339 339 339 339 338 338 334 333 333 332 332 336 339 338 338 338 338
349 350 350 350 352 351 351 350 349 346 344 342 341 341 341 342 340 342 344 343 342 341 340 340 341 341 341 341 340 340 338 337 335 334 332 332 331 337 339 339 340 341 341
346 349 349 350 351 351 350 348 347 346 346 345 343 342 341 340 339 339 339 341 341 340 341 341 341 341 340 338 337 335 332 329 328 328 329 330 333 338 339 340 341 342 342
342 345 345 348 349 350 349 345 346 345 343 342 340 338 337 335 335 336 335 337 339 341 341 340 338 333 329 326 324 322 322 321 319 320 323 327 333 337 337 337 337 339 341
337 340 342 346 345 348 346 346 345 344 343 341 339 339 336 332 332 333 332 334 336 335 336 331 323 318 317 315 315 314 314 314 315 314 317 325 329 331 332 333 334 336 337
338 339 341 343 343 345 345 345 344 344 342 340 338 337 335 333 333 334 335 334 335 331 322 315 312 311 310 309 309 309 309 307 308 313 316 324 327 328 330 331 334 336 334
335 339 341 342 342 342 344 343 342 341 341 339 338 336 335 332 333 334 334 329 323 311 311 309 308 305 304 303 304 305 304 305 309 312 312 320 322 327 331 329 328 328 330
329 337 340 342 341 340 342 342 340 339 339 338 337 336 335 333 333 324 311 309 309 308 306 305 304 302 301 301 301 303 302 304 305 307 309 315 318 320 322 323 323 324 328
327 329 338 341 339 339 340 340 339 336 336 336 336 335 335 331 318 312 307 305 306 304 302 302 301 300 299 298 298 300 301 302 302 302 306 306 311 313 316 317 318 321 321
316 319 330 337 341 340 340 339 338 336 335 333 333 332 327 313 311 307 305 303 302 302 300 300 299 300 298 297 297 298 300 301 299 301 303 302 304 306 309 312 312 314 315
314 314 321 333 338 339 338 337 335 333 329 326 324 316 310 309 308 304 301 301 301 300 299 298 297 298 297 296 296 297 298 301 298 299 301 301 302 301 302 306 306 308 309
314 316 323 333 335 336 334 332 327 322 320 316 311 309 307 306 304 302 300 300 299 298 297 297 296 296 295 295 295 297 297 300 297 298 298 300 299 299 300 300 302 302 304
315 318 326 333 333 330 324 317 313 311 308 308 306 303 302 302 301 300 299 298 298 297 296 295 294 294 294 294 293 294 299 302 300 299 296 297 298 297 299 298 298 298 300
319 322 329 330 326 321 317 314 310 306 303 302 301 300 299 299 300 299 297 296 296 294 293 293 294 292 292 294 292 294 296 297 299 300 296 297 296 295 297 296 296 296 296
319 325 328 328 321 321 320 318 315 306 301 299 299 298 298 299 298 297 296 295 294 293 293 292 292 292 291 292 289 291 289 292 295 293 296 295 294 295 295 294 294 294 295
318 324 327 321 320 320 316 310 303 298 297 296 296 295 296 297 296 295 295 294 293 293 292 291 291 291 289 291 291 289 287 286 287 292 293 294 292 292 292 293 293 293 293
317 324 322 318 319 313 311 308 304 303 299 298 296 295 295 295 294 294 293 293 292 292 291 291 290 290 290 288 290 289 289 289 285 284 290 290 291 289 290 291 291 291 292
316 319 317 317 314 311 311 310 305 301 299 295 293 293 293 293 293 292 292 291 291 290 290 290 289 289 289 288 288 288 288 288 288 285 282 286 288 289 290 290 290 290 291
314 313 314 312 312 310 310 308 303 297 294 292 292 291 291 291 291 291 290 290 290 289 289 289 289 289 288 288 288 287 287 285 285 284 283 284 284 286 288 289 289 290 291

GFSSE_sfc_thetae_006.txt.gz
Theta_e
341 352 358 355 353 351 349 347 346 344 343 341 343 347 347 347 346 344 342 342 339 337 335 335 339 341 344 345 345 343 340 340 337 336 335 334 333 334 336 336 341 338 337
344 352 358 357 353 352 349 347 346 344 342 341 346 345 343 345 344 344 342 339 339 336 335 335 337 337 338 339 339 340 340 339 337 336 335 332 331 334 335 337 337 339 333
345 352 354 357 355 352 349 347 346 344 341 344 341 338 336 338 340 342 341 338 336 336 334 335 335 334 334 335 335 335 335 335 335 336 333 332 331 334 335 336 337 335 332
346 352 353 357 355 351 349 347 346 345 340 341 340 338 335 338 339 342 340 338 336 336 334 334 336 337 337 337 337 335 334 333 333 333 329 328 329 331 335 336 336 337 334
347 352 354 357 355 352 349 348 345 344 341 339 338 337 338 337 340 342 337 337 338 336 335 335 335 336 336 337 337 338 338 336 333 333 331 331 331 328 332 334 337 338 338
346 352 356 355 355 353 351 348 346 343 340 340 339 337 338 339 339 339 337 340 339 337 335 336 336 337 337 338 337 336 336 338 335 334 333 333 334 333 336 336 334 335 337
345 351 355 356 356 354 352 349 347 344 341 339 338 338 337 341 344 343 342 341 339 338 336 337 339 340 340 338 339 339 338 336 336 335 335 334 335 334 337 337 337 337 337
346 350 354 354 355 354 352 351 348 345 342 339 339 337 339 342 343 342 343 341 340 339 340 339 341 341 340 341 341 340 339 338 335 336 336 336 334 336 339 339 340 341 340
348 349 351 352 350 351 351 350 348 345 344 340 339 339 342 341 341 343 343 343 341 342 340 341 342 342 341 341 340 338 336 334 335 335 333 333 333 337 340 340 341 342 343
346 347 347 349 346 349 348 347 347 346 345 344 343 342 341 340 338 337 339 340 341 340 341 341 341 338 336 334 331 326 325 328 326 326 327 330 332 338 339 339 339 339 340
343 345 346 346 347 349 349 344 345 344 343 342 340 338 335 337 336 336 335 337 340 340 339 336 329 325 323 322 320 319 322 322 321 321 321 325 329 332 334 334 335 335 336
340 343 344 347 347 347 347 345 343 340 342 341 339 339 336 334 333 336 334 335 335 335 329 324 320 317 323 321 320 317 317 315 315 315 317 325 328 329 330 331 333 335 336
339 343 344 347 348 346 346 346 343 340 340 341 340 338 334 334 335 336 337 338 341 330 329 325 322 317 315 313 312 312 311 310 311 314 317 322 325 327 329 332 330 330 332
338 341 344 344 345 345 346 344 342 341 340 340 339 337 334 333 336 337 338 335 329 324 322 318 316 312 309 307 307 308 308 308 311 313 315 318 324 326 328 327 326 327 329
334 339 343 345 345 344 345 344 342 340 340 340 339 336 336 337 337 331 322 320 319 317 314 312 309 307 306 305 305 305 306 306 308 311 314 315 316 319 321 322 323 323 323
331 335 341 343 344 344 344 344 342 341 340 341 338 337 338 338 333 317 311 310 312 310 307 306 306 305 304 304 303 303 304 305 306 308 311 310 310 313 314 315 316 317 318
325 330 335 341 344 341 342 344 343 341 340 339 338 339 339 331 322 312 308 308 308 307 306 305 304 304 303 302 302 302 303 304 306 306 308 307 308 307 308 310 309 311 311
322 322 325 332 341 340 344 344 343 341 340 339 339 338 328 319 311 307 305 306 306 305 305 303 301 302 301 301 301 302 302 303 304 304 304 304 304 304 303 304 305 306 307
322 322 322 326 333 340 342 342 342 341 339 332 327 320 316 310 306 306 307 305 304 303 302 301 300 300 299 299 299 300 302 304 303 303 302 302 303 302 303 302 301 301 302
322 322 323 327 332 337 338 338 337 333 326 320 318 315 309 307 307 307 306 304 303 302 300 300 299 299 298 297 297 298 304 306 304 305 303 301 301 300 301 300 300 300 300
321 323 324 328 334 334 332 326 320 318 314 310 307 305 303 304 305 306 304 303 302 300 299 298 298 297 296 297 297 299 301 301 304 303 300 301 299 299 299 298 298 298 298
320 324 327 330 332 333 328 329 327 322 314 309 301 300 301 302 304 304 303 301 300 299 298 298 297 297 296 296 293 296 294 298 300 299 301 297 298 297 297 297 297 297 297
320 324 328 331 331 331 327 327 322 312 303 299 297 297 298 300 302 302 301 300 299 299 297 296 296 295 294 295 295 293 292 292 292 298 296 298 296 296 296 296 296 296 296
319 324 330 331 330 328 325 317 313 315 308 304 298 297 298 300 301 300 299 299 298 298 296 295 295 294 295 293 296 293 293 292 289 289 295 295 294 294 294 295 294 294 295
318 324 330 327 328 325 318 319 321 318 314 301 296 296 297 299 299 298 298 297 296 296 295 295 294 294 294 293 292 292 292 292 292 289 287 291 293 294 294 293 293 293 294
318 325 326 326 325 320 317 321 322 312 301 295 296 295 297 298 297 297 296 296 296 295 295 294 294 293 294 293 293 292 290 289 289 288 287 288 288 291 292 292 292 292 293

GFSSE_sfc_thetae_009.txt.gz
Theta_e
343 352 358 356 353 351 349 347 346 344 342 342 346 347 348 348 345 344 344 341 338 337 336 338 340 342 344 345 345 344 342 341 339 337 336 333 332 335 337 337 340 339 340
346 353 357 356 352 351 348 347 345 343 341 343 346 346 347 346 346 344 341 340 338 336 336 337 338 338 339 339 339 339 340 339 338 337 336 334 332 336 337 337 339 339 334
348 351 352 356 354 352 348 346 345 342 344 344 340 338 339 341 343 342 339 337 337 335 336 337 337 336 336 337 337 335 335 335 336 335 334 332 330 333 336 336 337 336 334
348 350 350 356 354 352 348 347 345 341 343 342 340 338 338 340 343 341 339 337 337 335 335 336 337 337 338 338 339 338 338 335 333 334 330 326 327 333 332 336 338 336 337
347 351 351 356 354 352 349 347 346 343 339 339 338 338 338 340 342 340 338 339 337 335 336 337 337 337 338 338 337 335 338 338 335 336 332 333 331 334 333 333 333 337 339
347 351 353 355 354 352 351 347 345 342 339 339 339 340 340 339 340 340 338 340 338 337 337 337 338 338 339 338 338 338 337 336 336 333 333 333 333 336 336 337 337 335 335
345 353 353 355 354 353 352 350 347 343 340 340 339 338 341 343 343 343 341 341 339 338 338 338 340 342 340 339 341 340 338 337 336 336 335 335 336 336 338 338 337 339 339
345 351 351 353 353 353 352 350 348 344 341 339 339 339 342 342 344 344 343 341 340 341 340 340 342 341 342 342 341 340 338 337 334 335 335 335 335 336 339 339 340 341 341
345 347 352 351 351 351 350 350 348 345 343 340 340 340 343 340 342 344 343 343 342 341 341 342 342 341 340 339 336 332 331 332 330 329 328 329 333 336 339 339 340 341 341
344 345 349 351 350 348 348 347 346 346 345 343 343 343 341 340 339 343 343 342 341 341 341 339 337 336 332 328 324 323 325 328 325 324 324 325 329 332 335 336 336 336 336
341 344 345 345 345 348 348 343 344 345 343 343 341 339 336 336 336 336 336 339 340 339 337 331 327 322 322 324 320 319 322 319 318 318 319 326 327 329 330 332 333 334 336
338 341 343 344 344 346 347 344 342 340 341 338 337 336 334 333 333 336 334 337 337 334 329 324 319 319 325 320 318 320 314 313 313 315 319 324 327 328 328 334 334 333 334
338 340 342 344 344 343 345 344 342 340 340 339 338 336 332 330 332 334 335 335 336 332 330 325 323 319 315 312 311 310 311 310 311 313 318 323 328 331 332 330 328 331 331
336 339 343 344 345 345 344 344 341 339 339 338 337 336 331 331 334 333 334 336 330 327 323 321 318 313 309 308 307 307 308 308 309 311 314 319 322 326 326 326 328 326 326
332 337 341 344 344 345 344 342 341 340 338 338 338 336 332 332 334 334 329 327 323 320 317 313 310 308 307 306 306 305 306 306 307 309 313 316 316 318 320 320 321 321 321
330 334 340 342 345 343 343 342 340 341 338 338 338 335 334 335 334 327 321 319 316 313 309 308 307 306 305 305 304 304 304 305 305 307 310 309 311 312 313 314 314 314 314
326 331 335 339 343 342 342 344 341 341 339 338 337 335 336 336 328 321 315 313 311 309 308 307 305 305 304 304 303 304 303 303 305 305 307 308 308 309 308 308 309 309 310
324 326 331 335 340 342 341 344 342 340 338 339 336 336 338 331 323 315 312 311 309 308 306 304 303 303 303 302 301 301 303 303 304 304 305 305 306 304 306 304 304 305 306
324 324 324 329 335 340 340 344 342 339 337 338 338 339 332 322 313 307 309 309 307 306 304 303 302 301 300 300 299 301 304 304 304 303 303 303 304 303 303 306 304 304 302
324 324 324 325 328 336 341 343 340 339 337 337 333 325 320 313 310 311 309 307 306 305 304 303 301 301 299 298 297 300 304 305 305 304 304 301 302 301 302 302 300 301 304
322 322 323 323 327 332 338 337 335 332 332 329 323 316 312 309 309 309 308 306 306 304 302 302 301 299 298 298 299 300 302 301 303 305 300 301 301 299 300 299 299 299 298
320 322 323 324 327 333 339 337 332 327 324 320 312 307 305 305 307 307 307 305 304 303 302 301 300 299 298 297 294 298 296 298 300 299 300 299 298 299 298 298 297 297 297
320 321 323 326 330 335 335 330 327 315 310 307 304 302 301 303 305 305 306 304 303 303 300 299 299 297 296 297 296 294 293 293 292 299 299 298 298 297 297 297 296 296 296
320 323 324 328 332 334 331 329 324 316 309 308 302 300 300 301 302 303 303 302 302 301 299 297 297 296 297 294 296 294 294 292 289 289 297 297 297 295 296 296 295 294 295
318 322 326 328 331 332 329 328 325 318 319 307 300 298 298 299 301 301 301 301 300 299 298 297 296 295 295 294 293 293 293 293 293 289 287 291 294 295 295 295 294 294 294
316 322 326 328 329 330 327 325 322 322 311 301 298 296 297 298 299 300 300 299 299 298 297 296 296 295 294 294 293 292 291 290 290 289 288 288 289 292 293 293 293 293 293

GFSSE_sfc_thetae_012.txt.gz
Theta_e
344 352 357 355 353 351 349 348 346 344 343 346 348 349 349 347 346 345 343 340 339 337 338 340 342 343 344 346 345 345 343 341 340 338 335 332 334 337 337 339 340 338 339
347 351 357 355 352 350 348 346 345 343 346 346 347 348 348 346 346 343 342 339 338 337 338 338 339 339 340 340 339 339 339 338 338 336 337 337 337 337 338 339 338 337 336
347 350 353 355 354 350 348 346 344 343 347 344 342 345 344 346 343 340 338 338 336 337 338 339 339 340 340 340 339 337 336 334 333 333 336 330 329 334 336 337 338 336 335
348 348 348 355 354 349 348 346 343 346 343 345 341 341 342 344 342 341 339 337 336 336 336 337 338 338 338 339 338 339 339 336 335 338 331 327 328 333 331 333 335 336 338
346 347 350 355 353 350 348 347 343 342 344 342 343 341 342 343 343 341 340 338 336 337 337 338 338 339 339 339 338 337 338 337 339 336 329 326 325 336 336 336 334 335 336
345 347 352 354 353 352 350 347 346 341 340 341 342 342 342 342 341 340 341 339 338 338 338 339 340 340 339 339 340 339 338 337 339 329 328 331 331 338 337 337 336 337 336
344 347 351 354 353 352 350 349 345 341 341 341 341 342 344 344 342 340 342 340 339 339 340 340 342 341 341 342 341 340 338 338 333 331 330 330 332 338 338 337 337 340 340
347 347 350 352 353 352 351 350 347 344 341 341 341 341 343 343 343 344 343 341 340 341 340 342 343 343 342 341 339 337 336 336 330 327 325 328 335 337 338 338 339 341 341
348 347 347 348 348 350 350 349 347 345 343 342 343 344 342 342 346 345 343 342 343 340 342 342 341 340 339 336 331 327 328 330 323 319 323 322 332 333 336 337 337 337 337
340 347 346 346 346 345 346 347 346 345 344 343 343 344 341 339 344 345 344 343 341 342 340 338 336 334 331 326 322 323 325 326 318 314 319 321 327 329 331 332 333 334 335
337 343 346 346 345 345 344 343 344 344 342 342 342 340 337 332 334 338 338 340 341 340 336 331 326 323 327 327 326 323 323 308 306 309 317 326 326 328 329 334 336 335 337
333 336 343 346 344 344 345 340 338 340 337 335 335 334 332 329 331 333 334 337 339 335 333 327 323 327 322 311 311 315 306 304 304 308 316 326 327 330 334 332 332 334 333
333 334 336 337 342 344 342 339 338 338 336 334 332 331 328 328 329 330 330 332 330 329 322 322 318 310 306 304 303 301 303 302 301 311 319 326 328 331 329 330 329 329 330
331 334 337 338 340 342 343 341 340 335 335 333 332 331 323 325 326 327 330 332 326 323 315 312 308 303 302 301 300 299 299 300 300 308 316 322 323 325 326 326 324 324 324
328 333 337 337 339 339 342 340 337 333 335 333 332 329 326 327 326 326 323 320 315 310 307 303 302 301 300 300 298 298 298 298 298 303 308 319 318 318 319 319 319 318 318
322 331 338 338 339 340 340 340 337 335 335 335 334 330 327 328 327 318 314 312 307 304 302 301 299 298 298 297 297 297 296 297 298 300 304 307 313 312 312 313 313 313 313
318 327 332 338 340 339 338 338 338 336 337 332 334 331 328 329 322 315 311 307 304 303 301 299 298 298 297 298 296 297 296 296 297 299 300 302 305 311 309 308 308 309 309
317 321 329 337 340 339 339 340 339 338 336 333 335 331 332 325 316 311 308 305 303 301 299 297 296 296 295 294 293 293 294 296 297 297 298 298 298 300 305 305 305 306 306
317 317 323 332 336 338 338 340 340 338 336 336 334 333 328 316 309 305 305 303 301 300 298 298 296 295 293 293 293 292 297 297 296 299 296 297 297 296 296 303 305 305 304
315 316 317 322 331 338 336 338 337 333 335 335 332 329 316 309 305 305 305 301 301 299 297 297 295 295 292 292 295 296 295 297 296 296 295 296 295 295 294 294 293 295 302
312 315 316 317 321 335 335 334 335 330 330 329 323 318 310 306 307 304 304 301 300 297 296 296 295 293 292 292 292 293 294 295 297 297 293 293 294 293 293 293 292 292 293
312 313 315 316 318 323 336 335 334 332 327 320 315 307 305 304 305 305 303 300 298 297 295 294 293 293 292 291 288 290 288 292 292 293 293 293 291 292 292 293 292 291 290
312 312 315 316 319 322 335 333 324 315 313 308 304 300 301 302 303 304 302 301 298 297 294 293 292 291 290 291 289 288 285 285 286 290 291 291 291 289 290 292 291 291 290
312 314 314 316 319 328 333 325 320 317 310 305 303 304 298 301 302 302 300 300 297 296 293 292 293 291 291 288 290 291 288 287 284 283 288 289 290 290 289 289 290 289 289
305 313 315 316 322 331 329 327 318 313 312 302 301 300 299 300 301 300 300 298 295 294 292 291 291 290 290 289 288 287 287 287 286 284 282 285 288 289 289 289 288 288 289
305 307 314 316 324 329 327 327 320 315 306 299 298 297 298 299 299 299 299 297 294 293 292 291 291 290 289 289 288 288 287 285 285 284 282 282 283 286 287 289 288 287 288

GFSSE_sfc_thetae_015.txt.gz
Theta_e
343 351 358 355 352 351 350 348 346 345 349 350 350 350 349 348 346 344 342 340 338 340 340 342 343 346 346 346 345 344 343 341 339 336 334 333 336 338 338 340 340 339 339
347 352 356 355 352 350 348 346 344 345 349 347 349 349 348 347 345 342 340 338 338 338 339 340 341 342 342 341 340 339 337 336 334 333 335 335 339 338 339 339 339 335 336
348 352 351 355 353 349 347 345 344 346 348 348 349 349 348 345 343 340 338 337 338 338 339 340 341 340 340 340 339 339 337 335 333 333 336 328 328 334 336 338 337 336 335
349 350 349 354 352 348 347 344 347 347 344 345 344 345 345 342 340 339 337 337 337 337 338 338 338 338 338 338 338 340 338 336 336 339 331 328 328 334 331 332 333 336 338
347 348 350 354 352 349 347 344 347 344 344 345 346 344 345 342 342 342 338 337 337 338 339 339 339 339 338 339 338 337 336 335 338 335 327 323 329 336 337 336 334 333 334
344 345 352 353 352 351 349 346 344 345 342 342 344 344 346 343 342 342 340 338 338 339 340 341 341 340 339 340 340 339 338 338 339 329 325 333 330 337 338 336 335 335 337
343 347 350 354 353 352 351 349 344 343 342 343 343 343 344 343 342 343 341 340 339 340 340 342 342 342 342 341 340 339 338 338 330 326 330 329 332 337 337 335 336 341 340
344 346 347 351 352 351 350 349 346 345 344 343 344 345 344 344 343 344 342 341 342 339 342 343 343 343 342 340 337 334 333 333 326 321 325 325 335 334 336 334 338 338 339
346 345 346 347 349 349 349 347 346 345 345 343 345 344 343 345 347 345 343 342 342 341 343 342 341 340 338 334 327 324 328 328 318 318 321 320 332 329 330 332 333 334 334
344 345 344 344 345 345 345 346 345 344 343 344 345 343 340 343 345 346 344 344 341 342 340 339 338 335 331 325 322 325 326 320 307 317 318 321 329 328 329 330 332 336 337
343 343 343 343 343 343 342 342 344 343 342 342 342 339 336 333 339 338 339 341 342 341 337 333 329 327 328 328 325 325 317 303 305 314 317 329 326 325 336 334 336 336 336
339 341 343 342 342 342 343 339 338 339 335 336 336 335 332 329 332 336 335 338 341 338 335 330 326 325 317 308 304 309 302 301 304 313 319 331 333 335 331 334 332 331 333
331 341 343 343 342 342 341 338 335 334 332 332 332 332 328 328 329 329 330 332 330 330 323 321 315 307 301 300 299 298 300 299 306 313 322 328 330 330 330 328 328 328 328
330 333 340 345 342 342 339 338 336 335 333 330 330 330 323 323 326 326 327 328 326 324 311 307 301 300 299 298 297 297 297 297 304 309 318 326 325 325 326 324 323 322 321
329 332 333 340 342 341 338 338 338 336 334 332 331 328 323 323 322 324 327 325 310 305 302 300 299 298 297 296 296 295 296 296 300 306 309 321 320 318 318 317 317 317 316
327 331 335 337 340 340 338 338 337 335 334 331 330 325 324 326 323 318 314 307 303 301 300 298 296 296 295 295 295 294 294 296 297 302 303 309 314 312 312 313 312 312 313
316 331 335 335 338 336 338 338 337 335 334 333 333 327 325 325 317 312 307 302 301 300 298 296 296 296 295 295 292 293 294 293 295 300 301 302 305 313 310 309 309 309 310
313 324 336 338 338 337 336 337 337 336 332 334 333 331 326 321 316 310 305 302 300 299 297 295 295 294 292 292 290 291 293 295 295 295 297 298 298 301 304 306 306 307 308
312 314 331 337 337 338 335 337 335 336 332 334 332 330 323 317 313 308 303 300 299 297 296 296 294 293 290 290 292 291 295 295 294 297 294 295 296 294 294 303 304 304 304
311 312 320 334 337 337 337 336 334 335 335 334 332 328 317 312 306 305 301 299 299 297 295 295 293 292 290 289 294 294 293 296 294 295 292 295 293 293 292 292 292 293 302
308 308 312 324 336 336 334 333 333 332 332 330 329 317 310 307 306 302 300 299 298 296 294 294 293 291 290 289 289 291 293 293 295 296 291 291 291 292 291 291 291 290 291
309 309 310 317 330 335 335 335 334 328 326 325 317 312 310 307 303 302 301 299 297 295 293 292 292 291 290 289 287 289 287 290 290 291 291 291 289 290 291 292 290 289 288
306 308 311 312 325 335 335 331 320 315 311 309 308 306 305 305 302 301 300 299 296 296 292 291 290 291 289 289 287 288 285 285 284 289 289 289 288 288 288 289 290 290 289
303 308 310 313 314 330 333 330 325 324 317 310 306 305 304 303 301 301 300 300 297 294 291 290 291 290 290 288 289 290 286 286 283 282 287 287 288 288 287 288 288 288 288
301 305 308 311 314 324 332 329 326 322 308 304 303 302 302 302 302 301 300 298 295 292 292 290 289 289 289 288 288 287 286 286 285 283 281 284 286 287 287 286 287 286 287
300 300 306 309 313 329 328 326 326 315 302 302 301 300 300 301 301 300 299 296 295 294 293 290 289 289 288 288 288 287 286 285 284 283 281 281 281 284 285 286 286 285 285

GFSSE_sfc_thetae_018.txt.gz
Theta_e
343 349 356 353 352 350 349 349 349 351 351 351 352 351 350 348 345 343 341 339 340 340 341 346 348 349 347 347 346 344 342 340 336 334 334 336 337 338 338 340 339 338 339
346 351 356 354 351 350 348 346 346 350 352 350 350 349 348 346 343 342 339 339 338 338 340 342 344 344 343 342 340 338 335 333 333 333 334 335 338 338 339 337 338 333 334
348 351 351 354 352 348 346 344 346 347 348 350 348 348 347 345 342 339 337 338 338 338 340 342 343 342 341 340 339 338 336 334 334 333 334 326 327 334 336 337 336 335 335
349 349 348 354 350 347 345 345 347 347 349 349 349 348 344 341 339 337 336 338 337 337 337 337 337 338 338 338 340 339 336 336 336 337 327 327 328 333 331 332 333 336 337
347 348 349 353 350 347 345 349 346 344 345 347 348 347 342 340 339 337 337 336 337 338 339 339 339 338 338 338 337 336 336 336 338 332 324 324 326 335 336 335 333 333 334
345 346 351 352 350 349 348 349 345 342 343 345 346 347 345 342 342 338 337 337 339 340 340 341 340 339 340 340 340 338 338 338 335 326 324 327 330 337 336 336 334 335 337
343 346 348 352 350 348 347 349 347 344 343 343 344 345 344 343 343 341 339 338 339 339 342 342 341 342 342 341 339 338 336 334 324 326 326 329 331 336 336 334 334 341 340
342 347 348 351 351 350 348 346 347 346 344 344 345 345 344 344 343 343 340 340 340 339 342 342 342 342 341 338 335 331 328 330 321 323 323 323 333 332 335 335 337 337 336
344 345 346 347 348 349 349 346 345 346 346 346 347 346 346 346 345 344 342 342 340 341 342 342 342 341 337 331 325 325 327 327 315 318 320 319 332 327 329 330 332 333 335
342 343 343 344 345 344 344 345 344 345 344 345 346 344 341 343 345 345 343 344 341 342 341 340 338 335 330 325 324 327 320 317 314 315 317 319 327 326 331 333 335 337 339
339 340 341 342 343 343 341 341 343 343 343 343 342 338 336 337 339 340 339 341 342 341 338 335 331 327 328 325 324 320 311 302 311 313 316 330 328 336 335 336 336 337 336
335 338 339 341 341 341 343 339 337 337 335 336 336 333 329 332 335 337 335 338 341 339 336 331 326 324 312 303 301 306 299 302 311 315 319 334 334 333 334 332 332 333 331
339 338 340 340 340 340 340 338 336 333 331 334 333 331 329 327 330 331 331 332 331 330 323 317 308 302 298 298 297 296 297 303 309 314 325 331 330 331 330 328 327 326 326
337 339 340 340 339 339 339 337 335 334 331 330 332 330 326 324 326 326 327 327 325 321 313 306 299 298 297 295 295 295 295 300 306 311 320 327 326 326 325 322 321 320 319
330 339 340 341 340 340 337 336 335 333 331 330 329 329 324 324 326 324 325 326 321 312 301 298 297 296 295 295 294 294 294 298 303 307 311 322 321 319 318 317 316 315 316
325 330 340 341 340 340 337 335 333 334 332 330 329 328 323 325 324 323 321 314 303 300 298 296 295 295 294 294 293 293 293 295 302 302 306 309 316 314 313 312 312 312 313
313 330 331 339 340 339 337 336 336 335 334 331 330 326 323 324 322 316 310 302 300 298 296 296 295 294 293 293 291 291 293 292 299 300 301 301 306 314 310 309 310 310 311
311 321 331 338 339 338 337 336 335 333 333 331 331 328 323 323 315 308 303 300 299 297 296 295 294 292 291 290 289 290 293 293 295 298 299 297 299 298 304 307 306 307 308
309 314 328 333 336 338 337 337 334 334 331 332 333 329 323 319 313 307 303 300 298 297 296 295 293 291 289 289 291 291 294 293 293 295 294 293 295 293 293 303 303 303 304
310 309 323 333 335 336 335 335 331 331 331 331 332 329 321 317 311 305 301 299 297 296 295 294 292 290 289 288 294 293 291 293 292 291 292 293 291 291 290 291 290 294 302
305 305 311 329 333 335 332 331 330 329 330 329 331 324 318 313 309 303 300 298 297 296 294 293 291 290 289 288 289 291 291 291 293 291 290 290 290 290 290 290 290 289 290
306 306 305 316 332 334 334 334 331 331 327 329 321 316 315 312 307 303 301 298 296 294 293 293 292 290 289 287 287 288 287 289 289 290 289 289 288 289 290 290 289 288 287
301 304 306 308 326 335 335 330 319 316 314 311 314 312 310 308 305 304 301 298 295 294 292 291 291 291 288 288 287 288 285 285 284 287 287 287 287 287 287 288 288 288 287
300 302 305 308 317 333 332 330 325 324 321 313 314 309 308 306 304 302 300 298 296 296 293 290 291 290 289 287 288 289 286 285 283 283 286 286 286 287 285 286 286 286 286
300 299 302 306 311 330 331 330 327 325 324 309 307 308 306 303 303 302 301 299 297 294 293 290 289 289 289 288 287 286 285 285 284 283 282 283 285 286 286 285 285 284 285
298 299 299 302 306 318 330 329 327 324 307 305 305 303 302 302 301 301 301 300 297 295 293 291 291 291 288 287 287 287 286 285 284 283 281 281 281 284 284 285 284 283 284

GFSSE_sfc_thetae_021.txt.gz
Theta_e
340 347 355 352 352 351 351 351 352 353 354 353 352 351 349 347 344 343 340 341 341 341 342 347 347 346 345 345 345 343 340 337 334 336 337 338 338 339 341 340 338 337 338
345 349 354 352 351 351 350 350 353 353 353 352 351 351 348 345 343 341 340 340 339 339 342 346 346 347 346 343 340 337 334 332 334 334 334 336 338 338 338 338 338 333 334
346 350 350 353 352 349 348 348 350 351 352 352 350 349 347 344 342 339 338 338 338 338 343 344 343 342 341 340 338 336 334 335 335 335 333 325 326 335 336 337 336 335 335
347 349 348 353 350 347 345 345 347 349 349 350 349 348 345 342 338 337 338 338 338 338 340 339 339 338 338 339 338 337 338 337 337 335 325 326 327 333 331 332 334 336 336
346 347 348 352 349 346 344 345 347 347 349 350 349 346 342 339 337 337 337 337 337 337 337 337 337 337 338 337 337 337 338 339 336 330 323 324 325 335 337 336 334 334 334
344 345 350 351 349 348 348 347 346 347 348 349 349 346 341 339 338 337 337 338 339 339 339 339 338 340 340 340 339 339 338 336 329 324 321 325 328 337 337 336 334 336 337
342 345 347 351 349 346 350 348 346 345 345 346 346 344 342 342 339 338 338 338 339 339 342 340 340 341 341 340 338 335 333 329 325 324 327 328 329 335 335 334 336 340 341
343 346 346 349 349 348 349 348 346 346 345 345 347 346 343 343 342 340 339 339 339 340 342 341 342 342 340 335 330 328 328 326 325 323 322 320 330 331 333 335 335 336 337
344 344 345 346 346 346 346 347 346 346 345 346 347 347 346 345 344 342 340 340 339 341 342 343 342 340 334 325 325 325 326 325 316 316 319 318 331 328 329 330 331 332 338
341 343 343 343 345 344 342 344 344 344 345 346 345 344 343 343 344 344 342 343 339 342 341 340 339 334 328 324 324 320 321 321 313 315 315 316 327 327 334 335 337 338 338
339 339 340 341 342 342 341 339 342 343 342 343 342 339 337 336 339 339 338 341 342 341 339 337 332 328 325 322 320 316 310 309 311 313 316 327 330 335 337 336 337 336 334
336 337 339 340 340 340 342 337 335 337 336 336 336 332 330 334 336 337 335 338 342 340 337 331 326 319 308 300 299 305 299 307 311 315 317 335 333 335 334 333 332 331 330
337 338 339 340 340 339 339 337 335 332 331 333 332 330 326 331 332 332 332 333 332 330 322 314 304 300 297 297 296 296 299 307 310 315 325 332 330 330 329 327 327 326 325
335 337 339 340 339 339 339 337 335 332 330 329 331 330 325 324 327 327 328 327 325 320 314 304 298 296 295 294 293 294 297 305 308 312 319 328 328 326 324 322 321 320 319
335 337 338 339 338 338 336 336 334 332 331 330 329 329 326 323 324 325 324 324 322 313 303 298 296 295 294 294 293 293 296 302 305 309 311 322 322 320 319 317 316 316 317
328 336 338 339 339 338 337 335 334 333 331 329 329 329 325 324 324 323 322 322 315 304 298 296 295 294 293 293 292 292 293 301 302 305 305 309 318 315 314 313 313 313 314
316 329 337 338 339 338 337 335 334 333 332 329 328 327 326 323 322 322 320 312 303 298 296 295 294 293 292 292 290 291 292 296 299 301 301 302 305 314 311 312 311 311 313
309 314 331 340 339 338 337 335 334 333 332 330 328 328 325 323 322 316 311 303 298 296 296 295 293 291 290 289 289 289 292 292 297 298 298 297 298 297 305 307 306 307 307
308 310 323 333 338 338 336 335 335 334 332 331 330 328 323 322 317 313 307 300 297 296 295 295 292 291 288 289 290 292 292 291 294 298 294 294 295 293 295 303 304 303 304
307 308 318 330 335 337 336 335 334 331 331 330 330 328 322 320 312 308 302 299 297 296 295 293 291 289 288 289 293 292 292 291 291 291 291 293 291 290 290 290 289 293 302
304 304 308 325 332 334 334 332 331 328 328 329 330 324 323 318 310 307 302 299 299 298 295 293 290 289 288 288 290 290 290 290 291 289 289 289 289 289 289 289 288 288 288
304 304 303 312 329 333 333 333 330 331 329 329 326 322 321 316 311 307 303 300 299 297 293 292 291 289 288 287 287 288 287 289 288 289 288 288 287 288 288 289 287 287 286
300 301 304 305 317 332 333 329 320 319 316 315 315 314 317 317 311 308 304 302 299 298 294 292 291 290 288 287 286 288 285 285 285 286 286 287 286 286 286 287 287 286 286
298 300 301 304 307 324 332 327 324 323 322 324 319 317 310 313 310 307 304 301 299 298 295 292 292 290 289 287 287 287 285 286 283 282 285 286 286 286 285 285 285 285 285
298 298 298 301 305 313 330 330 327 325 326 318 311 311 311 308 308 306 302 300 299 298 296 292 290 290 289 288 287 286 285 285 283 283 281 283 285 285 285 284 284 284 285
296 297 297 298 301 309 326 329 327 325 311 311 310 310 307 305 304 303 302 301 299 298 296 294 292 291 289 289 288 286 286 285 284 283 281 280 281 283 284 284 283 283 283

GFSSE_sfc_thetae_024.txt.gz
Theta_e
334 345 356 354 354 352 352 352 353 355 355 354 353 350 348 347 345 343 342 343 342 343 346 344 346 346 345 344 343 341 338 335 337 337 339 340 340 341 341 339 340 337 336
341 347 355 354 352 351 351 351 353 354 354 353 352 350 347 345 343 341 341 340 340 340 346 347 347 347 346 342 339 335 334 336 336 335 335 336 339 339 339 339 338 332 336
344 347 348 352 351 350 351 351 352 352 353 353 351 349 346 344 341 340 339 338 338 341 346 346 343 342 341 340 337 334 336 337 337 335 333 325 327 334 337 337 337 336 336
346 347 346 352 351 350 349 350 351 351 351 351 349 347 345 342 338 338 338 339 338 342 343 342 340 339 339 338 337 338 338 339 337 332 325 325 327 336 334 333 335 335 336
345 346 347 352 350 347 346 347 349 350 350 350 350 346 343 338 338 339 338 338 338 338 338 337 337 338 338 337 338 338 340 338 334 327 323 323 327 336 338 337 335 336 335
342 343 350 351 348 348 347 347 346 347 349 349 349 344 340 338 338 338 338 338 339 339 339 338 340 341 341 340 339 339 336 333 329 322 321 326 328 337 337 337 334 340 337
340 344 347 351 348 346 349 349 349 349 350 348 345 342 340 339 338 338 338 339 340 341 341 340 341 342 341 338 336 333 331 333 324 325 326 327 328 335 336 335 338 339 339
342 345 346 348 348 348 350 347 347 347 347 348 347 344 342 340 339 338 339 339 340 342 342 342 342 341 337 330 328 329 329 330 325 322 320 318 329 330 331 333 334 336 339
344 343 343 343 345 347 347 346 345 346 346 347 347 346 345 344 341 339 339 339 339 341 341 343 342 337 327 326 326 328 328 325 314 316 318 317 331 328 330 330 331 336 339
343 342 342 341 342 340 342 345 344 345 345 345 345 345 343 343 343 342 342 342 339 342 342 341 338 331 326 325 322 322 324 320 312 312 313 315 328 336 338 339 338 337 336
340 340 339 339 340 339 337 339 343 343 342 342 342 340 338 335 338 338 337 340 341 341 340 338 333 328 323 320 318 315 314 309 310 313 316 330 335 337 338 337 336 335 333
335 338 339 339 340 339 341 335 335 337 336 336 336 333 331 332 334 336 334 338 341 340 337 331 325 316 306 298 299 305 305 309 312 314 319 335 335 334 333 332 331 329 329
336 337 339 341 339 339 339 334 333 333 332 333 333 330 327 332 332 332 332 333 332 328 317 308 300 297 295 296 295 296 305 308 311 314 325 333 330 328 328 327 325 325 324
333 335 338 340 339 338 336 335 333 332 331 331 331 329 324 327 330 332 329 328 326 320 312 300 296 295 294 293 293 294 303 307 309 312 320 329 328 326 324 322 321 321 320
333 336 336 339 339 338 335 335 333 332 331 331 330 329 325 325 326 327 326 325 322 313 306 297 295 294 293 293 292 294 302 304 306 309 311 323 324 321 320 318 318 318 318
334 335 336 337 340 339 336 335 333 332 331 329 330 330 327 324 326 325 323 322 319 307 299 296 294 294 292 292 291 292 298 302 304 304 304 311 319 316 315 316 315 315 316
323 336 336 337 337 337 337 335 333 333 331 329 329 329 328 324 323 323 323 319 314 300 296 294 293 292 292 291 289 291 294 298 301 301 301 301 303 315 315 313 312 313 312
308 319 334 339 338 337 337 336 334 333 331 329 327 327 328 325 323 321 320 316 304 296 296 294 293 291 290 289 288 290 290 296 297 298 297 297 296 297 305 308 307 308 309
307 308 317 334 337 337 337 336 334 333 331 330 327 326 326 324 323 320 319 309 298 296 295 295 292 291 288 289 290 292 291 292 296 298 294 294 294 293 293 303 305 305 305
305 306 308 323 336 337 337 336 335 334 332 331 329 328 324 324 321 318 312 303 297 296 294 293 291 289 288 289 293 292 290 290 291 292 291 292 289 289 289 289 289 292 302
303 303 305 313 326 334 336 333 332 331 331 329 330 328 324 323 317 314 308 300 297 297 296 293 290 289 288 289 290 290 289 289 289 288 289 288 288 288 288 288 288 287 288
301 302 302 306 322 332 334 334 330 333 332 331 330 327 325 320 316 311 307 303 299 298 296 294 291 289 287 287 288 288 287 289 287 288 287 288 287 288 288 287 286 286 285
298 300 302 303 311 327 333 332 321 320 319 321 320 321 322 320 314 313 310 305 301 301 297 295 292 290 287 286 287 289 284 285 285 286 286 286 286 285 285 286 286 285 285
297 298 300 302 304 318 328 330 329 326 324 325 326 325 318 318 314 312 310 306 303 301 299 296 294 291 289 286 286 287 285 286 285 283 285 285 285 285 284 285 284 284 285
296 296 297 298 301 305 326 330 327 326 326 321 323 322 318 315 313 312 310 306 303 301 300 297 294 292 290 288 287 285 284 284 283 283 281 283 284 285 284 284 283 283 284
296 298 297 296 298 302 310 327 326 325 322 314 311 315 313 311 310 309 307 304 304 303 298 297 297 295 292 290 289 289 286 286 284 283 281 281 282 283 283 283 282 282 283

GFSSE_sfc_thetae_027.txt.gz
Theta_e
341 352 357 356 355 355 356 356 357 358 357 355 354 352 350 348 345 344 344 343 343 344 344 345 346 345 345 343 342 339 337 338 339 341 341 342 342 342 341 341 339 337 336
343 352 356 356 355 355 354 355 356 356 356 354 352 351 348 346 343 343 343 341 341 345 348 348 347 346 344 341 337 336 337 337 336 337 336 338 341 340 340 339 337 335 338
346 351 350 355 354 353 352 353 354 355 355 355 351 349 346 344 342 342 340 339 339 346 347 346 345 343 341 339 336 337 338 338 336 335 333 334 334 335 338 337 338 336 338
349 348 347 353 352 351 352 352 353 354 354 353 350 348 345 343 341 339 339 339 344 345 344 343 341 340 339 338 338 339 339 338 335 332 332 335 337 338 336 334 334 334 336
348 347 347 352 352 351 350 350 353 353 354 352 350 346 344 339 339 339 340 340 340 341 341 339 338 338 338 338 339 340 339 337 334 331 333 337 339 339 338 337 336 336 336
347 347 349 352 351 350 350 350 351 351 351 351 350 345 339 339 340 339 339 338 339 339 338 339 341 341 341 340 340 338 336 334 331 331 332 337 338 336 336 334 340 343 339
346 347 347 351 349 347 348 349 349 350 350 350 347 342 339 339 339 339 339 340 340 340 340 341 342 342 339 336 335 334 335 332 332 334 336 336 335 334 337 337 338 339 342
346 347 347 348 348 348 349 349 350 350 352 348 347 343 340 339 339 339 340 341 341 343 342 342 343 338 331 330 330 331 334 332 333 333 330 329 331 330 331 331 334 339 340
347 347 347 346 345 347 348 347 348 349 350 348 347 345 344 343 340 339 339 340 341 342 342 343 339 329 328 328 329 330 329 325 327 325 323 326 332 328 330 331 335 340 338
346 347 346 346 344 346 345 345 345 346 347 347 346 344 342 342 342 341 341 341 339 344 343 340 334 329 327 325 326 328 324 321 321 321 325 328 334 339 341 339 338 337 336
343 344 346 345 344 345 345 342 343 343 343 343 343 340 339 342 341 340 338 339 342 341 340 337 332 327 322 321 319 320 318 319 321 327 332 331 337 338 338 337 335 334 332
336 339 342 345 343 342 342 343 342 341 341 342 342 343 342 342 343 340 337 338 342 340 338 332 324 316 309 308 309 314 317 320 322 329 332 337 335 335 333 331 330 330 328
336 338 341 343 344 343 340 340 341 341 341 341 341 341 340 339 341 341 340 341 341 331 325 315 309 307 306 306 306 313 316 320 325 328 330 333 329 328 329 327 326 325 325
335 337 340 341 341 343 344 339 338 339 339 339 340 339 336 337 339 340 339 340 338 332 320 311 307 304 303 303 304 310 315 320 324 326 328 330 328 326 325 323 322 322 322
336 336 338 340 339 341 342 341 338 338 338 338 338 338 335 336 337 338 335 337 335 328 319 308 305 304 303 302 303 308 313 317 320 321 323 324 326 322 321 320 320 320 319
337 339 341 341 340 340 340 340 339 337 338 337 337 337 335 334 338 336 333 334 332 325 316 308 304 303 302 302 301 307 311 315 317 316 317 318 321 319 317 316 317 318 317
329 339 339 341 341 339 339 340 339 338 336 336 336 336 335 332 334 336 334 332 331 319 309 304 302 302 301 299 300 303 309 312 313 311 312 312 313 317 316 314 315 313 313
313 323 337 341 340 339 338 339 339 338 337 336 335 335 335 333 331 333 332 332 328 312 306 303 302 300 300 300 299 300 305 308 309 308 308 307 308 308 310 309 309 310 310
312 312 316 336 340 339 339 339 338 338 337 337 335 334 333 333 331 330 330 331 321 310 304 303 300 301 299 298 298 300 300 305 306 304 304 303 305 304 305 306 306 306 305
310 311 312 319 335 340 340 338 336 336 336 337 335 333 332 332 331 329 328 326 315 308 303 302 300 298 298 298 298 299 299 302 304 303 302 300 300 299 298 298 300 300 302
307 308 309 311 319 336 335 335 333 331 333 333 334 334 331 330 329 328 326 321 312 308 304 302 299 297 296 299 299 298 298 298 299 300 299 298 297 297 297 297 298 298 297
304 306 307 308 312 325 335 336 335 333 334 334 333 333 332 330 327 327 324 318 311 307 302 300 297 296 297 298 298 299 296 296 296 296 297 296 296 296 295 295 295 295 295
301 302 304 307 309 317 329 335 331 328 327 331 330 330 330 330 327 326 323 318 310 307 303 301 297 297 296 296 296 299 294 296 295 294 294 295 294 294 295 294 293 293 294
300 301 302 304 306 313 329 332 331 327 326 329 330 330 329 329 326 324 321 319 313 309 306 301 299 298 298 295 292 292 293 296 295 291 293 293 293 293 293 293 293 292 292
300 304 302 301 303 307 319 332 331 328 330 331 330 330 328 325 325 322 320 316 313 308 308 305 300 298 297 296 296 291 291 292 291 294 291 291 291 293 293 293 292 291 291
304 304 305 305 302 303 306 322 330 329 328 326 326 326 324 322 322 319 317 316 314 310 309 306 303 301 298 295 294 294 294 293 291 291 291 290 292 291 292 292 291 291 290

GFSSE_sfc_thetae_030.txt.gz
Theta_e
346 353 358 358 357 357 357 358 358 358 358 356 355 354 351 348 347 346 345 343 344 346 344 346 346 346 344 343 340 339 339 340 341 342 342 343 342 341 341 339 337 335 337
349 352 355 357 358 358 358 358 358 358 357 355 353 352 349 346 344 345 342 342 345 347 347 347 347 345 343 339 337 338 338 337 337 337 339 341 342 340 339 338 338 338 339
349 350 349 355 354 355 356 355 356 356 356 354 352 349 347 344 343 343 340 340 347 348 348 347 345 343 340 337 338 338 338 337 336 335 334 334 333 336 337 338 338 337 340
349 350 350 354 354 354 353 353 355 356 355 354 350 347 345 343 341 339 339 344 346 346 345 343 342 340 338 339 339 339 339 336 335 332 334 336 336 338 336 335 334 334 336
349 349 349 353 353 351 353 351 352 355 355 353 349 346 344 340 340 340 340 343 343 343 341 340 339 339 339 339 340 340 338 336 333 334 337 339 339 337 338 335 336 337 336
348 348 349 352 352 351 352 351 352 355 353 350 349 345 339 340 340 340 340 340 340 340 339 341 341 341 340 340 339 337 336 334 334 335 337 337 337 337 335 341 341 342 342
346 347 347 352 351 349 349 350 351 353 353 349 346 342 340 340 340 339 339 340 340 339 340 342 342 340 337 335 335 334 336 332 336 336 337 335 335 335 335 336 337 341 341
346 347 347 349 350 349 349 349 349 351 353 350 346 341 340 340 340 340 340 342 341 341 342 343 340 334 331 331 332 335 334 335 335 336 333 331 331 329 330 331 336 341 339
347 345 346 346 346 347 349 350 350 350 352 348 346 344 343 342 340 340 341 342 344 342 343 341 333 330 330 330 331 332 329 326 331 330 326 327 332 329 330 332 340 339 338
347 347 346 345 343 343 346 346 347 349 348 346 345 344 342 341 341 341 342 342 341 343 343 337 330 328 327 327 331 328 325 325 324 324 325 328 337 341 340 339 338 337 335
344 346 347 343 342 343 344 342 343 344 345 344 343 340 339 338 339 338 338 340 343 343 340 335 330 326 324 322 322 321 319 321 322 325 328 333 338 339 338 336 335 333 331
339 342 346 345 342 343 342 343 341 339 342 343 344 342 339 339 339 337 335 338 342 341 339 334 329 320 316 317 315 316 319 320 323 328 332 338 336 335 333 332 330 329 328
339 341 342 346 344 343 342 343 342 340 339 340 341 343 341 341 344 342 339 339 339 334 333 327 318 317 315 314 313 316 318 320 322 325 330 334 331 331 329 328 327 326 325
337 338 341 343 345 344 344 342 342 340 339 339 339 341 342 341 341 341 341 340 340 336 331 325 320 315 312 311 311 314 316 319 322 323 328 330 329 327 325 325 324 324 323
337 338 340 342 342 343 345 344 342 341 338 338 339 340 340 339 338 339 339 341 339 338 331 324 318 314 312 310 310 312 314 317 319 322 325 326 327 323 322 321 322 320 320
341 343 343 342 342 343 344 345 344 342 340 338 338 339 340 339 338 338 339 338 339 337 332 324 317 314 312 310 308 311 314 317 318 319 321 321 323 321 319 318 319 319 318
328 334 342 345 346 344 343 345 345 345 342 340 339 339 338 338 337 338 337 337 336 337 331 322 316 313 311 308 308 310 313 315 316 316 317 317 316 320 318 316 317 314 315
320 321 330 340 345 344 342 342 344 345 344 342 341 340 339 337 336 337 336 335 337 336 327 319 315 311 310 308 307 307 311 313 314 313 313 313 313 314 312 313 311 312 310
319 319 320 327 338 342 343 342 341 342 344 344 342 341 340 339 337 335 335 337 337 333 323 318 313 312 309 307 306 306 308 310 311 310 310 310 311 311 310 308 308 307 306
318 318 319 321 324 334 341 340 340 339 339 343 342 342 341 340 338 336 334 334 335 330 322 317 313 310 309 307 302 303 305 308 310 309 308 307 308 307 306 305 306 304 303
314 315 316 317 319 323 331 336 336 334 336 336 338 341 341 340 338 336 336 333 333 328 323 317 313 307 305 306 304 303 303 304 306 308 307 306 305 304 303 302 303 302 301
310 311 313 314 315 318 324 331 336 336 336 337 336 336 338 339 338 336 335 333 332 327 325 318 311 307 307 306 305 304 300 300 302 305 305 304 303 302 301 301 301 300 300
307 309 309 310 312 314 318 326 334 337 337 335 334 334 334 338 338 336 335 334 331 327 324 318 311 308 304 303 306 305 300 300 300 301 302 302 301 301 301 300 299 298 298
310 311 310 309 309 311 315 319 326 329 329 331 332 335 334 333 334 335 333 333 329 325 322 317 312 310 309 303 302 301 301 304 300 296 298 299 300 299 300 299 298 297 298
312 313 313 313 311 310 312 317 324 327 328 329 331 333 334 334 331 332 332 331 328 324 323 319 314 309 308 308 303 299 297 298 299 299 297 295 297 298 299 298 298 297 296
313 313 313 311 312 313 311 312 319 325 327 328 330 331 331 330 328 329 328 329 328 325 323 320 316 311 308 308 303 299 298 296 295 295 296 297 296 296 297 297 297 296 296

GFSSE_sfc_thetae_033.txt.gz
Theta_e
348 352 360 359 357 357 357 358 358 358 358 356 355 353 351 349 347 346 344 344 345 344 347 346 347 346 344 342 341 341 341 341 342 343 343 344 342 341 339 338 342 336 340
350 351 357 359 359 358 358 358 359 358 357 357 355 352 349 347 346 344 342 343 347 346 348 347 346 344 341 340 340 339 338 338 338 339 342 342 343 340 339 338 340 338 339
349 350 349 356 357 359 359 358 358 357 357 354 352 350 347 345 345 342 341 347 349 349 348 347 344 341 339 339 339 338 337 336 335 334 338 332 333 337 338 337 338 340 340
349 348 348 355 355 356 356 355 357 356 354 352 350 348 344 344 342 340 342 347 347 347 345 343 341 339 339 339 339 339 337 335 332 334 334 335 336 339 339 338 336 335 337
347 348 349 353 353 353 352 354 356 356 353 353 349 346 344 341 340 340 345 345 344 343 341 340 339 339 339 340 340 339 337 333 333 335 337 338 338 337 338 341 340 337 340
347 348 349 352 352 350 351 351 353 355 353 350 348 344 341 340 341 341 342 342 341 341 341 341 341 341 340 340 339 337 336 333 335 335 336 335 335 337 340 340 343 344 344
345 348 346 352 351 350 350 350 352 355 351 348 346 341 341 341 340 340 341 341 340 340 342 342 341 339 337 336 336 337 334 333 335 335 334 333 333 334 334 337 341 342 341
344 346 346 348 351 350 349 349 350 353 351 349 344 341 341 341 340 340 340 340 340 341 342 342 338 334 332 333 335 336 333 334 333 333 330 330 333 331 331 332 341 340 339
345 345 344 345 346 348 349 349 348 351 351 348 345 344 343 342 340 340 342 342 342 342 343 338 332 331 330 332 333 332 329 330 329 327 323 325 337 332 331 334 340 338 337
345 344 343 343 342 341 342 348 348 348 349 346 344 343 341 341 342 342 343 343 343 343 342 333 330 329 329 331 331 328 325 327 323 322 323 331 341 340 340 339 338 337 335
344 345 344 342 341 341 342 343 345 348 345 343 342 340 337 335 336 338 339 340 342 344 339 333 329 327 326 326 325 322 323 320 320 323 328 338 339 340 338 337 335 333 332
339 342 344 342 340 341 341 342 343 344 346 342 340 340 337 336 335 333 336 339 342 342 339 334 328 324 323 319 316 317 317 319 321 325 334 338 336 335 335 333 331 330 329
339 341 343 344 342 341 341 341 338 338 339 341 342 340 337 337 337 336 336 336 340 335 335 331 326 322 320 318 316 316 317 318 321 324 332 335 333 332 330 329 328 327 327
338 340 342 345 344 342 342 341 341 339 338 337 338 340 339 339 339 339 338 336 334 336 333 330 324 320 317 315 315 315 316 318 320 322 328 332 331 329 327 327 326 325 324
339 340 340 342 344 344 342 343 343 341 338 337 338 339 339 340 339 339 339 339 338 337 334 329 323 318 316 314 313 313 315 317 319 322 327 327 328 325 323 324 323 322 322
339 341 343 341 342 343 343 344 344 343 342 339 338 338 338 338 338 337 337 337 339 338 336 331 324 319 316 314 312 312 314 317 318 319 323 322 325 324 321 321 321 320 320
335 340 342 344 344 343 344 345 345 345 343 341 339 339 338 338 337 336 336 336 338 340 335 332 325 319 316 314 312 312 314 315 316 317 319 319 317 320 321 320 320 317 317
324 325 331 339 344 345 345 345 345 345 345 343 342 340 339 338 337 335 336 337 335 338 334 332 323 317 315 313 311 310 312 314 314 314 316 316 315 314 315 318 315 315 313
321 322 323 325 333 340 344 343 342 345 345 344 343 342 341 339 338 336 336 337 335 335 335 330 323 318 315 313 312 310 310 312 312 312 312 313 313 314 312 311 314 311 309
319 319 320 321 323 328 337 342 342 341 342 345 343 343 341 341 340 338 336 336 336 335 333 327 322 318 316 313 308 307 308 310 312 311 309 309 310 311 310 308 308 305 306
316 316 318 318 320 322 325 331 338 337 337 338 343 343 343 342 341 340 338 335 334 332 331 326 321 316 313 313 307 306 307 306 308 309 309 308 308 307 307 306 305 305 302
310 313 314 316 318 319 321 324 332 338 336 337 338 338 341 342 341 340 338 336 335 333 331 327 321 314 311 310 307 307 302 301 303 306 307 306 305 305 303 303 303 302 303
310 311 311 313 314 315 317 320 323 331 337 336 335 335 336 338 340 339 338 336 335 334 331 327 321 315 310 309 311 309 305 302 300 303 304 304 303 303 302 301 301 301 301
313 315 314 314 312 312 314 314 317 322 326 332 333 335 336 336 334 338 336 335 334 333 330 328 323 316 314 307 307 308 307 307 301 296 300 301 302 301 300 300 299 299 299
314 316 316 314 314 315 313 313 314 317 323 330 331 331 332 336 334 333 335 334 331 333 330 328 322 314 315 311 307 304 303 301 302 301 295 295 299 300 300 300 299 298 298
314 314 315 313 313 314 315 314 312 316 319 324 327 328 330 333 334 331 331 331 331 330 328 326 323 317 315 314 309 305 301 299 297 297 298 296 294 296 298 299 298 297 297

GFSSE_sfc_thetae_036.txt.gz
Theta_e
344 351 360 359 358 358 358 358 359 358 357 355 355 353 351 349 348 346 345 345 346 348 348 348 348 345 344 343 342 342 341 342 343 345 346 345 342 339 340 343 343 338 342
347 352 359 360 358 359 360 360 358 357 357 356 354 353 350 348 346 344 343 348 347 348 348 347 345 342 343 342 340 340 339 338 340 343 343 341 342 340 339 340 342 338 339
346 349 354 359 359 360 360 359 358 357 357 356 352 349 347 347 344 342 347 350 349 349 349 346 343 341 340 340 339 338 336 335 336 340 343 330 332 338 336 337 339 340 338
346 346 347 357 359 359 358 359 358 357 356 353 350 347 344 345 341 341 348 349 349 348 345 342 340 340 340 340 340 337 335 332 334 337 333 334 335 340 340 341 337 337 339
343 344 348 354 355 355 356 357 358 356 353 352 350 346 344 341 340 347 348 346 345 343 341 340 340 340 341 341 340 338 335 332 336 336 331 332 330 338 343 345 341 343 344
342 344 349 352 353 349 351 354 356 355 352 350 347 344 341 341 342 344 344 343 342 342 341 341 341 341 341 340 339 338 335 335 337 330 328 336 332 339 341 344 345 344 343
342 343 346 352 349 349 350 351 353 355 351 349 345 342 341 341 342 342 342 341 341 341 342 342 341 339 337 337 338 337 334 336 331 328 326 326 327 334 336 341 342 342 341
342 343 343 348 346 350 349 349 353 354 350 348 344 342 342 341 340 341 341 340 341 342 343 341 336 334 334 335 337 335 334 335 329 324 323 323 334 332 332 341 341 340 338
342 341 341 342 345 347 347 347 351 352 350 347 345 344 344 342 340 340 341 341 342 343 343 335 333 333 333 334 333 332 331 330 320 318 321 327 340 333 334 341 340 338 336
339 340 340 340 341 339 341 346 345 349 348 346 344 343 341 340 342 343 343 344 343 344 339 333 332 331 332 332 330 327 328 327 314 316 328 335 341 339 341 340 338 336 335
339 338 338 338 335 334 335 342 345 345 344 343 341 339 337 333 335 337 338 340 342 344 337 332 331 328 329 329 326 326 324 314 312 318 330 340 341 341 340 338 335 333 332
334 336 336 335 334 334 339 340 337 343 342 340 337 334 332 330 330 334 335 339 343 342 337 333 329 327 325 312 312 318 308 311 314 327 332 339 337 337 336 334 332 331 330
337 338 339 337 334 335 336 337 335 341 341 339 337 335 333 331 329 332 332 334 334 333 331 330 324 317 313 311 308 308 310 310 313 327 332 336 335 334 332 331 329 328 327
336 338 340 340 337 334 335 335 333 332 334 334 337 336 334 330 332 330 332 328 332 332 329 325 320 317 312 309 307 307 309 310 311 323 326 333 334 331 330 328 328 326 326
334 337 339 339 339 337 335 335 335 334 332 332 332 335 335 334 333 335 337 332 329 331 327 324 319 312 310 308 306 306 307 309 311 321 320 328 330 329 327 327 325 325 324
335 336 339 340 339 339 337 336 337 337 334 332 331 333 333 335 334 334 334 334 332 333 332 324 319 313 309 307 306 305 306 309 310 318 318 319 326 327 324 325 324 323 323
335 338 338 338 340 340 338 338 339 339 338 334 332 332 332 332 332 334 332 332 333 334 332 330 320 313 309 308 305 305 307 308 310 311 316 313 316 322 324 323 322 321 321
317 322 339 342 340 339 340 339 339 341 339 337 335 333 333 333 332 329 328 331 332 334 333 327 321 311 309 306 304 303 305 307 309 309 311 312 311 311 318 324 321 319 318
314 315 317 325 338 340 339 341 339 339 341 338 338 336 334 333 332 330 328 330 331 330 331 328 322 311 308 306 305 303 303 305 306 308 307 308 308 308 307 317 318 317 314
311 312 312 316 318 320 334 338 337 337 336 338 338 338 336 335 333 331 329 329 331 329 331 329 320 313 309 307 306 303 301 303 305 304 304 306 305 307 304 304 304 305 312
307 309 309 311 313 314 315 322 333 333 335 335 337 338 337 336 335 331 331 328 332 330 329 330 319 312 309 306 300 299 299 300 301 303 303 302 303 303 302 303 302 300 303
303 305 306 308 311 312 313 314 323 334 334 335 334 336 335 336 336 334 334 329 327 330 329 329 321 310 307 304 299 298 295 296 298 300 301 301 300 301 301 300 300 299 297
306 306 308 307 307 308 309 310 312 314 326 329 329 331 334 335 334 335 334 334 329 326 329 327 321 313 308 304 304 301 297 295 294 297 299 300 299 298 298 298 298 298 297
308 310 310 310 309 308 307 306 306 308 311 319 329 332 331 332 333 335 331 330 332 333 329 327 322 316 308 304 303 306 301 300 295 292 297 299 299 298 297 297 296 296 296
310 310 310 310 309 309 308 306 305 305 308 313 321 325 327 330 332 330 332 331 330 331 331 328 323 317 312 308 306 304 303 299 297 295 291 294 297 297 296 297 296 295 295
308 308 308 307 307 308 307 308 307 305 306 308 313 319 321 323 327 328 330 330 330 329 329 327 325 320 313 311 306 304 303 301 297 297 294 292 293 294 294 296 296 295 294

GFSSE_sfc_thetae_039.txt.gz
Theta_e
343 353 360 359 360 359 359 359 359 359 357 355 354 353 351 349 347 346 346 347 349 349 349 348 346 345 344 343 343 342 342 343 344 345 344 343 340 342 344 341 341 339 339
348 355 359 360 360 359 360 359 358 357 357 356 354 352 350 348 345 344 347 348 349 349 347 345 344 344 342 341 340 339 339 341 342 342 342 341 341 339 340 341 342 335 338
349 355 356 359 360 360 360 358 358 358 357 356 351 350 348 346 343 347 349 349 350 349 346 344 343 341 340 339 338 337 337 338 340 341 339 330 332 339 337 338 340 339 339
350 352 354 359 360 360 359 358 357 357 356 353 350 347 347 343 342 349 351 351 349 346 343 341 340 339 340 339 337 335 335 334 334 337 333 333 335 341 344 339 338 341 340
343 345 353 359 359 359 359 358 357 355 354 351 349 345 344 341 346 349 348 347 345 342 341 340 340 341 341 340 338 336 335 335 338 333 329 328 331 340 345 343 344 345 345
341 343 350 354 355 355 356 357 355 354 351 348 346 344 341 343 346 346 345 343 342 342 341 341 342 341 340 339 338 336 336 337 335 327 330 333 330 340 344 345 344 344 344
340 343 345 352 352 352 354 354 354 354 350 348 344 342 342 343 344 344 343 342 342 342 342 341 340 339 338 338 337 336 336 337 329 324 324 324 326 335 340 343 342 341 340
340 342 344 347 346 350 351 352 354 353 351 346 345 342 342 342 342 343 342 341 342 342 342 339 336 336 336 337 336 335 335 333 325 321 320 322 334 333 335 342 340 338 337
340 339 339 339 343 346 347 348 351 352 349 346 346 345 344 342 341 342 341 341 342 344 340 336 335 334 335 335 333 331 331 330 315 318 327 329 339 334 341 341 339 336 336
338 338 336 338 341 340 340 344 348 348 347 345 345 343 341 341 342 343 343 343 344 344 337 334 332 333 333 332 329 328 328 324 312 324 332 335 340 337 341 339 338 336 334
336 337 338 338 337 336 338 341 343 345 344 342 341 338 337 333 336 338 338 341 343 343 336 333 331 331 332 331 329 327 324 311 311 326 332 341 342 342 340 338 336 333 332
331 333 337 336 334 332 338 338 338 341 339 337 335 333 331 330 332 335 335 337 341 341 337 334 331 329 324 312 309 319 306 308 318 329 332 341 340 340 337 335 334 331 330
330 336 335 332 333 332 336 336 333 338 336 335 333 331 330 329 327 330 331 335 335 333 330 329 325 318 312 310 308 304 307 308 317 328 333 338 336 334 333 332 331 329 328
331 333 337 338 332 332 336 335 334 339 337 335 333 332 330 327 325 329 330 331 331 330 326 324 321 317 313 309 306 305 307 308 319 323 329 334 335 334 332 330 329 328 327
331 333 335 337 336 333 333 331 331 333 337 336 335 334 333 328 327 329 328 328 331 330 328 324 321 316 311 307 306 305 306 307 316 320 322 330 333 332 330 329 328 327 325
333 333 337 336 337 337 334 331 331 332 333 331 331 335 334 331 331 331 331 327 325 328 328 326 320 313 308 306 304 303 304 307 311 317 319 323 329 330 328 328 327 326 324
334 335 336 337 338 337 336 336 335 334 333 330 329 330 333 332 332 332 332 331 330 330 328 328 322 314 308 306 304 303 304 305 310 316 315 316 321 325 328 326 325 325 324
331 335 336 339 338 337 336 337 337 339 337 336 333 330 330 331 332 331 330 330 332 331 330 327 323 316 308 305 303 302 303 305 307 313 313 312 312 313 322 327 325 324 324
313 327 334 337 337 337 336 337 337 337 340 336 335 333 330 331 330 329 328 330 330 332 331 329 325 315 308 304 303 302 301 303 306 308 311 310 309 309 308 321 324 323 322
306 307 309 322 335 337 337 337 336 336 336 337 336 334 335 332 331 330 328 327 330 329 330 327 324 312 308 306 306 303 300 302 304 304 304 310 307 307 306 307 310 311 318
303 304 305 307 308 312 317 328 330 333 331 330 332 335 335 334 333 328 327 325 329 329 329 328 322 315 308 306 302 298 298 298 300 302 302 302 304 306 304 304 302 302 307
304 304 305 305 305 306 309 310 324 330 331 333 332 332 333 333 333 335 331 326 326 327 326 325 321 313 314 307 303 296 294 296 297 299 301 301 301 303 304 303 301 299 300
306 306 307 307 306 305 305 306 306 309 318 326 326 327 331 332 332 331 330 330 329 328 326 325 324 317 311 307 304 302 295 295 293 296 298 299 299 299 301 302 301 300 297
307 308 309 309 307 308 305 304 302 303 304 312 324 327 329 329 331 331 329 328 326 326 325 327 327 322 312 307 304 304 304 299 294 293 297 299 300 298 299 298 299 297 297
308 307 307 307 306 306 305 306 303 302 303 305 308 313 324 328 330 330 330 327 326 327 328 324 322 320 315 312 307 303 302 301 297 294 293 297 299 300 299 300 298 297 296
306 306 306 305 305 305 305 304 303 303 303 303 304 305 310 317 324 328 328 327 328 328 325 322 322 322 319 315 310 306 304 303 301 296 294 294 297 299 298 298 297 295 294

GFSSE_sfc_thetae_042.txt.gz
Theta_e
346 353 360 360 358 360 360 359 359 358 356 355 354 352 351 348 346 347 347 350 350 349 347 346 346 345 345 343 343 343 344 344 343 343 341 341 342 344 341 341 341 335 339
349 354 359 361 360 359 360 359 358 357 356 355 353 351 349 346 345 346 348 349 348 346 345 345 344 343 342 341 340 341 343 342 341 340 341 340 340 339 341 340 338 335 338
350 354 356 360 360 360 359 357 358 357 357 355 351 350 347 344 345 349 349 349 349 346 345 343 342 340 339 338 338 340 341 341 340 337 336 330 333 339 337 339 339 338 338
351 353 354 359 360 359 359 358 358 356 354 353 350 348 345 343 349 350 350 350 347 344 342 340 339 338 338 336 337 337 336 335 334 338 331 332 335 343 340 337 340 340 343
349 352 355 359 360 359 358 357 358 356 351 351 348 345 342 344 350 350 350 347 344 342 340 339 340 340 339 338 337 336 337 338 336 334 328 329 332 342 344 343 343 345 346
342 347 356 358 358 358 357 357 356 354 349 347 346 343 342 347 349 348 346 343 342 341 340 341 341 340 339 338 338 338 338 338 334 329 330 333 331 343 345 345 344 344 343
340 345 350 355 356 357 356 355 354 353 349 347 344 341 343 346 346 345 343 342 341 341 341 341 340 339 338 338 337 337 337 334 325 322 322 323 326 338 344 343 341 341 340
339 341 344 349 352 353 353 353 354 352 349 346 344 343 343 342 342 343 343 342 342 342 341 339 338 337 337 337 336 336 333 331 323 320 320 322 334 333 342 341 338 337 335
340 339 338 339 344 348 348 351 352 351 348 347 345 345 344 343 342 341 341 342 342 342 339 336 335 335 336 336 334 332 330 327 314 318 323 324 335 334 341 340 337 335 335
337 337 335 336 338 338 340 347 348 348 346 345 345 343 341 340 342 342 342 343 344 342 336 335 333 334 334 332 329 329 327 323 317 327 330 331 339 340 341 339 337 335 333
335 335 335 336 336 337 337 340 346 345 344 343 342 339 337 333 336 338 338 340 343 341 336 333 332 333 334 332 331 328 322 309 312 326 331 341 340 341 340 338 336 334 331
330 332 335 335 335 335 340 336 337 340 337 336 335 333 331 330 332 336 334 338 342 340 337 334 332 331 327 312 308 315 305 307 320 328 331 342 342 341 339 337 334 332 329
330 331 334 334 333 332 334 335 334 336 334 333 332 331 329 329 328 330 330 333 333 333 329 329 325 319 312 309 307 302 305 308 322 327 333 340 340 339 335 333 332 330 328
332 333 332 331 329 329 334 334 333 336 334 331 331 330 327 325 324 326 328 330 331 330 326 324 320 317 312 310 308 304 305 306 318 325 328 336 338 334 333 332 330 329 327
330 333 334 335 330 329 332 332 331 335 336 334 332 331 329 326 324 326 328 329 330 329 326 323 321 319 314 311 305 303 304 305 318 322 323 330 335 335 333 332 330 328 326
330 332 334 335 335 332 330 329 331 333 336 335 334 333 332 329 327 326 327 327 329 330 329 325 323 319 314 308 305 303 303 304 313 318 320 324 332 334 333 331 329 328 327
331 332 333 335 335 334 334 330 329 329 331 331 332 334 333 331 329 328 328 327 326 327 328 325 323 318 310 307 304 303 302 303 308 317 318 319 324 328 331 330 328 327 326
332 332 334 338 336 335 334 335 335 335 332 331 330 329 333 333 331 329 329 330 329 326 327 325 321 316 310 306 303 302 301 303 305 315 315 315 316 317 325 329 328 327 327
327 332 332 335 335 335 335 335 335 336 335 334 333 331 329 330 331 332 331 331 330 331 329 327 323 316 310 306 304 302 301 301 304 309 313 312 311 312 312 321 327 326 327
306 311 317 331 334 334 334 334 333 334 334 336 335 334 333 330 328 329 329 329 329 329 329 327 326 315 311 308 306 305 301 301 302 303 308 313 309 309 308 309 316 317 324
303 304 305 307 306 323 330 330 329 331 332 330 332 334 334 333 331 327 326 325 326 327 328 328 326 320 312 308 307 303 302 301 299 301 302 307 308 308 306 307 310 308 314
303 304 305 305 305 306 308 310 325 328 330 331 330 331 332 333 333 332 327 325 326 326 324 323 322 316 317 308 306 299 299 300 298 299 300 302 304 307 306 305 304 303 304
305 306 307 307 306 305 304 305 306 306 312 323 325 326 328 330 331 331 330 328 325 326 326 325 324 319 319 308 307 306 294 296 295 296 296 300 300 301 305 306 305 303 301
306 306 306 306 305 306 305 304 302 302 302 306 317 321 323 326 327 329 328 327 326 324 324 322 323 322 314 310 307 307 307 301 296 297 295 295 298 298 299 302 304 303 301
306 304 303 304 305 305 304 303 302 301 302 303 304 305 308 315 323 326 328 326 325 324 324 323 323 323 321 320 309 304 304 304 300 298 295 296 300 300 299 301 302 302 300
304 303 303 304 303 304 304 304 303 301 301 302 303 303 304 307 312 320 324 325 324 323 323 321 322 319 320 316 316 313 307 305 304 300 298 297 298 301 300 301 299 298 297

GFSSE_sfc_thetae_045.txt.gz
Theta_e
341 348 359 360 358 357 357 358 358 357 356 354 353 351 349 347 347 347 350 350 349 347 347 346 346 345 344 344 346 345 344 342 341 341 341 343 343 340 341 340 337 333 340
348 352 359 359 358 359 359 359 357 356 356 353 352 350 348 346 346 347 349 348 346 345 344 344 344 343 342 342 343 343 342 340 339 338 338 338 340 340 339 337 337 334 339
349 353 356 359 360 360 359 357 357 356 355 353 350 348 346 345 347 348 350 347 346 345 343 342 341 340 339 340 342 342 341 340 338 338 337 331 332 337 338 339 338 338 337
350 352 354 359 360 359 357 357 356 355 353 351 350 347 344 345 349 349 350 348 345 343 339 338 338 337 337 338 339 338 337 335 335 338 329 331 335 342 336 337 340 341 343
348 351 353 359 359 358 357 357 355 354 351 350 348 344 343 350 350 350 350 347 343 340 339 338 339 338 337 337 337 338 338 336 338 334 327 329 331 342 342 342 343 346 345
347 348 354 357 358 357 357 357 356 352 349 347 345 342 344 350 351 349 347 343 341 340 339 340 340 339 338 338 338 339 338 338 333 327 328 332 330 344 345 345 343 343 342
344 350 353 358 358 357 356 357 355 352 349 346 343 342 347 348 348 346 344 342 341 340 340 340 339 338 338 338 337 338 335 337 325 323 322 323 325 341 343 343 341 340 340
343 347 350 354 356 356 356 354 353 352 348 345 343 343 345 346 346 343 343 342 340 340 340 339 337 336 336 336 336 335 333 332 323 319 320 321 330 335 341 340 338 336 334
341 340 340 343 347 349 351 352 352 351 348 346 345 345 345 344 341 341 342 342 341 341 339 335 334 334 335 335 334 331 331 327 317 316 319 320 331 332 340 339 337 335 333
336 336 334 337 340 340 343 348 348 347 347 345 344 343 341 341 342 342 342 343 343 341 336 334 333 333 333 332 329 328 325 323 316 324 328 326 336 337 341 338 336 334 331
334 333 334 334 335 336 336 341 346 345 343 343 341 338 336 332 335 337 336 339 343 342 336 334 332 333 334 332 330 327 316 308 310 324 328 336 338 341 340 339 336 334 330
329 331 333 333 333 334 338 337 339 340 337 336 334 333 330 329 331 335 333 337 341 340 337 335 333 333 328 311 307 311 304 306 316 324 329 340 340 341 340 338 332 332 329
329 331 332 333 333 333 334 333 335 335 333 332 331 330 329 329 328 330 329 332 333 334 329 330 326 319 313 308 307 303 303 306 316 325 331 340 341 340 338 333 330 330 328
329 330 332 332 331 330 331 332 332 334 332 330 330 329 326 325 324 325 326 328 329 330 326 324 320 318 313 309 308 307 303 305 318 324 327 336 340 338 335 333 332 330 328
329 331 331 330 329 328 329 331 330 332 332 331 329 329 327 324 323 324 325 327 328 328 326 323 321 319 317 313 310 305 304 305 307 321 323 329 335 338 334 334 331 330 328
330 331 333 332 329 328 330 329 329 331 333 332 331 330 329 326 324 324 325 326 327 328 327 325 323 321 318 314 310 303 303 303 305 318 320 322 332 335 336 333 332 330 328
329 332 332 334 334 328 330 330 328 329 333 333 333 332 331 329 326 325 324 324 326 326 327 325 323 321 318 313 307 305 302 301 304 313 317 319 323 329 333 333 332 330 328
329 330 331 336 334 332 330 331 329 329 328 332 332 332 333 332 329 326 325 326 326 324 326 325 324 321 317 312 307 304 302 301 302 307 315 316 318 321 326 332 333 330 329
329 330 331 333 333 334 333 333 332 332 331 330 329 329 330 333 331 330 328 328 327 326 324 325 323 320 316 312 308 305 302 301 301 305 312 314 314 316 315 322 328 329 329
316 326 330 331 333 333 333 332 331 332 332 334 333 331 328 328 329 329 330 329 327 328 328 325 324 318 316 315 312 308 305 305 302 302 305 313 312 313 312 312 314 320 326
303 304 305 316 308 329 330 329 329 329 331 331 333 335 333 331 329 326 327 326 325 326 327 327 325 321 317 311 309 305 301 301 300 300 302 306 310 311 309 309 309 312 316
303 304 304 304 304 305 310 316 327 328 329 330 330 331 331 332 331 330 327 325 324 324 323 324 324 320 317 311 310 301 302 303 299 300 299 302 304 308 308 309 307 309 310
304 305 306 304 304 304 303 304 304 305 309 318 323 325 327 328 329 329 330 327 324 323 323 323 321 320 320 309 308 312 299 298 297 299 296 297 300 300 305 306 305 306 306
304 304 304 304 304 304 304 303 301 301 301 302 308 311 310 314 321 325 326 325 325 323 321 323 321 320 316 320 309 310 307 303 301 301 297 297 296 300 300 304 305 306 306
303 302 302 303 304 304 304 303 302 301 302 303 303 304 305 307 310 316 321 323 323 323 322 320 319 318 321 321 314 308 306 306 301 300 304 301 301 300 302 301 304 305 304
302 302 302 302 301 301 301 301 301 300 300 301 302 303 305 307 309 312 317 320 321 321 321 320 320 318 320 320 316 312 309 306 304 302 299 303 301 301 302 301 302 303 302

GFSSE_sfc_thetae_048.txt.gz
Theta_e
337 346 359 358 358 358 357 357 357 357 355 352 352 350 349 348 347 350 350 349 348 347 347 347 346 346 346 347 347 345 342 341 341 342 342 343 340 340 340 337 337 334 343
341 349 359 359 358 358 359 358 358 356 355 352 351 349 347 347 347 350 348 346 345 344 344 345 345 343 343 345 344 343 341 338 337 337 337 338 341 340 338 338 338 335 343
346 350 355 359 359 359 359 356 355 355 355 353 349 348 346 346 347 350 347 347 346 343 342 342 341 341 341 344 343 342 341 339 339 339 338 331 334 337 339 339 338 339 339
349 352 353 359 360 359 358 356 356 354 352 350 348 346 344 347 348 351 349 347 344 340 339 338 338 338 340 341 340 339 338 336 337 336 329 332 334 338 337 341 344 343 342
348 350 354 359 359 358 358 357 355 353 351 349 347 344 346 350 350 351 349 346 342 339 338 338 338 337 338 338 339 339 338 337 337 330 328 329 332 340 344 345 345 346 344
345 347 355 358 358 357 357 356 355 352 350 348 344 343 349 352 352 351 347 343 341 339 339 340 339 338 338 339 339 339 339 338 332 326 327 328 330 345 346 344 344 342 341
345 347 353 358 357 357 357 356 354 351 348 346 342 343 349 351 350 347 344 342 340 339 340 340 339 338 338 338 338 336 338 334 325 322 321 322 325 344 344 342 341 339 338
346 348 351 355 356 356 356 354 353 351 348 344 344 346 348 349 347 344 342 341 340 340 340 339 338 337 337 337 337 332 336 331 322 319 320 320 330 337 342 339 337 335 334
343 343 345 351 351 352 353 352 351 351 348 345 345 347 346 345 345 344 342 341 340 341 339 337 335 335 337 336 334 330 331 327 316 315 318 318 329 332 340 339 336 336 333
337 337 337 340 343 343 349 349 349 348 346 345 345 343 341 341 342 342 343 343 341 340 337 335 333 334 334 333 330 327 324 322 315 322 325 326 332 335 341 337 335 333 332
334 333 334 335 336 337 340 344 346 345 343 342 341 338 336 332 334 335 336 339 343 341 336 333 332 332 332 328 326 324 316 307 308 322 326 334 338 339 341 339 334 334 332
328 330 332 333 333 333 337 338 341 340 337 335 334 331 329 329 331 334 332 336 340 340 337 334 332 332 323 310 306 309 304 304 310 320 326 336 340 341 340 339 332 329 328
328 330 331 332 332 332 333 334 335 334 333 332 331 329 327 328 328 329 328 330 331 333 328 329 325 319 313 308 306 303 301 304 308 321 328 337 342 341 339 335 331 329 329
328 330 331 331 331 330 331 331 333 332 330 329 329 329 326 324 324 325 325 326 328 329 326 323 321 318 314 310 307 307 305 303 310 320 324 332 340 339 338 332 332 331 329
327 329 330 330 330 329 328 330 330 331 330 329 328 328 326 324 322 323 324 325 326 327 326 323 321 319 317 315 311 308 305 302 303 312 321 327 333 338 338 335 334 331 329
329 329 331 330 329 328 328 328 329 330 332 330 328 328 327 325 323 323 322 324 325 326 326 325 322 321 319 317 315 311 305 302 302 307 318 321 329 334 336 335 334 332 330
328 331 331 331 330 327 327 328 328 329 332 331 331 330 329 327 325 323 323 322 324 325 326 325 324 321 319 318 313 310 306 303 302 304 313 318 321 328 333 335 334 333 331
328 329 331 335 333 328 327 328 328 328 329 332 331 331 331 330 328 325 323 323 324 324 324 324 323 321 319 317 315 312 308 303 302 302 308 315 317 321 326 333 335 333 332
326 328 328 331 332 332 329 328 328 328 327 328 330 330 331 331 330 328 326 326 324 323 322 323 322 322 319 318 316 314 308 305 305 303 304 310 314 318 318 324 329 330 332
322 325 328 330 331 331 331 331 329 329 329 330 328 328 328 329 331 329 329 327 326 325 324 322 322 319 320 318 316 313 309 307 305 302 303 309 312 314 315 315 316 320 327
303 309 317 325 323 329 328 327 326 328 328 329 332 333 331 327 326 326 328 326 325 325 326 325 323 321 319 311 313 314 307 305 303 303 302 303 306 310 310 311 311 311 315
302 303 303 303 304 309 319 323 327 326 327 329 329 330 331 331 331 328 325 324 323 323 323 322 322 319 322 312 316 307 309 308 302 300 299 300 300 306 308 308 308 308 310
303 304 304 303 304 303 303 304 304 305 307 313 320 323 324 324 328 329 329 328 325 322 322 322 320 320 321 310 309 316 306 304 302 305 300 298 297 299 303 306 306 306 307
302 303 303 304 304 304 304 303 301 300 300 301 303 305 306 308 310 316 322 324 324 323 321 321 320 318 316 319 310 311 309 305 304 304 303 300 299 299 299 303 304 305 307
301 300 302 302 303 303 303 302 301 301 301 302 303 304 306 307 309 310 311 315 318 320 320 320 318 317 317 320 316 309 308 305 303 303 304 306 305 301 300 301 303 303 304
300 300 300 300 300 300 300 300 300 300 300 301 302 302 303 305 307 311 313 315 316 318 319 319 318 317 321 321 319 314 310 306 303 302 301 301 303 301 300 301 299 299 301

GFSSE_sfc_thetae_051.txt.gz
Theta_e
343 353 359 359 359 358 358 357 356 354 354 351 351 351 349 350 351 351 350 349 348 348 348 346 347 349 349 348 345 343 341 341 342 343 342 342 341 340 338 338 339 343 346
345 353 359 359 359 359 359 359 357 355 354 352 350 349 348 349 352 350 347 346 345 345 346 345 346 346 347 346 344 342 339 338 338 338 338 339 342 340 339 339 339 342 346
348 352 355 358 359 359 359 357 356 356 354 351 349 348 347 348 352 348 348 346 344 343 344 344 343 344 345 344 343 342 341 341 339 339 338 341 338 339 340 341 339 341 342
350 351 353 359 359 360 358 356 356 354 351 349 348 346 346 348 351 350 348 346 341 340 340 340 340 342 343 341 341 340 339 339 337 337 338 341 340 340 341 347 345 344 345
350 351 355 359 359 359 358 357 355 353 351 349 346 344 348 349 352 350 348 343 340 340 339 338 338 340 340 341 341 340 340 338 336 336 338 343 344 345 346 346 345 345 343
350 352 356 358 359 358 357 357 354 352 350 347 344 345 351 350 352 349 345 342 340 341 340 339 339 339 340 340 340 340 340 337 334 335 333 336 342 345 345 344 342 341 340
349 353 355 358 357 357 356 356 354 352 349 345 343 347 353 353 351 347 344 341 340 341 341 340 339 339 339 340 338 338 338 333 332 330 330 332 337 344 344 341 339 338 337
348 353 353 355 356 356 356 354 353 351 347 344 347 349 351 349 348 345 343 341 340 341 340 339 339 338 338 338 334 335 336 330 328 327 328 330 332 338 341 339 337 336 335
350 351 353 353 353 352 353 352 351 351 348 346 348 349 348 349 346 344 342 341 340 341 339 337 337 338 338 337 331 332 331 327 327 326 326 329 329 334 340 337 336 334 334
348 348 350 352 351 351 352 349 348 348 346 345 345 343 341 341 343 343 343 342 341 340 337 335 335 336 335 333 329 327 325 323 326 330 333 335 332 337 341 338 334 331 331
342 344 346 347 348 350 348 346 346 345 343 342 342 338 338 340 340 341 338 340 343 340 336 334 333 334 331 328 326 322 318 319 320 326 333 335 338 340 342 339 333 331 331
338 338 341 342 343 345 345 347 345 343 342 341 341 340 339 339 340 339 335 336 340 341 338 334 332 331 323 320 318 313 316 316 319 325 332 335 340 341 342 339 332 330 328
338 337 337 339 339 341 342 344 344 342 341 340 339 337 336 336 338 339 338 339 341 336 338 335 333 329 322 320 318 317 313 314 318 322 330 334 340 343 340 337 332 330 329
335 336 337 337 337 338 339 342 342 340 339 338 338 336 334 333 335 336 336 336 338 339 339 336 333 331 327 322 319 317 317 316 315 323 329 330 336 341 339 334 332 331 330
333 335 336 336 337 336 337 338 341 340 338 338 337 336 335 333 332 333 334 334 336 337 337 336 334 332 330 328 326 323 320 317 314 315 322 327 331 337 340 338 335 334 331
333 335 336 336 336 336 336 337 337 340 340 338 336 336 335 334 332 331 330 331 332 334 336 335 334 333 332 330 329 327 323 318 314 313 316 322 328 333 337 338 336 335 333
333 335 335 336 336 335 335 336 336 337 338 339 338 336 335 334 333 332 330 330 330 332 333 334 334 333 331 330 329 328 326 322 316 314 314 318 324 327 331 336 336 335 334
333 334 336 336 335 335 334 335 335 335 336 337 338 338 337 335 335 333 331 331 332 331 331 331 331 331 330 329 330 330 328 326 323 319 314 314 319 322 327 332 335 336 334
332 333 334 336 336 336 334 333 334 334 334 335 337 337 338 337 336 335 334 334 333 331 330 330 330 329 329 329 328 329 328 326 326 322 318 315 315 319 322 326 329 332 334
330 332 333 335 337 337 336 335 334 334 334 335 334 334 335 336 336 336 335 335 333 331 331 330 329 330 329 329 326 325 326 324 322 321 321 317 315 316 318 321 324 327 328
316 324 330 332 334 335 334 334 334 334 336 336 337 336 335 335 333 334 334 333 332 331 332 332 331 329 328 326 321 324 323 324 321 320 319 315 314 314 315 317 320 322 325
307 309 312 324 322 331 333 334 335 335 335 336 336 337 337 337 337 334 331 331 331 331 330 330 330 328 326 321 322 313 314 319 317 315 313 310 311 310 311 313 315 317 320
306 307 307 307 307 307 310 311 311 312 313 317 322 325 318 315 324 332 334 332 333 329 329 330 328 327 325 320 320 320 311 310 310 318 312 307 307 308 309 311 312 313 315
306 306 306 307 307 307 308 307 307 307 307 307 308 309 311 312 313 314 319 326 329 329 329 329 328 327 326 323 316 316 316 312 310 308 312 309 307 309 308 308 310 311 312
305 305 306 306 305 306 307 307 307 306 306 307 308 309 310 311 312 316 317 316 319 323 325 327 327 325 325 324 320 315 313 310 312 311 306 311 314 315 312 310 309 309 310
304 304 304 303 302 303 304 304 305 305 305 306 306 307 308 309 311 312 315 319 322 323 322 322 324 324 324 323 323 320 317 315 312 308 305 305 307 313 311 310 309 308 308

GFSSE_sfc_thetae_054.txt.gz
Theta_e
347 354 361 359 358 358 358 358 357 355 353 352 352 349 351 351 352 351 350 349 348 348 347 349 351 350 348 346 344 341 340 340 341 341 342 342 340 340 339 340 346 344 344
348 351 359 361 359 359 359 358 356 354 354 352 350 349 352 352 351 348 346 345 345 346 346 346 348 347 346 345 343 341 340 341 341 341 340 340 342 340 341 340 342 345 345
348 350 354 360 360 359 359 357 356 354 353 350 349 348 351 352 348 349 347 344 344 345 344 345 346 345 345 344 343 342 341 340 340 340 340 339 337 340 344 342 342 341 344
349 349 351 359 359 359 358 356 356 352 351 349 347 347 349 352 350 349 346 341 341 341 341 342 344 343 342 342 341 340 340 339 337 338 342 342 341 345 348 346 345 346 345
349 349 353 358 359 359 357 356 355 351 350 348 346 347 348 352 351 348 344 340 340 340 339 340 341 341 342 342 341 341 339 338 336 336 342 344 343 346 346 345 344 343 342
348 349 356 358 359 358 357 356 353 351 349 346 344 347 349 352 351 347 343 340 341 341 340 340 340 341 341 341 341 340 339 336 337 329 333 341 344 345 344 342 341 339 339
346 352 354 358 358 358 357 356 354 351 348 344 345 349 350 352 350 346 342 341 341 341 340 339 340 340 340 339 338 340 337 332 330 329 329 330 341 344 342 340 338 337 337
347 351 353 355 356 356 356 354 353 350 346 343 346 353 354 350 348 345 342 341 341 341 340 339 339 339 339 337 335 339 333 330 330 327 328 329 333 341 340 338 337 335 335
348 349 353 353 353 353 353 352 351 350 346 345 348 349 350 349 347 344 342 341 341 340 339 338 338 338 337 335 332 335 329 326 328 327 328 334 330 336 340 337 335 333 333
351 350 349 351 350 351 353 348 348 348 346 347 347 343 343 344 345 344 343 342 341 339 337 335 336 336 335 332 328 326 324 325 326 329 331 335 333 337 340 337 333 331 330
346 348 347 349 348 350 352 346 346 345 343 343 342 339 338 341 341 341 339 341 342 338 336 334 334 334 330 329 325 321 318 326 324 325 330 335 338 340 342 338 332 331 331
341 344 346 347 346 348 350 346 346 343 344 343 341 339 336 337 339 340 337 338 340 340 336 333 333 331 325 326 324 318 322 321 322 325 328 333 339 342 342 339 333 331 330
339 342 345 348 348 348 347 346 344 343 345 344 342 340 336 335 338 338 338 337 339 336 340 337 336 333 328 326 326 324 322 320 321 323 328 332 337 342 342 340 332 330 330
339 341 344 345 346 347 347 346 344 344 344 344 343 341 338 334 335 335 334 334 336 339 339 339 338 336 335 332 330 328 326 325 323 322 326 330 334 338 341 337 333 332 331
340 342 343 344 343 344 345 345 345 344 343 343 343 342 340 338 336 334 332 333 335 337 337 337 337 336 335 335 334 332 331 329 325 323 322 327 330 334 338 340 338 336 333
340 342 343 343 343 343 342 344 345 345 344 343 342 342 341 340 338 337 336 333 332 335 337 337 337 337 337 337 336 335 334 332 328 325 324 325 326 330 334 337 338 336 336
339 341 341 342 342 341 340 341 342 343 343 342 342 342 341 340 339 338 338 337 336 336 336 337 337 337 337 337 336 336 336 335 334 330 327 326 326 326 329 333 336 336 336
339 339 340 340 340 340 340 340 339 340 340 341 342 342 341 340 340 340 339 338 339 338 337 337 337 336 336 336 335 336 336 336 335 335 334 330 327 325 327 329 332 335 336
339 338 338 340 339 340 341 340 340 340 340 341 342 342 342 341 341 340 340 340 340 339 338 337 336 336 335 336 335 335 336 335 335 334 334 333 330 326 325 326 327 330 334
338 339 338 339 340 342 342 341 340 340 340 341 341 341 341 341 341 341 341 341 341 340 338 338 336 336 335 335 333 332 334 334 334 333 332 331 331 327 325 324 324 325 326
331 336 337 337 339 341 340 339 340 339 340 340 341 341 341 341 341 340 341 341 341 339 338 338 337 335 335 335 327 329 332 331 331 330 330 327 325 324 323 323 322 322 323
317 329 333 335 338 340 340 341 341 341 342 342 344 343 343 343 343 341 341 340 340 338 338 337 336 332 330 331 326 319 319 322 325 325 325 322 321 320 319 318 319 319 320
313 317 320 324 328 332 336 334 331 331 330 332 336 337 330 323 326 333 337 336 336 335 332 334 334 332 328 328 326 323 318 313 319 324 323 320 319 317 318 317 316 317 318
312 312 312 312 313 312 314 321 325 328 325 316 315 315 316 317 318 318 318 321 327 330 329 330 331 330 329 324 323 324 325 323 316 312 320 320 322 320 319 320 318 317 316
310 311 312 312 311 312 312 314 314 313 313 314 314 313 315 316 316 318 321 323 321 321 323 325 327 327 327 325 325 322 322 317 315 313 311 314 318 319 319 318 317 316 315
311 311 311 310 309 311 312 312 313 312 311 312 312 312 313 314 315 316 315 322 324 325 325 325 326 325 325 327 326 325 320 319 315 314 310 310 311 315 318 317 314 312 310

GFSSE_sfc_thetae_057.txt.gz
Theta_e
348 354 360 358 356 358 357 355 355 354 353 352 350 350 350 352 351 349 349 348 348 348 351 352 350 348 346 344 341 340 339 339 340 341 341 342 342 341 343 345 348 343 345
350 353 359 360 358 358 358 355 355 355 354 352 349 351 352 350 348 346 345 345 347 346 349 350 348 347 346 344 343 342 342 343 341 340 340 342 343 344 342 343 344 342 346
348 352 356 360 359 359 358 356 355 354 352 350 349 350 350 349 349 346 343 344 345 345 346 349 346 345 345 343 342 341 340 339 338 340 342 339 343 348 345 343 346 347 347
347 350 353 360 359 359 357 355 354 352 350 349 348 349 351 350 348 345 342 342 343 343 344 345 344 343 343 342 341 340 339 337 337 340 342 344 344 348 347 346 345 344 344
346 349 355 359 359 358 356 355 352 350 349 348 346 348 352 351 348 344 341 341 340 340 342 342 342 342 342 342 342 341 338 336 338 339 343 344 343 345 345 344 342 342 341
345 348 355 358 359 357 356 355 352 350 348 346 346 348 351 352 348 343 341 341 341 340 341 341 342 342 341 341 341 339 337 337 337 328 336 344 343 344 343 341 340 339 338
344 352 353 358 358 357 356 355 353 350 346 345 348 350 351 350 347 344 341 341 341 340 340 341 341 341 340 338 340 338 335 335 328 328 328 332 340 343 341 339 338 337 337
345 350 351 355 356 356 355 354 352 348 344 345 348 351 353 349 347 344 341 341 341 340 340 339 339 339 339 336 339 337 333 334 328 327 330 330 337 342 339 338 336 335 335
347 347 350 353 353 353 352 352 351 348 345 345 349 352 350 349 346 344 341 341 341 340 339 338 338 338 337 334 334 333 329 330 327 328 330 331 334 338 338 336 335 333 333
345 348 349 348 350 350 351 349 348 347 346 349 346 345 344 344 345 344 342 342 341 338 336 335 336 336 334 332 328 325 325 328 325 327 330 333 335 338 339 335 332 332 332
346 345 348 345 347 347 348 345 346 344 344 344 341 340 339 340 341 340 339 342 341 337 335 333 334 333 330 330 326 324 325 324 323 324 328 336 338 340 344 338 332 331 331
342 343 346 347 344 350 348 345 346 343 342 340 337 337 337 336 337 338 338 339 341 339 336 333 333 331 327 326 325 323 321 322 321 324 327 333 336 340 343 341 333 331 330
340 344 343 344 345 349 347 346 345 342 343 343 341 337 333 333 336 336 337 336 337 336 339 336 333 332 329 328 326 325 324 323 322 324 327 332 333 337 343 342 335 330 331
338 339 341 343 344 345 346 345 344 342 341 342 342 341 336 332 334 333 333 334 335 337 337 338 336 335 334 333 331 330 328 327 326 325 326 330 330 334 339 339 334 333 332
336 338 340 344 344 344 343 345 343 342 341 341 341 341 339 336 335 332 331 331 332 333 334 335 336 335 335 335 335 334 333 332 331 328 326 329 330 331 334 338 340 338 335
339 339 340 340 341 342 343 343 342 342 341 340 340 341 340 339 337 336 334 332 331 333 335 335 336 337 336 337 336 336 335 335 333 331 329 329 327 328 330 334 336 336 337
339 341 341 342 343 341 342 341 342 343 341 340 340 340 340 339 339 338 337 337 336 335 335 336 337 337 336 336 336 336 336 336 336 335 334 332 330 326 329 329 332 335 336
340 340 341 341 340 339 338 339 339 339 339 340 340 341 340 339 340 340 339 339 340 339 338 337 336 336 336 335 335 336 335 335 335 335 336 336 334 329 329 331 331 331 334
339 340 340 341 340 340 340 339 339 338 339 340 341 341 342 341 340 340 340 340 341 340 339 337 337 335 334 335 335 335 335 335 335 334 333 334 334 333 330 329 329 329 331
338 339 340 341 340 340 341 340 340 340 339 340 341 341 341 341 341 341 340 339 338 338 338 338 335 338 336 335 333 332 334 335 335 333 332 331 330 331 330 328 328 325 325
336 338 339 339 340 340 340 338 338 337 339 339 340 341 341 341 341 341 341 339 339 337 336 337 337 335 334 335 331 329 331 332 330 330 330 329 327 326 325 324 324 324 324
319 335 337 338 339 340 341 340 341 341 341 341 343 342 342 341 342 340 340 339 339 338 338 336 334 333 332 333 327 321 319 322 326 326 327 325 323 323 322 321 320 320 321
314 322 333 336 337 339 340 341 339 337 336 337 339 339 338 330 332 335 338 337 336 336 334 334 333 331 327 328 328 323 318 314 319 323 324 323 322 321 322 320 319 319 319
314 318 321 324 329 330 333 333 331 331 331 332 325 323 320 319 319 319 320 321 323 329 331 330 330 330 330 325 325 325 325 324 316 313 321 321 321 319 321 321 318 318 317
314 315 316 316 316 316 317 321 324 323 319 317 315 315 316 317 317 318 320 322 323 322 321 322 324 326 327 323 322 323 323 318 316 313 310 313 318 319 318 319 317 315 314
314 314 315 313 312 314 314 315 315 316 314 314 314 313 314 315 316 316 316 318 322 323 324 325 326 325 325 324 322 324 322 316 314 313 311 314 311 314 317 316 313 311 310

GFSSE_sfc_thetae_060.txt.gz
Theta_e
348 354 359 359 358 357 356 355 354 354 354 351 350 351 352 350 348 348 348 349 352 352 351 349 349 347 344 342 341 341 340 340 341 341 343 344 343 345 347 346 346 343 346
349 353 358 359 359 358 357 356 355 355 354 351 352 353 349 348 346 345 346 348 348 351 350 348 347 347 345 343 342 341 342 342 341 340 342 343 345 344 344 346 348 345 347
348 353 355 359 358 358 357 356 355 354 353 351 351 349 349 347 345 344 345 346 347 349 348 346 346 345 344 343 341 339 337 338 339 342 343 341 344 346 348 347 346 345 345
349 351 353 359 358 358 356 356 354 352 350 350 351 351 349 347 343 343 343 344 345 346 345 344 344 343 343 342 341 339 337 338 342 343 341 342 343 348 346 344 343 343 343
347 349 355 358 358 357 356 355 352 350 349 348 351 353 351 348 343 342 342 341 342 344 343 343 343 343 343 342 341 338 338 339 339 342 341 340 340 343 344 342 340 340 339
344 351 356 357 357 356 355 354 351 349 348 347 350 352 352 348 344 342 342 341 341 342 342 342 342 341 342 341 340 338 337 337 337 321 335 343 339 343 341 340 339 338 337
347 351 355 357 357 356 355 354 352 348 346 347 349 351 350 348 345 342 342 341 341 341 341 342 342 341 339 341 339 338 336 336 325 322 322 333 337 342 341 339 337 337 335
346 348 352 355 355 355 354 353 351 348 346 349 351 353 350 348 345 342 342 342 341 340 340 340 340 340 337 337 339 336 335 332 324 321 323 327 341 341 339 337 335 335 334
346 347 349 351 352 352 352 351 349 347 347 350 353 353 350 348 345 343 342 342 341 340 339 339 339 338 337 333 334 332 331 330 320 322 328 326 338 340 338 336 335 335 334
343 344 347 347 349 348 348 348 347 345 349 348 347 345 344 344 344 343 342 343 340 338 337 337 337 336 334 331 328 329 327 327 316 319 328 330 337 339 339 335 333 333 333
343 346 347 346 346 346 345 345 344 343 344 343 341 340 339 338 339 338 338 340 340 338 336 335 335 333 334 331 330 328 327 317 313 317 327 337 338 340 343 339 333 332 332
339 343 343 342 344 346 345 343 340 337 336 335 337 335 336 333 334 338 336 338 340 338 337 335 334 334 330 322 319 325 314 314 313 315 324 335 334 337 341 342 334 332 331
340 342 344 343 343 345 342 341 340 337 337 337 331 329 328 331 331 332 332 332 333 334 331 332 330 326 321 321 320 318 317 316 315 315 325 332 331 334 340 342 337 331 331
339 340 341 342 342 345 342 341 339 336 338 335 336 333 327 325 327 327 330 329 329 333 332 330 329 328 328 327 324 322 322 319 320 319 322 329 331 330 334 340 337 334 333
336 339 340 340 340 343 342 342 340 336 336 336 336 335 332 328 326 325 324 325 325 326 327 328 329 329 327 328 328 327 326 326 324 322 318 326 329 330 330 335 340 338 337
336 336 339 340 341 341 341 341 340 338 339 334 335 335 335 332 330 329 326 324 323 325 327 327 328 329 330 329 329 329 329 328 327 326 323 322 328 329 330 329 334 336 337
338 337 337 338 339 339 339 339 340 339 339 333 334 334 335 333 332 330 330 328 327 325 327 328 329 330 329 330 329 330 330 329 329 329 327 324 325 326 329 330 331 333 335
337 337 337 340 339 338 338 337 336 339 337 334 333 334 335 334 334 332 332 332 333 331 330 329 329 328 328 329 330 331 331 331 331 331 330 328 328 325 326 331 333 332 332
335 336 336 337 335 333 333 333 332 332 332 333 334 335 335 335 334 334 333 334 334 334 333 333 332 331 329 330 330 329 330 328 328 329 326 327 327 328 325 328 328 329 330
334 336 336 337 336 336 335 334 333 333 333 334 334 335 336 336 336 334 334 335 335 334 334 333 332 333 330 330 330 329 327 329 328 327 326 327 323 321 321 321 321 320 325
331 333 335 334 335 335 333 332 332 331 332 333 335 337 337 336 338 336 334 335 335 334 333 334 332 330 329 330 328 326 325 327 325 325 325 324 318 317 315 315 315 315 316
311 332 333 334 335 335 336 335 335 334 335 336 336 337 337 338 339 338 337 337 337 335 335 334 332 330 330 329 324 319 316 316 318 322 318 318 314 315 314 314 313 313 313
309 317 331 334 335 335 336 336 334 331 333 333 334 335 332 326 325 326 331 333 334 334 332 332 331 329 326 326 326 321 314 309 312 316 317 315 313 313 313 313 313 312 311
309 314 318 326 331 332 335 331 327 325 325 324 319 316 316 316 316 316 316 315 314 318 324 325 327 325 323 322 321 325 324 321 313 309 313 314 313 313 312 314 312 310 310
311 311 312 315 317 317 319 323 326 325 313 311 311 311 312 313 314 314 315 315 316 317 315 315 316 320 321 319 317 319 320 318 316 313 310 312 314 313 311 313 310 306 306
310 310 310 310 310 311 313 313 315 313 309 309 308 308 309 310 311 313 313 313 314 317 318 318 318 318 317 317 320 318 317 312 309 308 310 308 310 311 309 307 305 303 304

GFSSE_sfc_thetae_063.txt.gz
Theta_e
346 353 360 359 356 356 355 355 354 354 353 350 353 352 349 348 348 349 350 352 353 351 349 349 347 344 342 342 342 341 342 342 342 344 345 346 346 346 349 347 348 343 346
350 353 358 359 358 357 356 355 355 354 353 354 352 348 347 345 345 348 349 352 351 349 348 348 346 344 342 341 342 343 344 343 341 340 343 345 345 348 347 346 347 344 346
350 352 354 358 358 357 356 355 355 354 353 353 351 349 347 344 344 346 345 349 350 348 346 346 345 344 343 340 338 339 340 339 338 341 342 341 342 347 345 344 342 343 344
351 352 354 358 358 357 356 354 354 352 350 353 352 349 346 343 344 345 346 345 345 345 345 344 343 343 342 341 339 340 340 341 344 345 341 341 341 345 344 342 341 341 341
349 352 355 357 357 357 355 353 351 349 349 353 353 351 346 342 342 343 344 345 344 344 344 343 343 343 342 341 339 339 339 340 339 341 340 337 336 341 342 341 339 339 338
346 351 355 356 357 356 355 352 349 348 348 351 353 351 346 343 342 342 342 342 343 343 343 343 342 342 341 340 339 338 338 338 329 327 337 340 336 341 341 338 337 335 335
349 352 353 357 356 355 354 352 350 348 348 349 353 350 347 344 343 342 341 342 342 342 342 342 341 339 341 340 338 337 336 334 322 323 330 334 336 341 339 337 336 335 334
349 351 353 354 355 354 353 351 349 348 349 350 353 351 348 345 343 343 342 341 341 341 341 341 341 338 337 339 337 334 334 332 322 321 325 332 343 341 338 336 336 336 335
349 350 351 352 351 351 351 349 347 349 351 351 352 351 349 346 343 342 342 341 341 340 339 339 339 338 335 333 332 331 330 330 318 321 325 327 341 341 338 335 335 335 335
346 348 347 348 349 347 346 346 345 348 348 350 349 347 344 343 343 343 343 342 339 338 338 338 338 336 334 331 329 331 329 327 314 323 326 329 339 339 339 335 333 334 333
343 344 346 346 346 345 343 341 342 345 343 343 342 340 339 338 338 337 337 339 339 338 336 336 335 333 333 332 331 329 327 314 311 317 326 338 338 339 342 339 333 333 332
340 342 344 344 344 343 343 338 335 339 338 337 336 336 335 335 334 336 335 337 338 337 336 335 335 334 330 320 319 324 314 312 311 312 323 336 335 337 340 342 336 333 331
339 341 343 344 343 342 340 338 334 332 332 332 335 333 332 331 333 332 331 333 332 332 328 331 328 326 319 318 317 315 315 313 314 314 322 333 333 332 336 341 338 334 332
339 340 343 343 343 339 339 339 336 334 333 332 329 328 323 326 326 328 328 328 328 330 329 327 325 325 323 323 322 321 320 317 317 318 318 329 332 330 332 340 341 335 334
336 338 340 341 343 340 338 339 337 333 334 333 332 330 324 324 323 323 325 326 326 328 328 328 327 326 324 325 325 324 324 323 323 322 316 325 329 332 331 332 339 339 337
334 337 339 340 343 340 340 338 338 335 335 333 333 332 330 327 324 325 322 321 321 323 324 324 325 327 327 327 327 327 327 326 325 325 323 320 329 331 333 331 332 334 336
334 337 338 339 339 341 340 340 339 337 339 333 333 333 333 331 328 328 326 323 322 322 324 325 326 327 327 328 327 328 329 330 329 329 326 324 324 327 331 333 333 332 333
334 335 337 340 339 337 338 339 339 339 336 335 332 332 333 333 331 329 329 329 329 326 325 326 327 326 326 327 328 329 331 331 330 327 327 327 327 324 326 332 334 332 332
334 335 335 338 336 337 337 337 336 336 335 334 332 332 332 333 332 332 331 331 332 331 330 330 331 330 328 329 330 330 328 326 326 328 325 325 325 325 325 327 328 328 330
332 335 335 336 335 332 332 331 330 329 330 331 331 332 333 333 332 332 332 332 335 333 333 332 331 332 330 329 330 328 329 328 326 327 326 326 321 320 318 317 318 318 325
330 331 332 334 334 333 331 329 328 328 330 330 332 335 336 336 336 334 333 334 334 333 332 333 332 330 328 329 327 326 323 327 325 325 324 320 316 314 313 312 312 312 314
322 330 330 333 332 333 333 332 332 331 331 332 333 335 337 337 338 337 336 336 336 334 334 334 332 330 329 330 323 319 317 316 317 317 316 314 312 313 312 312 311 310 311
309 326 332 332 334 332 334 334 331 331 331 332 333 334 325 325 322 324 328 332 333 333 332 332 331 329 326 324 324 323 315 308 311 315 315 313 312 311 310 311 310 310 307
306 314 329 330 333 334 335 333 329 327 324 326 326 319 315 316 316 317 316 315 313 314 316 322 324 321 319 318 318 321 320 320 313 309 312 313 311 310 312 312 309 307 304
307 311 318 323 321 322 325 328 326 325 321 315 313 313 315 313 314 314 314 313 314 316 315 313 313 314 318 316 315 314 315 316 316 314 309 309 312 312 312 309 307 304 303
308 308 309 312 311 316 317 319 323 319 312 312 311 310 310 310 311 312 312 313 313 314 316 317 317 315 315 314 315 316 314 311 309 308 307 307 307 309 306 305 304 302 301

GFSSE_sfc_thetae_066.txt.gz
Theta_e
345 353 358 357 356 356 355 354 353 351 352 353 351 350 349 350 352 352 353 352 350 349 348 346 343 343 343 343 344 344 343 345 346 345 345 347 348 348 347 346 345 341 345
349 353 357 357 357 356 355 353 352 353 352 352 347 345 346 348 350 352 352 351 349 348 347 344 343 342 344 345 345 345 343 341 342 343 345 345 346 346 344 341 345 340 346
349 353 354 357 356 356 355 352 351 352 352 351 347 344 344 346 347 349 351 349 347 347 346 344 343 341 341 341 341 340 340 340 340 343 345 340 340 343 342 341 341 342 343
350 352 353 357 357 355 354 352 352 351 352 351 346 343 344 345 344 346 347 346 346 345 344 344 343 341 340 340 340 340 344 347 345 344 339 338 338 342 341 340 339 339 340
347 351 354 356 356 355 353 352 351 352 352 351 347 343 343 344 345 346 345 344 344 343 343 343 343 342 340 340 339 339 339 344 344 340 336 334 334 339 339 338 336 335 336
347 350 354 355 355 355 353 352 350 352 352 351 347 343 342 342 343 344 343 343 343 342 343 343 342 341 340 339 338 338 336 333 336 335 335 338 333 339 338 336 335 334 333
348 351 352 355 354 353 352 351 350 350 352 351 348 345 342 342 342 342 342 342 343 342 342 341 341 341 340 339 337 335 334 332 323 328 331 333 334 339 338 337 337 336 334
349 350 351 352 353 353 351 350 349 350 351 353 350 346 343 343 342 341 342 342 342 342 342 341 339 338 339 338 335 333 332 330 320 323 329 332 341 339 338 336 336 336 335
349 348 349 350 350 350 349 348 348 350 351 353 351 349 346 343 343 342 341 341 341 340 340 340 339 336 335 332 330 330 330 330 315 321 326 329 342 340 337 335 335 335 334
347 348 347 348 347 345 342 345 347 349 350 350 348 346 343 342 342 342 342 342 340 339 339 339 337 336 333 330 331 330 329 324 313 321 323 325 340 340 339 335 333 334 333
344 345 346 345 343 341 339 339 345 345 346 346 344 341 339 336 337 337 337 338 340 338 337 337 336 334 333 331 331 330 325 312 309 319 324 336 338 339 341 341 334 333 332
339 342 344 343 341 340 340 334 337 340 338 338 338 336 334 333 332 335 334 336 338 337 336 336 335 335 329 318 318 322 314 311 309 312 322 337 336 336 339 341 337 335 332
338 342 343 343 342 339 337 332 332 333 334 334 334 333 332 333 331 331 330 331 328 330 326 329 327 324 318 316 317 316 314 313 313 313 319 334 334 331 333 339 342 336 333
336 339 342 343 342 338 337 334 331 329 328 329 332 332 328 328 329 328 328 328 327 328 325 325 323 323 322 320 318 318 318 317 315 317 316 331 334 332 332 336 342 338 334
335 338 339 341 342 339 336 336 333 331 331 330 328 328 324 326 326 326 326 326 325 326 326 326 325 325 324 324 323 322 322 322 321 321 318 325 331 334 333 332 337 340 338
335 337 338 341 341 339 337 338 336 333 333 332 330 328 323 325 323 322 321 325 324 324 327 325 326 325 324 324 325 325 325 325 324 324 323 320 328 332 335 333 333 334 336
335 338 338 338 340 339 339 340 337 335 335 331 332 330 327 325 324 324 323 319 320 320 322 322 323 325 325 326 325 326 326 329 328 329 328 326 324 327 331 334 335 332 333
334 337 338 340 341 339 339 339 340 339 336 334 332 332 331 329 327 326 326 326 324 322 321 322 324 324 325 325 327 327 330 330 329 327 325 325 325 327 327 331 335 333 331
334 335 337 337 336 338 340 339 339 339 336 336 334 333 331 331 330 329 328 329 329 328 326 327 328 329 328 328 329 329 329 329 328 328 326 325 324 323 322 327 327 327 328
333 334 334 335 335 337 336 335 334 335 333 334 333 332 331 331 331 330 330 331 332 332 332 331 330 331 330 330 328 329 327 329 327 325 325 325 320 319 318 316 315 319 328
331 330 333 333 334 332 330 329 326 326 328 329 331 333 333 334 332 330 330 331 331 331 332 332 331 330 330 327 327 322 323 323 324 322 320 321 315 314 312 313 311 312 315
329 331 331 333 332 333 333 330 329 328 329 330 330 333 335 335 335 334 333 333 334 333 332 333 332 330 329 328 320 316 314 314 314 315 313 312 311 314 313 312 310 310 308
321 328 332 333 333 333 332 331 330 330 330 330 330 331 330 331 334 334 334 334 333 333 331 331 329 328 323 322 321 318 310 307 310 313 312 312 313 312 311 309 309 307 305
309 321 329 332 333 333 332 330 328 327 326 327 328 324 318 320 318 318 317 316 315 316 316 319 323 320 318 315 316 319 318 315 311 306 311 312 311 311 308 309 307 304 304
304 306 320 326 328 329 331 332 330 325 326 320 319 319 320 320 320 319 318 315 314 315 315 313 312 312 315 314 313 312 313 312 312 309 305 307 309 310 308 306 304 303 303
306 309 313 319 319 321 323 325 326 326 318 316 315 315 315 314 314 315 315 312 311 313 313 314 315 314 314 314 314 314 312 310 307 307 305 306 306 306 305 305 304 303 301

GFSSE_sfc_thetae_069.txt.gz
Theta_e
344 350 356 356 355 355 354 352 350 351 353 350 350 350 353 353 354 353 352 351 350 347 344 343 343 344 346 346 346 346 346 344 345 345 347 347 346 345 344 345 344 341 348
348 350 356 357 355 355 354 352 350 353 352 349 348 349 352 353 353 353 351 350 348 346 344 343 346 346 346 346 345 344 343 344 344 345 345 343 344 343 341 342 343 342 345
348 351 352 356 355 354 353 351 350 351 350 346 344 347 350 352 352 351 349 348 347 345 343 343 345 344 343 341 342 342 341 343 345 345 343 336 335 341 340 339 340 341 342
349 350 350 355 354 353 351 351 352 351 347 344 343 345 347 349 351 350 348 346 344 344 343 342 342 342 341 341 343 346 346 343 343 341 335 334 336 339 339 338 338 338 338
348 350 351 355 355 354 351 351 352 351 347 344 344 345 347 346 347 346 346 345 343 343 343 342 341 340 340 340 340 345 346 345 342 337 333 332 332 336 338 336 335 334 334
345 349 352 353 354 354 352 352 352 350 348 344 343 343 345 346 344 344 344 343 342 343 342 342 341 340 339 339 338 337 339 343 338 332 332 336 331 338 338 338 337 335 334
345 349 349 353 353 352 351 351 353 352 350 345 342 342 343 344 345 343 342 342 342 342 342 341 340 339 339 338 336 335 333 333 328 329 330 331 332 339 339 338 338 336 334
346 348 349 351 351 351 350 350 352 353 350 347 344 342 342 342 343 342 342 342 342 342 341 340 340 340 338 336 334 333 331 327 323 324 329 330 340 338 337 337 337 337 334
346 347 347 348 348 348 348 348 349 352 351 349 347 344 343 342 342 342 342 342 341 341 341 339 337 337 336 333 330 331 330 326 317 320 329 330 339 339 337 335 335 335 334
344 347 345 345 345 342 342 346 346 348 349 349 347 344 341 341 342 342 342 342 340 340 339 338 337 335 332 330 331 329 327 322 314 320 321 323 339 339 338 335 333 334 333
344 344 344 344 341 338 337 341 345 346 346 345 343 340 338 335 336 337 336 339 340 339 338 337 336 334 334 331 330 329 321 310 308 320 322 330 338 337 339 343 334 333 332
340 341 342 342 340 337 337 337 338 340 342 342 338 335 333 332 332 334 333 335 338 338 337 336 335 334 329 317 316 321 313 310 309 311 321 331 336 335 336 340 338 335 332
337 339 341 341 340 336 333 332 334 335 335 336 335 333 331 331 329 330 329 329 327 330 325 328 325 322 317 315 316 315 314 313 311 312 316 331 334 333 332 335 339 338 335
334 336 341 342 340 336 333 331 333 334 333 332 332 332 329 328 327 327 327 327 325 325 322 322 322 321 321 320 317 318 318 317 314 315 317 326 334 333 333 333 338 339 336
333 334 336 338 340 338 334 332 330 329 331 332 330 330 328 326 327 327 326 325 324 324 324 324 324 324 324 324 323 322 321 320 320 320 319 323 330 335 334 334 335 338 338
326 327 334 337 338 337 336 334 332 331 329 329 327 328 326 327 327 326 325 325 323 323 325 325 325 325 324 323 323 324 323 324 324 324 325 324 326 330 335 334 334 335 335
331 331 334 337 338 335 335 335 336 334 333 331 331 328 323 325 324 324 321 320 324 323 322 323 321 322 323 324 324 325 325 325 327 328 328 327 327 326 330 333 336 334 333
332 332 337 339 340 339 336 336 337 336 334 333 331 330 327 324 323 322 321 321 320 319 319 320 322 323 324 324 324 326 328 330 329 329 328 327 326 327 327 330 334 334 331
333 334 335 335 335 336 339 339 339 337 335 334 333 331 330 328 326 325 325 325 326 323 321 322 323 327 325 327 327 328 325 328 328 328 325 324 324 323 323 327 327 326 328
333 335 335 336 337 338 339 339 338 338 336 336 334 334 333 331 329 327 327 327 328 327 328 328 328 330 329 329 329 327 325 325 326 323 321 324 322 320 318 316 318 323 328
331 330 333 332 333 334 332 333 332 331 331 331 333 333 333 332 331 329 328 329 329 329 330 331 330 329 329 328 325 322 320 322 321 317 315 318 315 313 312 313 318 316 318
328 329 332 332 333 334 334 331 329 327 327 329 331 332 333 332 332 331 330 329 331 331 331 330 329 329 328 328 322 316 313 314 313 314 311 311 309 311 312 312 313 311 308
323 326 331 332 333 333 332 331 329 328 329 328 330 331 332 333 334 333 333 333 333 332 331 330 330 328 324 320 320 319 313 306 308 313 311 310 309 309 311 310 308 306 305
310 324 328 329 330 330 329 328 327 325 324 327 328 325 321 322 323 323 322 323 322 320 319 320 325 324 321 316 314 317 316 315 312 306 309 310 309 309 308 308 305 304 303
307 309 323 326 329 330 329 330 328 325 326 325 322 320 319 320 321 322 321 320 317 316 316 315 311 311 314 313 312 311 311 311 312 313 306 309 307 307 306 306 305 303 303
303 308 316 322 325 325 326 328 328 327 322 320 318 318 318 318 318 317 315 314 313 313 313 313 313 312 312 311 311 311 314 310 306 306 305 305 304 302 302 304 303 301 302

GFSSE_sfc_thetae_072.txt.gz
Theta_e
342 348 356 356 355 353 350 349 350 353 352 351 353 355 355 355 354 353 352 350 347 345 344 345 346 347 348 347 346 343 345 345 348 346 345 345 344 343 344 346 345 342 348
345 349 355 356 355 354 352 349 351 352 351 350 352 353 354 354 354 352 351 349 346 344 345 345 346 347 347 346 346 345 344 347 346 344 342 341 343 342 342 342 342 340 345
347 350 351 356 355 354 352 350 351 350 348 348 351 352 353 353 352 351 349 347 344 343 346 346 346 345 343 343 343 344 345 346 345 343 340 333 334 340 340 339 339 340 341
348 349 349 354 354 353 350 350 351 347 345 346 350 352 352 353 351 349 348 346 343 343 345 345 343 343 343 345 347 345 345 345 342 339 333 333 333 338 338 337 336 336 337
347 348 349 354 353 352 350 352 350 346 344 344 348 350 351 353 350 348 346 344 344 342 343 343 342 341 342 344 347 347 346 343 340 335 331 329 329 337 339 338 336 336 335
344 347 350 352 353 352 352 351 349 347 343 343 346 348 349 348 348 346 344 343 343 343 342 342 341 340 341 341 341 346 345 342 337 330 330 333 330 340 340 339 338 336 335
344 347 348 351 352 351 352 351 351 347 343 343 344 345 346 346 345 343 342 342 342 342 341 340 340 339 339 339 337 336 340 336 328 328 328 330 332 340 340 339 338 337 335
344 346 346 349 351 351 350 350 352 350 344 342 343 343 345 343 343 342 342 342 342 342 341 340 339 338 337 335 334 333 330 330 324 327 328 329 339 339 339 338 338 337 335
345 345 344 346 347 348 349 349 350 350 347 344 344 344 344 344 343 342 342 342 342 341 340 339 339 338 335 332 331 331 329 326 318 322 329 329 338 339 337 336 336 337 335
339 343 344 344 343 341 342 346 347 348 347 346 344 343 341 341 342 342 342 342 342 341 340 338 337 335 333 331 331 329 325 321 316 319 319 322 337 339 338 339 335 335 334
340 339 342 343 338 338 338 340 344 346 346 344 342 338 337 333 335 336 336 339 341 340 338 337 335 334 331 327 329 328 318 309 310 319 321 327 336 336 337 340 334 334 333
337 340 341 341 337 335 339 337 337 341 345 340 336 333 331 331 332 333 332 336 339 339 338 336 334 334 324 315 315 319 311 310 309 309 318 329 335 335 333 337 338 335 333
338 340 339 341 338 334 333 335 335 335 341 340 334 332 330 330 329 328 327 328 326 329 324 326 324 321 316 314 315 314 313 313 311 312 315 326 334 333 332 333 336 339 336
333 337 340 340 337 333 331 333 334 335 336 337 333 332 329 326 325 326 325 325 323 323 320 321 321 320 320 320 317 318 318 317 316 314 316 324 330 334 334 333 335 338 337
328 332 334 338 337 335 330 331 332 333 334 334 332 331 329 327 326 326 325 324 323 322 322 321 322 322 322 323 323 321 321 321 320 320 319 324 327 330 333 334 335 337 338
326 330 332 335 337 336 334 331 330 331 333 331 330 330 329 326 326 326 325 324 322 321 323 323 323 324 324 322 323 323 323 323 324 324 324 325 328 330 332 334 334 336 335
328 326 328 328 336 337 335 333 333 332 331 327 329 329 328 326 327 327 325 323 323 322 322 322 322 321 321 323 323 324 325 325 325 328 327 327 328 327 330 334 335 336 333
328 326 330 331 332 336 336 335 337 335 333 332 331 328 326 325 325 324 322 320 319 322 320 319 320 320 322 322 323 325 325 327 327 327 327 325 325 326 328 329 332 334 331
329 329 331 334 335 336 335 336 337 337 334 334 332 331 328 324 324 323 321 321 320 319 318 319 319 322 323 323 324 327 327 324 325 325 323 322 324 324 322 326 328 328 329
331 331 329 331 334 335 333 336 336 336 336 337 334 332 331 329 325 324 324 324 326 323 322 321 321 326 328 328 328 326 324 324 323 321 320 322 322 320 319 317 320 324 329
331 331 330 331 333 333 332 332 331 330 331 334 335 335 334 333 331 327 327 326 327 326 327 330 329 328 328 328 326 319 319 320 318 314 314 315 316 314 313 315 318 318 320
327 328 330 331 333 331 331 331 330 329 331 333 333 333 333 333 332 331 330 328 328 328 330 330 329 326 327 328 322 314 311 313 312 312 310 310 309 310 310 311 310 310 310
321 325 328 332 332 333 333 330 328 328 328 328 328 329 330 332 332 331 331 331 331 332 329 330 330 328 325 321 319 321 313 305 307 311 310 309 308 307 308 308 307 307 306
307 315 326 328 328 330 330 329 328 326 324 326 327 327 325 328 328 329 328 327 325 323 323 323 325 324 323 321 317 316 315 313 307 304 308 308 308 307 306 306 304 304 306
306 306 315 324 326 327 329 330 328 327 328 327 325 322 322 323 323 323 323 323 322 319 317 315 312 312 316 311 310 309 309 310 315 311 305 305 306 306 307 304 303 302 304
304 304 310 318 322 323 323 325 325 325 323 321 322 322 320 318 319 321 320 319 317 315 315 315 314 314 311 310 309 309 313 310 305 306 307 306 304 304 304 303 302 300 301

GFSSE_sfc_thetae_075.txt.gz
Theta_e
345 351 356 356 355 353 351 351 354 353 353 353 350 353 354 355 355 354 352 349 349 346 346 347 349 350 346 346 346 346 349 347 346 345 344 344 343 344 345 344 346 343 346
348 351 355 356 354 353 350 352 354 353 353 353 355 354 355 355 354 353 350 347 345 346 346 347 348 347 347 346 345 346 348 346 343 342 342 342 342 341 341 341 342 342 347
348 351 352 355 355 354 352 351 353 353 351 352 354 355 356 355 354 351 349 346 346 346 346 348 347 346 345 345 345 347 347 345 342 341 340 338 338 339 338 338 338 341 342
349 351 351 354 355 354 350 352 351 348 348 352 353 353 354 353 352 350 347 345 346 347 347 346 345 345 347 346 345 346 346 343 340 339 336 336 336 340 339 338 337 337 337
349 351 351 353 353 353 351 352 349 345 346 350 351 352 353 353 351 348 346 344 347 347 345 344 343 345 348 349 346 346 344 342 339 337 337 338 339 340 340 338 337 337 337
349 351 352 352 352 352 353 352 347 344 344 347 351 351 352 352 348 345 345 345 345 345 344 342 342 342 343 347 347 346 344 341 338 339 338 339 340 342 341 340 338 337 336
348 350 350 351 352 352 353 351 348 344 343 345 347 349 351 349 347 344 342 342 343 343 343 341 340 340 339 340 341 344 341 336 337 338 339 339 340 341 341 341 339 337 336
347 349 348 348 351 352 350 350 349 345 343 345 347 347 348 345 343 343 342 343 343 342 341 340 340 339 337 337 335 334 334 332 333 336 339 340 341 340 340 339 339 337 335
348 347 348 348 349 349 348 349 349 346 344 344 345 346 343 345 342 342 342 342 342 341 341 341 340 338 335 333 333 331 329 327 331 334 335 339 339 339 338 337 338 337 334
346 346 346 347 347 346 347 347 347 346 344 344 343 342 341 339 342 343 342 343 342 341 340 338 337 335 333 332 331 328 325 324 328 329 330 333 336 338 337 339 336 336 334
341 344 344 345 344 344 344 345 346 345 344 342 341 338 338 340 341 340 338 340 342 341 339 338 336 334 330 328 330 325 321 320 326 329 330 327 334 336 336 339 335 335 333
336 340 343 343 342 342 342 344 346 346 346 343 341 340 339 340 340 338 335 336 339 339 339 337 335 332 325 325 324 322 323 322 321 321 325 328 333 335 333 336 339 336 335
331 340 341 341 340 339 339 341 343 346 345 343 340 338 338 337 338 337 338 337 337 332 334 334 332 328 324 325 327 326 325 326 325 324 324 324 329 335 333 333 336 339 338
325 334 339 342 339 336 338 339 340 341 343 340 339 337 336 334 335 334 334 333 332 332 329 329 329 328 327 328 328 329 330 330 329 328 327 324 327 333 334 335 335 338 338
323 328 336 340 338 336 335 338 340 339 341 340 338 337 336 333 332 333 332 332 331 331 329 329 330 331 331 332 332 331 331 331 331 331 332 325 328 331 334 335 335 336 337
326 325 333 334 338 338 333 334 337 339 340 341 339 338 336 335 333 333 334 333 332 330 330 330 332 333 333 332 331 332 332 333 333 333 334 334 329 331 333 336 336 335 335
324 325 327 331 337 338 336 334 335 336 336 338 339 339 337 335 334 334 334 333 332 330 329 331 331 331 331 330 332 333 334 334 334 333 335 335 335 328 330 334 336 336 335
324 324 327 329 332 336 338 336 336 336 336 335 335 336 336 336 334 333 333 333 332 331 329 329 329 329 328 330 332 333 333 333 334 334 334 334 334 333 332 328 332 335 334
324 326 327 328 331 336 337 336 338 338 337 337 337 335 333 332 332 332 331 332 329 327 329 328 327 328 329 330 330 332 331 332 333 332 332 332 331 332 332 329 328 331 331
328 328 328 329 331 335 337 336 335 336 338 338 337 337 336 335 331 329 329 330 328 326 325 325 325 327 329 330 329 329 332 332 332 330 329 327 329 329 329 329 328 328 330
329 328 329 329 327 333 333 333 331 328 331 336 336 337 336 335 331 327 327 328 329 329 328 328 328 327 329 331 330 329 329 328 325 323 323 324 325 324 324 326 328 327 325
327 329 328 329 331 332 332 332 331 332 331 332 334 335 337 335 333 330 328 328 329 331 332 331 333 331 333 333 326 324 319 322 322 321 320 320 319 320 320 321 320 318 318
321 327 328 329 330 332 333 331 329 329 329 329 329 331 333 333 334 333 331 331 330 332 334 333 333 331 329 326 326 325 318 314 317 320 318 317 317 317 317 316 315 314 314
312 316 327 328 330 331 332 330 328 326 325 327 328 329 329 327 327 330 332 331 332 332 330 329 329 327 327 326 325 323 324 322 316 311 317 317 316 314 315 314 312 311 310
309 310 311 324 328 328 330 330 329 327 324 326 329 327 325 324 325 325 326 326 326 326 323 322 317 317 322 320 321 318 319 318 317 314 309 314 314 314 313 312 308 310 309
307 308 312 318 322 324 328 329 328 327 326 326 325 325 324 324 323 323 323 323 323 321 319 318 317 315 314 316 317 317 316 314 313 311 309 311 311 313 311 309 306 305 306

GFSSE_sfc_thetae_078.txt.gz
Theta_e
345 351 356 356 355 353 352 353 353 354 353 351 353 355 354 355 355 354 351 349 349 347 347 347 347 347 348 348 350 349 346 345 344 343 343 344 344 344 345 344 348 345 347
347 351 356 356 355 353 353 355 355 354 354 352 355 354 354 355 355 353 349 348 347 347 349 350 349 345 347 347 349 347 345 343 342 341 342 342 342 340 341 341 344 343 345
347 350 353 355 355 354 354 353 353 352 352 354 355 357 356 355 354 351 348 347 347 348 349 349 346 347 346 347 348 346 344 342 341 339 341 336 337 339 338 337 338 339 342
348 349 351 354 354 353 352 353 353 350 351 354 356 357 356 355 352 349 348 347 348 349 348 346 346 346 346 346 347 345 343 341 338 338 336 337 336 339 339 339 338 337 337
346 348 350 354 354 353 353 352 350 349 350 352 353 354 354 353 351 348 347 349 346 347 346 346 347 348 347 346 346 345 342 340 337 338 339 340 340 340 340 338 337 337 337
348 349 352 353 353 352 354 352 347 346 349 351 352 352 352 353 348 346 346 348 348 347 345 344 345 347 348 348 346 344 342 339 339 338 339 340 341 341 341 339 337 337 337
347 349 351 352 352 352 353 351 348 345 348 349 350 351 352 349 346 345 343 344 345 344 343 343 342 341 344 346 345 344 340 336 335 337 338 339 340 340 341 340 337 336 336
345 348 349 349 350 352 351 349 347 346 345 347 349 350 351 348 344 343 343 343 344 344 342 341 340 338 338 337 339 339 335 335 333 335 338 339 340 340 340 339 338 336 335
346 347 348 349 347 349 349 347 346 346 346 347 348 348 347 345 343 341 341 342 342 342 341 340 339 337 336 335 333 332 330 329 333 333 333 338 339 338 338 338 337 336 334
345 346 346 347 345 349 347 346 344 344 345 344 344 343 342 341 341 342 341 341 342 342 341 340 338 335 333 332 331 328 327 328 330 330 332 334 337 338 337 338 336 336 334
328 344 345 345 344 344 346 346 344 343 342 341 341 339 337 339 339 339 339 341 343 341 339 338 336 333 332 331 329 324 322 326 329 330 331 329 334 336 336 338 336 335 334
322 340 344 344 342 341 344 347 346 342 339 337 339 340 339 339 339 337 337 338 341 340 340 337 335 331 326 326 326 323 328 328 327 329 330 327 332 336 333 337 338 336 335
324 329 342 342 342 337 339 345 347 345 343 340 337 336 336 337 339 337 337 337 336 334 333 333 332 328 327 327 328 327 330 332 333 333 329 324 329 335 335 334 336 338 338
325 327 339 342 341 337 337 343 345 346 345 342 338 335 335 335 336 334 334 334 333 332 331 331 329 328 328 330 330 331 333 335 336 336 334 327 329 332 336 336 336 336 338
323 327 328 342 341 339 336 337 342 344 344 344 339 338 337 335 333 333 332 331 330 330 329 328 329 329 331 334 335 335 335 335 335 337 337 328 329 333 335 336 336 337 337
323 325 327 334 341 338 335 336 337 341 345 344 343 340 339 337 334 332 333 332 333 331 330 330 332 334 334 336 335 336 336 336 336 336 336 336 331 332 335 337 339 337 336
325 326 326 328 333 337 336 338 339 340 340 343 343 342 341 338 336 337 337 336 336 334 329 332 334 336 335 336 335 336 336 336 335 334 335 335 336 329 331 335 337 338 336
325 325 327 328 330 335 339 338 339 341 342 341 342 342 341 341 340 337 336 337 336 335 332 332 334 333 332 333 334 335 334 335 334 334 336 335 335 335 333 333 332 335 336
325 325 326 327 329 331 337 340 338 337 339 339 340 341 342 341 340 337 336 337 336 334 334 332 332 331 331 333 333 334 334 332 334 333 333 334 335 334 334 331 328 330 334
325 326 326 328 329 332 337 339 340 338 340 340 339 339 338 336 336 335 335 336 336 332 331 332 330 331 332 333 330 329 332 333 333 332 331 330 331 332 333 333 333 330 331
326 326 327 327 329 331 335 334 333 332 336 336 339 339 340 339 338 338 335 332 335 333 331 330 330 330 331 333 331 329 330 331 330 329 329 328 328 329 331 332 333 331 328
326 327 328 328 329 330 333 334 334 334 334 333 335 336 337 338 337 337 335 333 330 332 333 331 332 332 332 334 328 328 321 323 326 326 326 326 326 328 328 329 329 327 326
324 326 326 328 329 329 330 334 332 333 332 331 332 333 335 335 335 336 334 332 331 331 334 336 336 334 332 333 331 327 319 316 321 324 323 323 323 325 325 324 323 321 321
322 326 328 329 328 330 331 329 329 326 324 326 325 327 329 332 332 332 333 331 331 330 330 334 337 336 333 328 330 330 330 327 317 312 319 320 321 320 322 321 319 318 318
311 313 317 326 330 330 331 330 328 326 327 326 325 325 326 327 328 327 328 328 328 329 327 326 323 324 326 326 325 321 322 323 322 316 309 313 319 320 320 319 317 316 315
311 314 317 322 327 328 331 331 330 328 327 324 324 324 326 327 327 327 326 326 327 324 322 321 319 318 316 317 317 317 317 314 314 315 312 312 312 316 318 318 317 315 314

GFSSE_sfc_thetae_081.txt.gz
Theta_e
345 351 357 356 354 353 353 352 351 350 352 354 356 355 354 355 355 353 351 348 348 347 346 347 348 350 351 352 348 346 345 344 344 344 344 345 344 345 346 347 349 344 348
347 350 356 357 354 353 354 354 354 354 352 355 355 355 354 355 355 352 350 348 347 348 347 347 347 347 349 350 345 344 343 342 341 342 342 341 341 340 342 343 344 343 345
345 349 352 356 355 355 355 354 353 353 353 353 356 355 355 355 354 351 349 347 348 350 349 346 346 346 348 348 345 344 342 340 339 341 343 335 337 340 338 338 338 340 341
346 348 350 355 355 354 355 353 352 352 352 353 355 355 355 354 352 350 348 348 350 350 349 345 346 346 348 347 345 343 340 338 336 339 336 335 335 340 339 339 339 338 338
345 348 350 354 354 353 354 352 351 351 352 354 354 355 354 354 351 349 347 350 347 349 346 346 346 346 347 346 345 343 339 336 338 339 338 339 339 339 340 339 338 338 338
344 346 351 353 354 353 354 352 349 350 350 354 354 354 352 353 350 348 350 346 348 344 346 347 349 347 347 346 344 342 339 338 340 337 338 340 339 339 340 338 338 338 337
344 347 350 352 353 353 354 352 348 349 350 351 353 352 352 352 347 346 347 348 347 345 345 345 346 348 347 346 344 342 337 336 337 336 337 338 338 340 341 339 337 337 337
343 346 349 349 351 352 351 349 348 348 349 349 351 351 351 348 346 343 345 346 345 344 343 342 341 341 343 344 343 338 334 336 333 335 337 338 340 340 340 339 337 336 336
330 344 347 347 348 348 349 347 347 347 348 348 349 349 348 346 345 342 343 343 343 343 341 341 339 338 337 336 335 334 331 332 331 333 335 337 340 338 338 338 337 335 334
329 329 344 346 344 345 347 345 345 345 346 347 347 344 342 342 340 342 339 341 344 343 342 340 338 336 335 333 331 329 330 330 330 331 332 335 339 338 337 338 336 335 333
328 328 333 344 342 342 344 342 343 343 342 342 341 339 337 338 337 338 338 339 342 342 340 339 336 334 334 333 331 328 326 327 329 329 330 334 334 336 336 338 337 336 333
322 325 327 328 343 340 344 342 339 337 339 337 340 338 339 338 338 337 337 339 342 341 340 338 336 333 329 325 325 324 322 326 326 329 330 332 332 337 335 337 337 337 336
324 325 327 328 333 340 342 343 340 336 333 336 338 338 337 337 337 338 339 338 337 335 334 334 332 327 325 326 326 325 328 329 330 331 327 329 330 335 337 336 336 338 339
323 325 327 329 326 340 342 343 343 337 335 333 334 335 334 336 337 334 334 334 333 332 331 330 329 327 327 327 327 328 330 332 333 333 331 330 332 333 336 338 337 337 338
321 324 327 328 328 337 335 343 343 343 338 335 333 333 334 334 334 333 332 332 332 331 330 329 328 326 326 328 330 331 333 333 333 334 335 329 332 334 336 337 338 338 338
323 325 327 327 328 334 333 341 343 344 343 341 336 335 333 333 332 332 330 330 329 330 329 327 327 328 328 332 333 334 334 334 334 334 335 334 332 334 335 337 340 340 338
324 326 326 327 329 332 335 335 339 343 344 342 340 337 337 336 333 331 331 331 332 332 329 328 328 331 332 332 332 334 334 334 334 333 333 335 334 330 334 336 337 338 338
325 324 326 328 328 331 337 338 335 337 340 342 342 342 339 338 336 335 335 336 335 334 332 328 329 330 331 331 332 333 333 334 333 332 333 334 336 333 332 336 335 333 335
325 325 326 327 327 330 335 337 337 337 338 338 340 341 341 341 339 337 333 335 336 335 332 330 331 331 330 330 331 333 332 332 331 331 331 332 333 334 334 332 330 330 335
326 327 327 327 328 330 334 336 336 337 339 338 339 339 340 341 340 337 335 336 337 335 333 332 330 331 330 330 328 328 331 331 333 331 330 329 328 329 331 332 332 328 330
325 326 326 326 327 330 332 331 332 330 334 336 339 339 338 338 337 337 338 335 335 334 333 332 331 329 329 333 328 329 329 330 330 330 329 326 326 327 328 330 332 330 327
325 324 325 326 327 329 331 331 332 332 332 335 337 336 336 336 337 336 337 337 334 332 330 333 330 329 329 332 328 327 322 324 327 326 326 324 324 327 327 328 330 329 327
322 323 324 325 326 328 328 330 330 332 332 331 333 333 334 334 335 336 336 336 334 332 329 329 330 331 329 332 332 327 319 317 321 324 324 323 322 323 325 326 326 325 324
321 321 323 326 326 328 328 327 326 326 325 326 330 330 330 332 332 333 335 335 334 332 329 328 330 330 330 326 329 329 329 327 317 314 321 321 321 320 322 323 322 321 320
316 322 324 325 327 329 328 327 325 326 325 326 326 325 326 329 328 329 329 331 331 331 330 329 325 322 323 324 323 323 320 319 319 318 310 314 319 319 320 321 320 319 318
313 315 316 318 325 328 328 328 326 325 324 324 325 323 324 326 326 326 327 327 329 327 326 323 320 319 318 317 317 316 315 312 311 311 309 310 312 317 319 319 319 318 317

GFSSE_sfc_thetae_084.txt.gz
Theta_e
345 350 357 355 354 354 353 352 352 354 357 357 356 355 355 355 354 353 350 349 348 348 347 351 351 352 350 347 346 345 345 345 346 345 344 344 345 347 348 347 347 343 347
347 350 357 357 354 354 354 353 353 352 354 357 356 354 355 355 355 352 349 348 347 347 347 348 349 352 349 345 344 343 341 340 341 342 341 340 341 342 342 343 345 341 344
346 349 353 356 356 356 355 355 354 353 353 356 355 356 355 355 354 351 349 348 350 348 347 348 349 349 347 345 343 340 341 342 341 343 341 334 335 341 339 339 340 340 342
347 348 349 355 356 355 356 354 354 353 353 355 354 355 356 355 353 350 348 350 353 350 347 346 346 349 347 345 342 339 339 338 339 340 333 333 335 340 340 340 340 339 338
346 347 349 355 355 355 355 353 352 353 354 353 354 354 354 355 352 349 350 351 350 349 345 345 346 348 347 345 342 338 336 336 340 338 334 334 333 339 340 339 339 339 338
345 346 352 353 353 354 354 353 352 351 353 353 353 353 353 354 351 349 350 346 348 345 346 347 346 347 347 345 342 339 337 339 340 332 334 338 332 340 340 339 339 338 338
342 348 350 352 352 354 354 352 351 351 352 354 353 353 352 352 350 350 347 346 344 346 347 349 347 346 347 345 342 338 336 338 332 331 334 333 334 340 341 338 338 338 338
333 344 347 348 351 352 352 351 350 350 350 354 352 353 351 351 348 348 344 344 345 346 345 345 347 347 346 344 341 336 336 335 330 331 333 334 341 340 340 339 337 337 337
331 332 343 344 346 348 348 348 348 350 349 350 351 350 349 347 347 345 346 344 344 344 344 343 341 341 341 341 339 336 334 332 324 329 335 334 341 339 339 338 337 335 335
330 330 329 338 342 343 343 345 345 347 347 348 347 345 343 342 343 343 341 345 341 344 343 342 340 338 337 335 334 333 330 329 322 325 332 336 341 338 338 339 337 335 333
329 330 327 328 328 331 342 341 343 344 344 343 342 339 338 336 334 336 337 341 342 343 342 340 338 337 335 333 332 329 327 319 321 323 325 338 339 336 336 338 337 335 333
323 326 325 328 327 328 329 339 336 339 339 340 339 337 336 334 334 335 334 337 341 341 340 340 337 336 330 321 320 325 315 315 319 322 323 335 335 337 335 337 337 337 336
321 323 324 327 327 327 328 335 335 334 335 337 337 337 336 333 332 335 334 334 334 334 332 333 331 325 319 318 319 316 317 320 320 322 326 333 333 336 337 336 337 338 339
321 322 324 327 327 327 328 329 335 330 330 331 335 334 332 332 331 334 333 332 330 330 326 327 326 322 320 319 319 319 321 324 325 325 324 330 334 334 336 338 338 338 338
320 323 324 327 327 328 329 333 335 331 328 329 333 333 331 331 328 327 329 328 327 326 325 325 323 321 320 320 321 321 323 325 326 327 325 329 333 337 337 338 339 340 339
322 322 326 326 329 329 328 332 335 335 331 329 328 327 329 330 328 326 325 325 325 324 323 322 320 320 319 321 324 326 326 328 327 329 328 328 332 335 338 338 339 339 340
322 325 325 327 328 328 331 331 336 335 336 331 329 327 328 329 327 325 324 323 323 324 323 321 321 322 324 325 325 327 328 327 330 328 327 328 330 331 335 339 339 336 337
323 323 326 327 328 331 332 332 334 336 335 336 332 332 331 331 329 326 327 326 327 328 324 321 322 322 324 325 325 326 327 330 327 326 327 329 328 329 331 336 337 334 333
323 323 324 325 326 328 329 329 332 334 335 335 337 337 334 334 332 330 330 331 331 328 326 324 323 325 324 324 324 325 328 327 327 326 324 325 325 326 326 331 330 329 332
323 324 325 326 327 329 329 330 331 332 334 335 335 337 338 337 337 334 330 330 332 331 327 327 325 326 325 324 325 324 327 327 325 325 324 323 321 322 323 325 324 325 330
324 325 325 325 326 327 327 327 327 326 331 333 334 334 337 336 335 333 332 331 331 330 330 328 326 324 323 323 325 324 325 325 323 325 321 319 319 321 322 324 325 324 325
322 324 324 325 326 326 327 327 327 327 328 329 332 333 333 333 333 332 332 331 331 329 329 329 328 326 323 324 322 320 318 319 323 321 318 318 316 320 321 323 324 323 320
319 321 324 325 326 326 327 326 326 327 327 326 328 328 329 331 332 333 332 332 331 329 327 329 329 327 324 326 326 320 314 310 314 316 316 316 316 316 318 320 320 320 319
319 321 323 325 325 325 326 324 323 322 321 323 326 327 328 329 330 332 332 331 331 329 328 327 328 326 326 322 326 327 325 322 311 308 315 314 314 314 316 317 317 316 315
313 319 321 322 325 326 326 325 323 322 323 324 325 324 324 326 327 327 328 328 329 329 329 328 326 326 326 324 324 322 318 317 315 313 308 310 315 316 315 316 315 313 313
313 314 315 318 322 323 323 324 324 322 322 322 322 322 323 323 325 325 325 325 325 326 328 327 326 323 319 319 318 317 315 312 310 309 308 309 309 312 314 314 313 312 311

GFSSE_sfc_thetae_087.txt.gz
Theta_e
344 350 357 355 354 354 353 355 358 360 358 358 356 356 356 355 354 352 348 346 349 350 353 353 352 349 347 346 346 346 347 346 345 343 343 345 346 347 348 346 345 342 346
346 351 356 356 354 354 353 354 355 357 357 358 357 355 355 355 354 351 349 348 348 350 353 352 352 347 346 344 342 341 342 341 340 341 341 341 342 342 343 342 342 340 343
347 351 353 356 356 356 355 352 353 354 357 357 356 356 355 355 354 350 349 348 349 349 349 352 350 346 345 342 341 343 342 341 342 342 341 333 335 341 340 340 339 341 341
348 351 352 356 356 356 355 353 352 351 354 356 355 356 357 355 352 349 348 349 351 349 349 347 349 346 344 341 340 342 341 339 339 338 332 333 335 341 341 340 340 338 338
346 349 351 356 356 356 355 353 351 351 352 355 355 354 355 355 352 349 352 352 350 349 349 347 350 346 344 341 338 339 339 339 341 336 331 331 332 338 340 339 339 339 338
344 346 352 355 355 355 354 354 352 352 351 354 353 354 354 353 352 351 352 350 345 344 344 345 349 346 344 342 339 338 339 340 337 333 332 335 332 340 340 340 339 339 338
339 347 350 354 354 354 353 353 352 351 351 352 353 353 353 353 351 351 349 346 343 343 347 346 347 347 345 342 339 337 337 337 329 331 330 332 334 341 340 339 339 339 338
334 342 348 350 350 351 351 351 351 350 350 353 351 352 353 352 352 350 347 344 343 347 349 347 346 346 345 342 339 336 335 333 328 331 331 332 341 341 340 338 337 338 337
332 330 329 331 340 345 347 348 349 350 348 353 351 350 350 349 349 345 344 344 346 346 346 347 347 346 345 342 338 336 334 332 322 331 334 333 342 340 339 338 336 336 336
330 329 329 329 329 329 328 337 341 346 347 347 348 346 344 344 345 345 343 345 346 346 344 344 342 341 340 339 336 334 331 329 321 330 332 334 341 339 339 338 337 335 334
329 326 328 329 328 328 329 330 331 340 343 342 343 341 339 339 340 340 339 341 343 344 343 341 340 339 337 333 332 329 328 317 318 326 331 341 341 338 338 339 337 336 333
322 326 327 328 327 327 328 328 328 335 338 342 341 339 337 335 334 336 336 338 341 342 341 341 339 337 331 321 320 326 315 313 314 321 325 339 340 338 338 338 337 337 336
319 321 324 326 327 325 327 327 327 329 334 340 338 337 335 333 332 333 333 335 335 333 333 334 332 326 320 317 317 315 314 313 315 321 326 336 339 340 339 337 339 339 339
318 321 323 325 325 325 327 327 326 329 333 335 337 337 334 332 333 333 331 331 330 329 327 326 325 322 319 317 316 315 314 319 320 320 323 333 337 338 340 339 339 338 338
318 320 321 325 325 325 326 328 329 329 332 333 334 336 335 332 332 333 331 331 328 327 325 324 323 321 318 318 317 317 317 321 323 323 321 328 333 338 338 338 339 339 340
320 320 322 326 327 327 326 328 330 333 333 331 334 333 332 332 331 330 330 329 327 326 324 324 321 320 318 317 318 320 321 324 324 326 326 327 332 335 340 339 339 340 339
322 321 323 325 327 327 327 329 333 335 330 328 332 327 332 331 327 327 326 326 326 325 321 321 320 318 317 319 320 323 325 325 326 327 327 325 328 330 336 340 340 338 337
322 322 323 327 326 327 330 330 335 335 332 329 329 328 330 330 327 324 322 322 322 321 320 319 318 319 321 322 323 324 325 327 327 328 328 328 329 329 331 336 339 337 334
322 322 323 325 325 328 329 331 333 333 333 332 329 329 328 328 325 323 324 323 324 324 322 322 320 321 322 323 323 324 324 325 327 326 322 323 326 326 325 330 331 330 331
321 322 324 324 324 327 326 328 331 332 332 334 332 332 330 329 329 327 327 328 328 326 324 324 321 323 324 324 324 323 324 325 325 326 323 322 323 321 324 325 323 325 331
323 323 324 324 324 327 326 325 325 326 331 332 332 335 335 334 334 331 329 329 330 328 326 326 325 323 322 322 322 322 323 324 324 324 323 318 319 320 321 322 322 323 327
320 322 324 324 325 326 325 327 326 327 328 330 331 332 333 333 334 332 330 329 329 328 327 328 327 324 323 323 320 320 316 318 321 321 318 316 318 319 320 322 322 321 320
317 318 323 324 325 325 326 326 326 325 325 325 327 327 329 330 331 330 330 330 329 328 326 326 327 326 324 325 324 321 315 312 314 315 314 315 316 316 318 319 321 321 318
313 318 322 324 325 325 325 324 323 321 320 323 324 325 326 327 328 329 329 329 330 328 326 326 327 326 325 322 323 326 324 322 314 311 315 315 314 313 315 316 316 316 315
312 314 315 320 323 324 323 324 322 321 322 323 324 322 323 325 326 326 327 327 327 327 326 326 324 325 326 323 322 321 321 318 316 313 308 311 314 315 313 317 317 315 314
311 314 314 315 319 321 322 322 322 321 321 320 321 321 321 322 324 325 325 325 324 325 327 327 325 323 322 321 321 320 317 315 312 311 308 309 310 312 314 315 314 312 310

GFSSE_sfc_thetae_090.txt.gz
Theta_e
343 349 357 356 356 357 358 359 360 358 357 356 356 356 356 355 353 350 347 352 352 352 350 352 350 349 348 347 348 348 346 346 345 344 344 346 347 347 345 344 344 339 345
346 351 356 356 354 355 357 359 359 358 357 357 355 355 354 354 352 348 347 351 351 353 353 352 348 346 345 344 346 344 340 339 340 340 341 341 342 343 343 341 343 338 343
346 351 352 356 356 356 355 354 356 356 357 357 357 354 353 354 352 349 347 349 351 353 352 350 347 345 342 341 342 342 342 342 341 340 339 333 335 341 340 339 339 340 341
348 350 350 356 356 354 353 351 352 355 355 355 356 356 355 354 352 350 348 348 351 352 352 349 345 343 341 343 344 343 342 340 339 338 332 333 335 341 340 340 339 338 337
347 349 350 356 356 355 353 351 350 350 354 354 355 354 354 354 352 349 349 351 349 349 351 347 345 343 341 342 342 340 340 340 341 335 330 330 331 338 340 340 339 339 338
346 347 353 355 355 355 353 353 351 349 350 354 354 354 353 353 352 349 351 350 348 348 348 349 345 344 341 341 340 341 340 341 338 330 331 335 332 340 340 340 339 338 338
341 345 350 352 353 355 353 353 352 351 351 353 353 353 352 352 352 352 352 349 347 345 346 349 346 344 341 340 340 339 337 338 330 328 329 330 333 340 340 339 339 338 338
339 340 342 346 349 351 349 350 351 350 349 351 352 352 352 352 351 352 350 344 344 346 346 347 347 344 342 340 339 337 335 335 331 329 330 331 340 340 339 338 338 338 337
333 331 330 331 334 337 338 338 341 347 348 349 352 350 349 349 349 350 347 346 345 346 348 347 346 346 343 340 337 335 333 331 328 330 332 332 342 340 339 337 336 336 336
329 329 328 328 329 330 329 332 335 338 343 346 349 346 344 344 345 346 344 344 346 348 349 348 347 345 344 342 338 333 329 329 326 329 331 331 341 340 339 338 336 335 334
326 327 328 328 329 329 330 328 329 332 334 340 343 341 339 341 341 340 338 341 344 345 344 344 344 343 340 337 334 330 326 317 321 329 330 340 341 339 339 338 337 335 334
324 324 326 328 328 330 330 326 325 327 331 333 340 339 339 340 339 338 335 338 342 342 341 342 341 339 332 322 320 326 314 313 313 324 329 341 340 339 339 339 338 337 335
321 323 327 326 326 327 330 329 327 326 331 334 337 339 337 337 335 336 336 337 337 335 334 335 334 327 320 317 316 314 313 311 314 320 325 339 341 340 339 339 339 338 339
318 320 323 326 324 323 325 326 325 325 327 331 335 337 336 333 333 333 335 335 334 332 328 327 325 322 318 316 315 314 312 313 315 319 320 334 340 341 341 339 339 339 339
318 318 320 322 322 322 323 324 325 325 326 328 333 337 336 333 331 332 333 332 333 330 326 324 322 320 317 315 315 315 314 314 319 320 318 329 334 340 342 341 340 339 339
319 318 319 322 322 323 322 324 326 327 327 327 330 334 335 334 332 332 332 331 331 330 327 324 321 319 317 316 316 315 316 317 320 322 320 322 331 335 340 340 340 339 340
320 320 320 322 324 323 323 325 327 329 330 328 329 333 334 333 333 332 331 330 330 328 325 322 320 320 317 317 315 316 320 321 323 324 324 324 325 330 335 340 341 339 338
319 319 321 325 324 324 324 325 326 330 332 332 332 333 332 332 333 332 330 328 327 325 322 321 319 316 316 316 316 319 322 324 325 325 326 327 327 329 331 336 340 340 337
319 320 322 323 323 325 325 326 327 330 330 331 331 332 330 331 329 330 327 327 324 323 321 319 317 317 318 320 321 323 323 324 325 326 325 325 326 327 325 329 332 333 333
320 321 321 322 324 324 327 328 327 329 330 330 329 328 330 331 329 326 325 323 323 322 320 320 318 320 321 321 323 323 322 324 324 323 324 323 324 324 324 325 325 323 328
318 319 320 321 322 323 322 322 324 325 328 329 330 330 328 330 328 326 326 324 324 323 323 322 321 320 321 322 320 321 321 323 322 322 323 320 321 320 323 322 321 322 325
320 321 320 321 322 324 324 325 326 326 328 330 330 331 330 329 329 328 328 328 328 327 325 324 323 321 321 321 319 318 315 318 321 322 318 317 318 319 320 321 321 321 321
315 319 322 324 323 323 326 326 325 326 326 326 328 328 329 329 329 330 329 329 327 328 326 325 325 324 321 322 322 320 313 313 314 316 314 314 315 316 318 320 320 320 318
313 315 319 322 323 325 325 324 323 320 321 323 325 326 327 327 327 327 327 326 326 325 324 325 326 324 323 321 322 324 322 319 312 311 316 315 316 316 318 318 318 318 316
313 314 316 319 320 324 324 324 322 322 322 324 325 324 324 325 326 326 325 326 326 326 325 324 324 323 324 322 321 321 320 321 318 314 310 311 315 316 316 317 316 314 315
310 313 313 313 313 315 319 321 321 321 321 320 320 321 322 322 323 324 324 324 325 325 325 325 324 323 323 322 320 320 317 316 314 311 308 310 312 314 316 316 316 315 313

GFSSE_sfc_thetae_093.txt.gz
Theta_e
339 348 357 356 358 358 358 357 357 357 357 356 354 354 354 354 352 349 348 349 349 349 351 351 350 348 348 347 347 348 347 344 345 345 345 347 346 344 343 342 343 340 347
344 350 356 356 357 358 358 359 358 357 357 356 354 353 352 352 351 348 352 352 351 350 352 350 349 348 346 347 344 343 344 342 341 340 341 341 343 342 342 341 341 339 345
346 350 352 355 356 355 356 358 358 357 357 357 356 352 354 352 349 348 352 352 353 353 351 347 345 344 344 345 341 340 339 339 340 340 339 332 335 340 339 339 340 339 340
348 349 350 355 355 354 354 355 355 356 355 356 355 354 354 353 350 347 350 351 353 352 349 345 343 341 342 342 343 343 341 339 338 337 331 332 335 340 340 339 338 338 337
346 348 350 355 355 354 352 352 354 354 354 354 354 355 354 353 352 349 348 352 353 352 350 345 342 342 344 344 343 341 339 338 338 333 329 330 331 338 340 339 338 338 338
344 346 352 355 355 355 353 352 349 352 353 352 353 353 353 352 352 349 351 350 349 351 348 345 341 341 344 344 341 342 342 340 335 328 330 334 331 340 340 339 338 338 338
344 346 351 355 355 354 353 352 351 349 349 352 353 352 352 352 351 351 350 350 348 349 348 345 343 341 341 342 342 340 341 339 329 327 328 330 332 340 340 339 338 338 338
339 345 347 350 352 352 351 350 351 350 350 351 352 352 352 351 352 351 351 349 348 345 349 346 343 341 340 341 340 337 340 336 329 328 329 330 340 339 339 339 338 337 337
333 333 334 338 341 341 341 342 343 344 345 346 350 351 350 349 349 350 349 347 346 346 345 348 344 342 340 340 338 336 337 335 327 328 331 331 341 340 338 337 336 336 335
331 330 330 330 329 328 329 335 335 336 337 340 346 348 345 344 346 346 346 344 342 343 346 347 346 343 342 341 338 334 332 334 327 328 330 331 341 340 338 336 335 335 334
328 325 327 328 329 330 328 329 329 331 332 335 340 341 340 340 341 341 339 340 342 345 346 347 346 346 343 339 336 332 327 321 325 327 328 336 341 340 339 338 336 334 333
324 326 327 326 327 329 331 328 324 326 326 326 333 337 337 338 339 338 335 337 341 344 345 346 345 343 337 326 324 327 314 316 320 327 328 338 341 339 340 338 337 336 334
324 323 325 325 325 326 329 329 329 326 327 329 332 339 335 336 335 335 335 335 338 335 337 338 336 330 322 318 316 314 313 311 311 319 328 338 342 340 340 339 338 338 338
320 322 324 324 325 325 327 327 327 327 327 329 331 337 335 334 332 334 334 335 336 336 333 331 328 324 320 315 313 312 311 310 311 316 321 333 341 341 341 340 340 339 339
319 319 321 323 323 323 322 322 322 322 325 327 330 336 335 333 333 334 334 334 334 333 331 329 327 321 317 315 314 313 313 311 313 316 319 326 335 342 343 341 340 340 339
319 319 319 321 323 321 321 321 321 321 323 324 329 333 335 335 333 333 334 333 332 332 331 329 325 321 317 314 314 313 314 314 315 318 319 319 330 335 341 342 341 340 339
319 319 318 320 321 320 321 322 323 323 325 324 325 330 334 333 333 332 333 332 332 332 330 327 323 321 316 315 314 315 314 315 317 320 321 320 323 328 335 340 341 340 339
318 318 319 322 322 321 321 322 324 325 325 327 327 328 332 333 333 332 332 332 331 329 329 325 323 320 317 315 314 315 316 319 320 322 323 323 324 326 329 336 340 341 340
318 318 318 320 321 322 322 322 323 324 326 329 329 329 330 333 333 332 331 331 330 329 325 324 321 320 315 315 316 316 317 320 323 325 323 324 325 326 325 330 332 334 337
317 318 318 320 320 321 322 323 325 328 327 327 330 332 331 332 333 332 331 330 328 326 323 321 320 318 317 317 319 320 320 322 323 323 323 324 324 324 324 324 327 326 329
316 316 317 317 319 320 319 319 320 320 324 327 329 330 331 332 331 330 329 328 325 324 323 321 319 316 318 319 319 318 320 321 322 322 322 320 322 323 324 323 323 322 323
318 316 317 318 319 320 320 320 321 322 326 328 328 329 329 329 329 327 327 326 325 323 322 321 320 319 318 321 318 316 314 317 320 321 319 318 318 320 322 321 321 321 320
313 313 317 320 321 322 322 323 323 325 324 325 327 327 328 328 328 326 325 325 324 324 322 322 322 321 318 319 319 318 313 311 315 316 315 315 316 317 318 320 320 320 318
310 315 318 320 321 322 323 323 321 320 320 322 323 327 327 327 326 327 327 326 325 326 324 324 324 323 321 319 320 322 321 318 312 310 315 314 315 316 317 318 319 320 319
313 314 315 316 316 317 323 323 322 321 322 323 324 325 325 325 325 325 324 324 324 325 323 322 322 322 322 320 320 320 320 320 318 313 310 310 313 314 317 319 321 320 319
307 309 308 310 310 312 314 315 317 320 321 321 321 321 323 324 323 322 322 322 322 322 324 323 322 322 321 321 320 320 318 317 317 314 311 309 310 311 313 315 315 317 318

GFSSE_sfc_thetae_096.txt.gz
Theta_e
337 346 357 358 358 358 357 355 356 357 358 358 355 355 354 354 353 351 348 349 349 351 353 352 351 351 350 349 349 347 345 346 347 346 346 347 343 343 343 342 343 342 347
342 349 357 358 358 358 358 357 357 356 356 356 355 355 354 352 351 348 349 349 350 352 352 350 347 348 346 345 347 346 344 344 342 341 342 342 343 342 341 340 342 339 343
345 350 352 358 358 357 357 356 357 357 356 355 352 352 352 352 349 350 351 351 350 352 352 349 347 345 347 342 341 342 341 341 340 340 339 332 334 339 340 339 339 339 340
347 348 349 356 357 356 356 356 355 355 355 356 354 353 352 352 349 351 351 353 353 351 348 345 344 344 344 341 341 340 340 340 339 337 331 332 334 340 340 338 338 338 338
345 347 349 356 356 356 355 356 355 355 354 354 354 354 354 352 349 349 352 353 352 351 348 344 343 344 343 343 343 342 340 339 338 333 329 329 331 338 340 339 338 338 338
342 345 351 354 355 354 354 354 354 354 353 353 352 353 352 353 351 349 352 352 351 349 346 342 342 344 346 344 342 341 340 339 334 327 329 334 331 340 340 339 338 338 338
342 344 350 354 355 354 353 352 352 351 353 352 352 351 351 352 351 351 351 351 351 350 346 342 342 344 343 343 343 343 341 338 327 327 328 329 331 340 340 339 338 338 337
342 342 347 349 351 353 353 352 352 350 349 351 353 353 352 351 352 351 351 350 351 349 346 343 342 343 342 342 341 342 341 335 328 326 328 329 339 339 339 339 338 337 337
336 337 338 342 344 345 346 346 345 344 343 343 350 351 350 348 349 350 350 349 349 349 348 345 342 342 342 342 339 340 340 334 325 327 330 330 341 339 338 338 337 336 336
331 332 334 334 332 331 332 338 337 337 339 340 344 347 345 344 346 347 346 347 347 345 347 347 344 342 342 343 340 337 338 334 325 327 329 330 341 339 338 336 336 336 335
329 328 329 329 330 330 330 332 333 333 332 336 341 341 340 340 341 341 341 341 343 344 344 347 346 344 341 339 337 333 333 326 325 326 327 335 341 340 339 337 336 335 334
324 327 328 328 328 328 330 328 327 327 325 326 334 337 337 337 338 340 336 337 340 341 341 345 346 345 339 330 328 329 316 320 323 325 326 335 342 341 340 338 337 336 335
324 325 327 327 325 327 327 325 327 327 328 328 329 335 336 337 335 335 334 336 334 334 338 341 339 335 329 323 319 317 313 315 317 324 329 335 341 341 340 339 338 338 337
320 325 327 326 326 325 325 326 326 328 328 328 328 332 333 332 333 333 332 334 334 334 334 335 334 330 326 318 315 312 312 311 311 313 322 332 340 342 341 341 340 339 339
318 322 323 324 324 324 323 323 322 322 324 325 328 333 336 334 334 334 333 334 335 334 333 330 331 328 322 318 313 312 311 310 309 312 316 325 334 341 343 342 341 341 340
318 319 322 322 324 323 323 321 321 320 322 323 325 328 335 335 334 334 334 333 334 334 333 331 326 325 322 317 313 312 312 312 310 313 316 319 328 335 340 343 342 341 340
314 319 319 320 321 322 322 321 320 320 322 323 324 324 330 333 334 334 334 333 333 334 332 329 326 322 318 317 314 313 313 312 313 314 318 318 320 327 333 339 343 342 340
306 315 318 322 320 320 319 319 320 321 321 322 323 324 326 331 331 331 332 333 334 332 330 327 325 323 320 315 315 313 313 314 314 315 318 321 320 322 326 334 339 342 342
304 308 316 318 318 319 319 319 320 322 322 324 325 326 326 328 331 330 331 332 332 327 328 327 324 323 320 318 315 314 314 315 316 320 320 321 322 322 322 327 331 334 338
308 312 316 317 317 318 320 320 321 322 323 325 325 326 327 328 328 330 331 332 328 325 324 326 325 321 319 318 318 317 316 317 318 320 322 323 323 323 323 323 326 328 332
314 314 315 316 316 317 316 319 319 321 322 324 325 327 327 329 330 329 330 330 324 323 322 324 324 321 318 318 316 316 318 319 320 321 321 321 321 322 323 323 325 326 327
317 315 315 316 317 318 317 318 319 318 320 323 325 327 329 329 331 331 330 329 326 323 322 322 323 320 318 319 315 315 313 316 319 321 319 319 319 321 322 323 323 322 321
311 312 317 318 318 319 319 320 321 321 321 321 323 325 327 329 328 328 329 328 326 326 324 323 322 319 316 319 320 317 311 310 314 316 317 318 316 318 320 321 321 319 320
312 313 317 318 315 316 317 320 319 319 318 320 321 323 325 328 327 326 326 325 325 325 323 323 322 321 319 316 317 320 320 317 312 310 314 314 315 316 317 318 319 319 319
309 309 312 312 312 313 315 321 321 320 320 322 323 321 323 327 327 327 326 325 324 324 324 323 322 321 322 319 318 318 317 317 316 312 310 312 312 315 316 317 320 319 318
304 306 306 306 307 308 310 311 313 315 316 318 319 320 321 324 324 323 323 322 322 323 323 323 322 321 322 320 320 318 318 316 316 314 311 310 310 312 313 316 318 318 318

GFSSE_sfc_thetae_099.txt.gz
Theta_e
344 353 359 358 357 357 356 356 357 358 358 357 357 356 356 354 352 350 349 349 350 352 352 352 352 351 351 350 350 349 349 349 349 347 347 346 344 344 344 345 347 344 348
346 353 358 359 359 359 358 358 358 358 358 357 356 355 355 354 352 351 349 349 351 354 353 352 352 351 350 349 346 347 346 345 344 343 343 342 344 342 342 342 345 342 344
347 353 353 358 359 359 357 357 357 357 357 357 356 356 355 353 351 349 349 349 351 353 351 348 348 346 345 347 345 344 344 342 341 341 340 337 338 341 340 339 340 340 341
349 353 352 356 357 358 357 356 356 356 356 355 353 354 353 353 349 350 351 350 353 353 351 348 348 348 343 342 342 341 341 340 340 339 338 338 337 340 339 339 339 339 338
349 352 351 356 355 356 356 356 356 356 356 355 355 353 354 352 350 350 353 354 352 351 350 348 348 347 342 341 341 340 340 340 338 338 338 339 339 339 340 340 339 339 338
348 352 352 355 355 355 355 356 355 355 355 355 355 354 352 353 350 352 353 350 351 349 348 345 345 345 346 344 343 341 341 340 336 337 338 339 339 340 340 339 339 339 338
345 350 351 353 354 353 353 353 355 355 355 353 352 352 351 351 351 352 352 351 350 349 345 343 343 344 344 344 342 342 341 337 335 337 338 339 339 340 340 339 338 338 338
337 347 350 348 352 352 352 352 351 352 352 352 352 352 352 352 351 351 351 350 350 348 344 343 344 344 344 343 343 344 341 335 334 336 338 339 341 340 339 339 338 338 338
334 337 347 349 348 349 349 349 349 348 345 344 348 352 351 349 350 350 349 349 350 348 346 344 345 345 343 344 342 344 340 335 335 336 336 339 341 340 339 338 338 337 337
332 333 334 342 346 346 345 342 341 341 341 343 345 347 346 345 347 347 345 346 348 348 347 345 345 345 344 344 342 342 338 334 335 336 337 338 340 340 338 337 337 336 336
331 330 331 333 336 339 340 337 337 337 336 340 342 341 342 348 347 346 342 342 344 346 346 346 345 344 342 341 339 337 336 336 335 334 336 336 341 340 339 337 337 336 335
323 329 330 330 332 333 334 335 334 331 329 334 343 345 345 346 346 345 339 338 343 343 342 345 345 343 339 339 336 332 336 336 335 335 334 335 342 341 340 338 337 336 335
318 329 330 330 330 332 333 333 332 330 331 330 331 340 341 342 343 344 343 343 342 336 340 339 343 341 338 337 335 331 327 331 334 335 334 334 340 342 341 340 339 338 336
313 322 330 330 329 330 332 332 331 331 331 331 329 330 336 341 339 343 341 342 340 338 338 339 339 341 339 336 331 329 326 324 328 331 333 333 338 342 342 342 340 339 339
311 319 327 331 329 330 330 331 331 331 331 330 330 330 335 335 335 338 341 341 339 337 337 340 338 338 338 336 329 323 323 322 323 324 326 325 333 340 343 343 342 341 340
307 316 325 328 330 330 330 330 330 328 328 327 327 329 331 336 335 336 335 337 341 339 340 337 336 335 331 330 323 322 319 320 320 321 321 323 327 333 339 343 343 343 342
306 311 319 325 329 328 329 329 329 329 328 326 326 327 328 332 334 337 338 336 337 339 339 336 331 330 328 326 323 321 320 320 320 319 320 323 325 326 333 337 341 342 343
306 307 313 321 326 327 328 329 328 328 327 326 326 327 327 328 332 334 336 336 339 337 337 332 330 327 329 323 323 321 321 320 321 321 321 323 325 325 327 333 337 341 342
305 307 309 317 321 324 325 325 325 326 326 327 328 328 328 329 330 331 333 334 336 336 334 334 331 330 324 322 321 321 320 321 320 321 322 323 325 326 327 327 329 332 337
306 307 310 316 320 323 324 324 324 324 324 326 327 328 328 329 330 331 332 333 334 333 331 331 330 328 328 324 323 321 322 321 321 321 322 324 326 327 328 329 329 329 330
306 312 317 319 321 322 320 320 321 321 323 325 327 329 329 329 329 330 331 332 333 331 329 329 330 326 325 322 320 319 321 321 321 323 324 325 326 328 329 329 330 331 330
314 318 319 320 321 322 323 323 324 324 325 326 328 328 329 329 330 329 331 330 329 328 328 328 326 325 322 321 318 318 313 318 322 323 324 325 325 327 327 327 328 329 331
311 314 316 318 319 321 322 323 323 323 324 323 323 325 328 329 331 330 332 331 329 328 326 325 325 323 318 320 320 318 314 313 318 323 323 325 324 324 325 327 327 328 330
309 312 315 315 314 315 317 319 320 318 317 320 325 326 326 327 330 330 331 331 328 327 325 323 323 322 320 316 319 320 324 322 317 315 320 321 324 322 323 324 326 327 328
306 307 309 310 310 310 311 313 319 318 322 322 324 324 324 326 328 329 329 330 327 324 324 323 321 321 320 319 318 320 320 320 320 317 315 317 318 319 322 323 325 327 327
303 304 304 304 305 306 307 308 310 313 315 313 315 317 316 319 325 327 327 326 326 325 324 323 322 321 320 320 320 320 319 318 317 318 315 316 316 320 320 321 323 324 325

GFSSE_sfc_thetae_102.txt.gz
Theta_e
348 354 358 357 356 356 356 357 358 359 357 359 358 357 355 353 353 349 348 350 349 350 349 350 350 351 351 351 350 350 349 349 349 347 347 347 346 346 345 345 349 347 349
347 353 357 358 357 357 358 358 359 359 358 359 358 356 355 354 352 349 348 349 351 354 352 352 352 351 351 349 349 348 347 347 345 344 343 343 344 344 343 343 347 344 346
350 352 352 357 358 358 358 358 358 359 358 358 358 356 355 354 352 351 349 349 353 353 353 353 352 350 349 346 346 346 345 344 342 340 341 337 339 341 340 340 341 342 342
350 352 352 356 357 357 358 356 358 357 357 357 357 357 355 354 352 350 349 349 353 352 353 351 350 349 346 345 344 344 343 342 341 340 336 335 335 339 339 339 339 339 339
349 351 352 355 356 356 356 357 357 357 356 356 355 354 354 353 351 350 351 352 353 351 351 350 349 345 343 342 341 341 340 340 339 337 337 338 338 340 340 339 339 338 337
344 352 352 353 354 354 354 354 355 356 356 356 355 354 354 352 351 352 352 353 351 350 350 347 347 343 343 342 341 340 340 339 338 336 336 337 337 339 339 338 339 338 338
339 349 351 352 352 352 353 353 355 354 354 354 352 353 352 351 352 353 351 349 350 350 347 345 345 344 343 343 343 342 340 338 335 336 337 338 339 340 339 339 338 338 337
337 341 351 348 350 351 351 352 352 352 352 351 350 351 352 351 352 351 350 350 349 347 345 344 344 344 344 344 343 342 340 336 333 335 337 338 341 340 339 338 338 337 337
340 338 344 349 348 348 350 350 350 350 350 349 351 351 351 349 350 351 349 349 349 348 347 346 346 345 344 343 344 345 340 336 334 335 335 338 341 340 339 338 337 337 337
338 338 336 344 348 348 349 347 346 347 345 345 346 347 347 347 348 348 347 346 348 348 347 345 346 346 344 345 343 344 338 335 335 335 335 337 340 340 339 338 337 337 336
321 334 336 337 344 348 348 345 343 342 341 340 342 341 343 347 347 346 343 342 345 346 346 345 346 345 343 342 341 340 336 337 336 334 335 339 341 340 339 338 337 336 336
313 318 335 336 337 340 343 345 345 342 338 341 343 345 346 345 344 344 340 338 343 344 344 345 345 344 340 339 339 335 338 337 336 335 335 338 341 341 340 338 337 337 336
311 313 319 336 336 335 340 341 339 332 331 333 341 346 343 346 345 345 344 345 344 338 342 342 343 341 337 333 336 336 335 336 336 335 335 336 339 343 341 340 338 338 337
310 312 317 325 337 335 336 339 340 335 330 331 332 336 340 340 343 342 341 344 344 343 340 340 339 341 341 336 333 335 334 332 334 335 335 334 337 341 343 342 341 339 339
309 313 315 321 333 335 333 337 339 338 336 335 335 334 334 336 337 339 342 342 344 346 341 337 338 338 340 339 335 331 331 331 331 331 333 330 334 338 342 343 342 341 340
309 311 314 318 328 334 333 334 337 338 338 337 336 335 335 335 336 338 337 339 341 342 341 340 338 338 335 338 336 335 329 328 328 329 330 330 329 333 337 341 342 342 342
310 312 312 314 320 330 334 334 335 335 336 335 335 335 333 332 332 334 336 338 340 343 342 341 341 340 340 335 334 334 331 327 325 324 327 328 328 325 330 336 339 342 342
310 311 312 312 316 324 333 335 334 335 336 337 337 335 332 330 330 332 333 334 337 340 341 341 340 337 336 330 329 330 331 327 324 323 323 325 326 327 328 331 337 340 342
310 310 309 312 314 319 326 329 334 334 334 334 333 332 330 330 331 331 332 333 335 337 337 337 336 336 333 333 329 330 326 325 324 323 323 323 325 327 329 328 329 331 335
314 311 311 311 313 317 322 326 329 331 331 332 331 330 330 331 331 332 331 332 333 333 334 333 332 332 333 332 328 326 324 325 323 323 322 322 325 327 328 330 331 329 327
314 312 311 310 313 320 324 323 326 327 328 329 329 330 330 331 330 331 331 331 332 331 331 332 333 328 328 332 328 326 321 325 322 322 322 321 322 325 327 329 331 333 332
316 317 318 317 320 324 325 327 329 329 329 329 330 330 331 331 332 331 331 330 331 332 331 330 331 327 327 329 324 323 318 321 321 323 323 321 322 324 327 329 330 332 333
311 314 317 318 319 321 323 325 325 325 325 324 325 328 329 328 331 332 331 331 330 333 333 331 331 326 323 325 327 321 313 311 317 320 319 321 323 325 326 328 330 331 332
306 309 312 314 314 316 318 318 320 321 321 324 325 327 329 329 328 330 332 332 334 334 332 331 328 326 324 320 322 323 322 322 313 311 322 324 325 323 326 328 329 330 332
304 306 308 309 310 312 312 312 315 321 323 323 323 323 323 322 323 328 330 331 332 330 331 328 324 324 324 323 320 319 319 318 319 316 314 319 321 325 327 328 328 330 329
302 305 306 306 306 308 307 305 305 307 311 311 312 312 312 315 315 315 318 329 328 328 328 326 325 324 321 320 319 318 317 315 314 315 314 316 317 321 322 324 324 326 328

GFSSE_sfc_thetae_105.txt.gz
Theta_e
345 352 358 357 357 356 356 357 359 360 359 358 356 355 354 353 353 347 348 347 348 348 347 349 349 350 350 350 349 349 349 349 348 347 346 347 347 346 346 346 348 346 348
350 351 357 358 357 356 356 357 359 359 359 358 357 356 355 354 351 348 349 349 349 349 350 350 350 351 350 350 348 349 348 346 344 344 343 343 345 344 344 345 348 345 347
347 350 350 357 358 358 358 357 358 358 358 357 358 356 355 354 352 349 348 348 351 352 352 353 351 351 349 348 346 345 346 344 342 343 343 336 339 341 341 342 342 342 343
348 349 351 357 357 357 358 357 357 358 356 357 358 356 355 354 353 351 349 348 352 351 351 352 351 349 348 345 345 345 344 342 339 340 335 334 334 339 339 339 339 339 339
347 350 349 355 355 355 356 356 356 356 356 356 356 356 355 354 353 350 349 350 352 351 351 351 349 348 346 344 343 343 342 339 339 338 335 336 336 339 339 338 338 338 338
343 347 352 354 354 353 353 355 354 355 355 354 354 354 354 353 351 351 353 352 352 350 349 350 347 345 343 342 340 340 339 338 338 335 335 336 337 340 339 339 339 338 338
342 346 347 353 353 354 353 352 352 353 355 354 354 352 352 351 351 351 351 351 351 349 349 347 346 343 342 341 341 340 340 340 336 333 335 336 339 339 339 338 338 337 337
340 344 347 350 352 353 353 352 352 353 352 352 352 351 351 352 351 349 350 349 349 349 348 346 346 344 343 343 343 342 341 338 333 333 335 337 341 339 338 338 337 337 337
338 341 344 349 348 348 350 351 352 352 352 352 350 350 350 351 352 350 350 349 349 348 348 347 347 345 344 344 344 344 340 336 333 332 334 336 341 339 338 338 337 336 336
323 334 341 343 347 347 348 347 348 349 349 349 348 347 346 345 348 349 348 347 349 349 347 346 347 346 346 345 345 344 339 336 333 333 334 337 342 340 339 338 337 337 336
317 320 324 340 342 346 347 346 345 345 344 343 342 341 341 345 345 345 343 343 346 348 347 346 347 346 344 342 343 342 337 335 333 333 333 340 341 340 339 338 338 337 336
314 315 317 325 338 341 343 345 346 343 344 343 342 342 343 342 342 342 339 339 344 345 345 346 346 345 341 337 339 337 338 335 334 334 333 340 341 341 339 338 338 338 337
311 314 315 317 330 337 339 341 342 343 342 339 339 342 342 343 345 344 343 343 344 339 343 342 342 340 337 333 334 337 334 334 335 334 334 339 340 343 342 340 339 338 338
311 312 314 316 320 334 337 337 340 341 339 334 332 336 341 342 343 341 339 340 344 343 341 340 341 340 339 336 331 332 333 332 334 334 334 336 339 340 343 343 341 339 339
310 314 317 317 317 326 336 336 337 340 339 337 335 334 334 337 340 341 339 341 345 344 344 340 339 338 340 338 335 330 332 331 331 332 333 331 336 339 340 343 343 342 340
309 311 316 316 317 322 334 335 335 337 337 337 337 337 334 334 335 336 336 338 339 342 342 339 337 337 335 337 337 334 329 330 330 330 330 332 333 336 339 340 343 342 342
310 311 313 315 318 320 326 333 335 334 336 335 335 337 336 335 334 334 335 336 336 337 338 341 338 337 339 337 335 336 331 330 325 327 328 329 331 330 335 338 338 342 343
311 311 312 313 315 316 320 330 333 334 334 337 336 336 336 335 334 332 332 333 335 337 337 337 339 338 338 339 336 336 334 331 326 324 323 325 327 327 327 332 336 339 342
317 315 313 313 312 314 317 325 333 333 335 335 337 336 335 334 333 330 330 331 332 334 335 337 338 337 336 336 336 336 334 331 329 324 321 322 323 325 326 328 329 331 336
317 318 318 315 313 312 316 321 326 330 333 335 333 332 332 331 330 330 330 330 331 332 332 333 333 336 335 334 331 331 332 332 330 325 321 320 321 323 325 327 330 328 328
316 316 318 314 313 312 313 317 321 323 328 330 331 331 331 330 330 331 331 330 331 330 330 331 329 331 331 333 328 327 328 329 327 323 322 321 321 323 324 325 327 330 331
311 312 315 318 316 313 316 322 324 327 328 330 331 330 331 331 331 331 331 330 331 330 329 329 330 327 330 331 326 323 317 321 325 326 325 322 320 321 321 323 326 327 329
306 309 310 314 317 320 320 325 327 327 326 325 326 326 329 329 329 329 330 330 330 331 329 330 331 329 325 328 329 323 316 313 319 324 323 322 321 321 321 322 324 325 327
304 308 308 311 312 313 314 317 318 320 320 324 325 326 327 325 323 323 323 326 329 331 330 330 331 330 328 324 327 327 326 321 313 313 323 322 322 321 320 323 324 325 328
303 305 307 308 308 309 309 310 311 310 315 317 319 319 319 318 317 315 314 317 323 328 329 329 329 329 329 326 324 322 323 323 319 315 311 317 322 320 321 323 324 327 328
301 302 304 304 304 306 306 305 305 305 305 305 306 308 309 311 311 310 310 313 313 317 327 328 329 327 326 325 324 322 319 317 316 314 313 314 315 319 322 323 325 327 327

GFSSE_sfc_thetae_108.txt.gz
Theta_e
345 349 359 358 357 357 356 357 359 360 359 357 354 354 354 353 351 347 347 347 348 348 348 349 349 350 349 349 350 349 349 349 348 347 347 348 348 347 348 348 349 346 349
345 350 357 359 357 357 357 358 358 358 359 358 357 356 353 354 351 347 348 347 348 348 348 350 350 351 350 349 349 349 348 346 344 344 344 343 344 345 346 345 348 345 347
344 351 350 358 358 358 358 357 357 357 358 357 356 356 355 354 351 348 347 348 349 349 351 351 351 351 351 347 348 347 346 344 341 343 343 336 337 341 342 343 343 343 344
344 348 350 356 356 357 357 355 356 357 357 356 356 356 354 352 352 351 348 347 349 350 350 352 352 351 349 345 344 344 343 341 340 340 335 334 334 339 340 340 340 340 340
342 347 349 355 356 356 355 356 356 355 355 355 354 354 354 353 353 352 349 350 352 352 350 351 352 350 349 345 344 344 342 339 339 336 331 330 331 338 339 338 338 340 339
339 345 347 354 354 354 354 354 356 356 354 353 354 355 355 354 352 352 352 351 351 351 350 350 348 347 347 344 343 342 339 338 339 330 329 335 335 340 339 340 339 339 338
338 342 348 353 354 354 353 352 352 353 355 355 354 354 354 353 352 352 351 351 351 351 350 348 346 345 343 342 340 340 339 339 334 330 328 330 335 340 339 338 338 337 337
336 339 343 349 352 352 352 351 351 352 352 353 353 353 353 353 353 351 351 350 351 350 350 349 347 344 342 342 342 342 341 338 332 328 329 333 341 340 339 338 338 337 337
322 332 338 341 346 348 349 350 351 352 352 352 350 351 350 351 351 351 351 350 350 350 349 348 348 346 344 344 345 344 341 337 328 328 330 334 342 341 340 338 337 337 337
316 318 317 335 341 344 345 347 347 348 348 349 348 347 345 345 347 350 348 348 349 350 349 348 348 347 346 345 345 344 340 336 328 329 328 334 344 341 340 339 338 337 337
314 314 315 320 335 339 343 345 344 345 345 344 343 341 341 342 343 344 343 343 346 348 348 347 347 346 344 342 343 341 339 332 328 327 327 341 343 341 340 339 339 338 337
308 310 310 313 317 335 339 341 343 342 340 340 339 338 338 337 337 342 340 339 343 344 346 347 346 345 342 337 337 338 334 332 329 327 329 342 343 341 341 340 339 338 338
305 308 310 311 314 325 334 337 339 340 341 338 335 337 337 338 339 338 338 338 339 337 340 342 341 340 337 336 333 335 333 331 331 327 332 341 343 341 341 341 340 339 339
305 308 310 310 312 314 332 332 336 337 338 333 330 331 334 336 339 338 337 339 339 338 337 337 337 337 335 333 330 332 332 330 330 328 331 337 342 341 342 343 341 340 339
304 307 309 311 311 312 320 331 332 335 336 336 330 329 331 334 334 337 337 337 338 339 337 335 336 336 335 334 333 328 326 328 326 326 328 332 337 341 342 343 344 342 340
306 306 308 310 312 312 312 329 331 332 335 334 333 330 330 331 331 333 333 332 333 337 339 336 334 336 336 337 335 335 326 325 325 324 324 329 334 337 340 340 342 344 343
307 307 308 309 311 311 311 318 331 333 335 333 333 333 331 329 329 329 330 329 329 331 331 333 333 332 334 335 333 334 334 326 323 323 323 327 330 331 336 340 340 341 343
312 312 312 313 310 310 309 312 327 331 333 333 334 333 332 332 330 328 326 327 329 329 329 329 330 330 330 330 330 331 332 332 327 322 322 320 325 329 331 336 339 341 341
313 313 314 315 312 309 308 310 316 330 333 333 333 331 332 333 331 327 325 325 325 326 327 328 329 329 329 328 330 330 330 329 329 328 324 321 320 322 324 328 332 334 337
311 312 312 314 315 311 308 308 311 325 329 332 332 331 329 328 327 325 324 324 324 324 324 326 327 327 328 328 330 330 330 330 329 328 324 323 319 317 321 321 325 325 330
307 309 311 312 314 315 307 305 308 313 319 328 330 328 327 327 327 325 324 324 324 323 323 324 324 324 325 327 324 327 328 328 329 330 329 323 321 319 319 321 323 325 325
305 307 308 310 312 314 314 311 310 317 320 323 326 326 328 328 328 326 324 324 324 323 323 323 322 323 323 325 323 323 317 322 327 328 327 324 321 319 318 320 321 323 324
303 304 307 309 310 312 312 317 317 318 318 318 319 322 324 324 321 321 320 320 322 324 323 324 324 323 321 323 324 321 314 313 315 323 324 324 324 321 319 318 319 322 324
302 304 305 308 307 309 310 312 311 313 313 316 319 319 319 318 315 313 312 315 315 318 320 324 326 324 323 320 322 324 325 319 313 312 321 322 323 323 320 319 318 319 321
301 302 303 305 305 306 307 308 309 309 309 310 310 310 311 312 312 310 310 311 312 312 312 312 319 323 323 321 321 322 322 323 322 317 313 316 321 321 320 319 319 320 322
300 300 301 300 301 303 302 305 305 304 304 304 303 303 304 305 306 306 306 307 308 308 309 310 311 318 323 323 323 323 321 319 318 318 315 315 315 318 320 320 319 322 324

GFSSE_sfc_thetae_111.txt.gz
Theta_e
343 348 358 360 358 357 356 356 359 358 358 356 354 353 354 352 348 347 348 348 348 348 349 349 349 348 348 350 349 348 350 349 348 348 347 348 348 349 349 348 348 345 348
344 350 355 359 358 357 357 358 357 358 357 357 356 353 353 354 348 347 347 347 347 347 349 350 350 351 349 348 349 349 348 345 344 345 344 343 345 347 346 346 348 344 345
342 349 351 357 357 358 357 356 356 357 356 356 355 355 354 354 350 347 348 347 347 348 349 350 351 351 349 347 348 346 345 343 341 343 343 335 336 341 343 343 344 344 344
342 347 350 355 356 357 357 355 355 356 357 355 354 354 353 353 351 349 347 347 347 350 350 351 351 350 347 347 344 345 344 341 340 340 335 334 334 339 339 340 340 340 340
340 345 348 354 355 353 355 356 356 356 355 355 355 355 355 353 352 352 350 349 350 351 351 351 351 350 346 345 345 344 343 340 339 335 329 329 332 338 339 338 340 340 339
338 342 349 353 354 353 353 353 355 355 355 354 354 354 354 352 351 352 352 350 349 350 350 350 349 347 347 345 344 343 341 339 339 327 328 336 333 340 341 340 339 339 338
334 339 343 351 352 352 352 353 353 353 353 353 354 353 353 352 352 353 352 351 351 351 350 349 348 347 345 344 342 341 339 339 331 328 325 332 334 341 340 339 338 338 337
321 332 340 344 348 350 351 351 351 351 352 353 353 353 353 352 352 351 351 351 351 350 350 349 347 345 344 342 341 341 341 338 331 327 326 332 341 341 340 339 338 338 337
316 317 316 334 342 346 347 348 349 349 350 352 350 351 350 350 351 352 351 351 351 351 351 350 349 346 343 342 344 344 341 338 329 326 330 333 343 342 341 339 338 338 337
312 313 312 318 335 340 342 345 346 347 347 348 347 346 345 344 346 350 348 348 350 351 350 349 349 348 345 345 345 343 340 337 328 326 327 333 344 342 341 339 338 338 338
310 309 308 311 313 331 339 344 344 344 344 343 343 341 340 341 342 343 343 343 346 348 349 349 348 348 345 342 343 341 339 333 328 326 326 337 344 342 342 340 339 339 338
303 304 307 307 310 314 335 336 340 343 340 339 339 337 337 337 339 342 339 339 343 345 346 348 347 345 342 338 337 338 334 332 329 327 325 340 344 343 342 341 339 339 339
301 304 307 307 307 309 318 331 333 337 340 338 336 335 335 336 335 335 335 339 339 337 340 344 343 340 337 335 334 334 333 331 331 329 330 339 345 344 342 342 340 339 339
302 304 307 308 307 308 310 325 330 333 336 337 335 332 331 334 335 336 336 337 337 337 335 336 337 336 335 336 334 331 333 332 332 331 326 337 343 345 342 342 342 340 340
303 305 306 307 308 308 308 313 328 329 334 337 335 330 329 331 332 333 334 336 338 339 336 334 336 335 334 333 333 332 330 331 329 330 325 332 338 343 345 344 343 343 341
307 308 307 308 308 308 308 308 321 328 330 334 333 329 328 329 330 331 331 332 334 336 339 335 333 334 334 334 333 332 330 328 329 327 325 328 334 339 342 344 345 345 344
311 312 313 315 315 309 308 308 312 326 330 329 333 332 329 329 329 330 329 328 328 329 329 330 331 332 331 333 333 335 334 333 326 328 326 326 331 332 337 343 344 345 346
309 310 311 313 314 315 313 307 308 320 326 327 330 333 331 331 328 327 326 327 328 327 327 326 327 327 328 329 327 329 330 331 331 330 326 325 328 330 332 337 340 342 344
307 308 308 311 312 314 315 310 306 310 323 328 331 333 333 332 332 328 325 325 324 324 324 325 325 327 325 324 325 328 328 328 330 332 327 324 324 327 327 330 333 335 338
306 306 308 309 310 312 314 313 307 307 316 326 329 332 332 331 328 328 326 323 323 321 321 322 323 324 324 324 327 328 328 329 328 328 328 326 321 321 322 324 326 329 332
304 305 307 308 310 310 310 310 310 304 309 319 325 328 330 328 327 324 323 323 323 321 320 321 321 322 322 322 321 323 325 327 327 329 328 327 326 324 320 320 322 324 326
303 304 306 308 307 309 310 309 313 310 313 315 321 321 323 324 322 322 320 319 320 321 321 321 320 318 319 321 320 318 316 318 324 327 329 328 326 325 321 319 319 322 323
301 302 304 306 305 308 309 310 312 314 314 313 315 318 317 316 314 314 315 315 314 315 316 317 321 319 319 321 322 320 311 310 313 321 325 327 327 325 324 322 320 319 320
300 302 302 304 303 304 305 308 309 309 309 311 312 312 313 312 310 311 311 312 313 312 311 312 314 313 316 317 321 321 321 319 313 312 318 323 325 324 324 322 320 319 320
300 300 301 301 301 302 302 302 305 305 307 307 307 306 306 307 307 307 308 308 308 309 308 309 308 309 309 311 317 319 319 320 319 316 312 316 321 324 324 324 323 321 320
299 299 300 299 298 299 299 299 301 301 301 302 301 301 302 303 304 304 305 306 306 305 305 306 306 305 306 306 306 308 316 316 315 316 315 316 316 319 322 323 323 321 320

GFSSE_sfc_thetae_114.txt.gz
Theta_e
339 348 356 358 357 357 355 355 356 356 355 355 354 353 353 350 348 348 349 347 347 347 349 349 347 346 348 349 348 349 349 349 349 348 347 348 348 348 348 348 347 344 347
342 349 354 357 355 355 356 357 358 357 356 355 354 353 352 352 347 347 347 347 347 348 349 350 350 349 349 349 349 349 346 345 345 344 344 343 345 347 346 347 347 343 344
341 346 349 355 355 353 354 355 356 356 355 355 354 353 352 352 348 348 347 347 347 347 348 350 351 351 347 349 348 346 344 342 342 343 340 333 335 343 344 344 344 344 343
341 344 348 354 354 355 355 355 355 356 355 355 355 353 353 353 350 348 348 347 348 350 350 351 351 349 346 345 346 345 344 341 341 342 334 332 334 339 339 340 340 340 340
338 342 348 353 353 354 354 354 354 355 355 355 355 355 354 353 353 351 349 349 349 349 351 351 351 350 347 346 343 344 343 340 338 334 328 328 331 337 338 338 338 338 339
333 341 347 351 353 351 352 352 353 354 355 354 354 355 354 352 352 351 352 351 349 350 351 351 350 348 347 345 345 344 342 339 337 326 327 333 332 339 340 339 339 338 337
322 333 341 347 349 351 351 351 352 352 353 354 354 353 352 351 352 352 351 350 350 350 350 350 349 347 345 344 344 343 341 339 329 326 327 332 332 341 341 340 338 338 337
315 317 322 342 346 348 350 350 350 350 351 352 351 351 353 352 352 352 352 351 351 350 350 350 349 348 346 345 343 342 341 337 330 326 324 330 338 341 340 339 338 338 337
312 313 311 319 333 342 346 347 348 349 349 349 349 349 349 350 351 350 351 351 351 351 351 351 350 348 345 344 343 343 341 338 327 325 328 330 342 342 342 340 338 338 338
308 309 307 310 314 324 337 343 345 346 347 348 347 346 344 344 346 349 347 348 350 350 350 350 350 349 346 344 343 343 340 338 327 324 325 329 340 344 342 340 339 338 338
306 303 305 306 308 312 326 338 341 344 343 343 343 341 340 341 341 341 342 343 346 348 349 349 349 348 345 342 343 342 338 333 329 326 324 331 341 344 343 341 339 339 339
300 302 304 304 306 307 313 325 332 337 341 339 339 338 338 337 338 340 338 338 343 345 345 348 348 346 342 338 337 339 335 332 330 328 326 332 339 345 344 342 340 339 339
300 302 305 305 306 305 308 313 324 330 335 339 338 336 334 335 334 334 333 335 337 336 340 342 343 341 337 336 335 334 334 332 330 330 331 334 338 344 344 343 341 340 339
302 304 306 306 306 306 306 307 313 323 330 334 336 335 333 331 333 334 334 334 334 337 336 336 337 337 335 335 333 332 333 333 332 332 329 332 338 342 346 344 342 341 340
308 309 311 312 311 308 306 306 309 315 324 329 334 335 332 330 329 332 333 334 338 339 338 336 336 334 334 334 335 332 330 332 331 332 330 328 334 341 346 347 344 343 341
309 309 311 312 313 313 312 307 306 311 320 326 329 333 333 328 328 330 330 331 332 335 338 335 334 332 333 334 333 333 332 329 330 330 329 327 331 337 342 346 347 345 343
307 308 308 310 312 312 313 313 310 308 316 323 326 328 333 331 327 328 329 328 329 330 333 335 332 330 330 330 331 333 332 330 328 330 330 328 327 331 337 343 344 344 345
305 305 307 310 310 311 311 313 312 309 309 318 322 325 329 333 328 327 327 328 329 327 326 325 326 326 326 326 327 329 331 329 331 329 327 328 327 329 332 337 340 343 343
303 304 305 307 308 309 310 313 312 309 308 312 321 324 327 330 332 326 327 326 326 324 323 324 323 324 323 323 324 324 325 326 328 331 329 326 324 327 329 330 332 335 338
303 303 306 307 308 308 309 309 310 312 309 311 317 322 326 328 329 328 327 326 325 324 321 322 321 322 322 321 324 324 323 325 325 326 328 329 327 324 325 326 328 331 332
302 303 305 305 305 306 307 306 308 310 312 310 314 321 321 321 323 323 325 324 324 321 320 320 319 318 318 320 318 319 321 325 325 327 328 328 327 324 322 322 324 325 328
300 302 303 304 303 305 306 308 310 310 312 314 317 315 315 315 316 317 318 318 318 319 319 319 320 318 317 318 316 315 312 313 319 324 326 327 326 328 326 323 321 321 322
298 301 301 301 301 303 305 308 309 310 310 310 312 313 311 312 312 313 313 315 314 314 312 313 313 313 313 316 319 318 311 306 310 316 320 324 325 326 327 326 324 322 321
297 301 302 301 301 301 302 304 304 305 304 306 308 309 309 308 308 309 310 309 310 310 308 310 309 310 310 310 314 318 317 317 311 309 316 318 323 325 326 326 324 322 320
299 299 297 298 299 299 299 300 301 301 303 304 303 303 303 304 304 305 306 306 306 307 307 307 305 304 305 305 306 306 307 311 316 313 310 313 318 322 324 325 325 323 322
299 299 299 298 297 297 298 297 297 297 298 298 299 299 299 300 300 300 302 303 304 304 304 305 305 304 303 302 303 303 304 304 302 303 305 309 312 316 320 323 323 323 323

GFSSE_sfc_thetae_117.txt.gz
Theta_e
338 347 355 355 353 353 355 353 354 354 354 354 353 353 352 349 348 348 347 346 346 347 348 347 346 346 347 348 349 349 348 349 349 348 348 348 348 348 348 347 347 343 346
340 346 354 356 354 352 353 353 354 354 355 353 354 353 352 348 347 346 347 346 346 348 349 349 348 347 348 349 348 347 346 346 345 343 344 344 346 347 348 346 346 342 344
339 344 348 354 355 354 354 354 355 355 354 354 354 353 351 349 347 347 346 346 347 347 348 350 350 347 349 349 348 345 342 343 343 341 339 333 336 344 344 344 345 343 341
337 342 347 353 353 353 352 354 354 355 354 353 353 352 352 351 349 348 347 347 348 349 350 350 350 349 348 348 347 345 342 340 342 341 331 331 333 339 341 341 341 341 340
333 340 346 352 352 350 353 353 353 352 353 354 353 354 353 352 351 350 348 348 348 349 349 349 350 349 347 346 344 345 343 340 339 334 327 327 329 335 337 337 338 338 338
322 331 343 348 350 350 353 352 352 352 352 353 352 352 353 352 352 352 351 351 349 349 349 351 350 349 348 346 343 344 343 340 336 324 325 328 331 337 337 339 339 338 337
313 316 324 341 346 350 350 348 349 351 352 353 352 351 351 351 351 350 351 351 350 348 349 350 349 348 346 345 345 344 343 340 326 325 325 329 330 341 340 339 337 337 337
312 312 313 323 329 339 345 349 349 348 351 351 352 351 351 351 351 351 350 350 350 349 349 349 350 348 346 344 344 344 343 338 329 325 324 329 334 343 341 340 338 338 337
309 308 306 310 316 326 335 342 346 347 349 349 349 349 349 349 350 350 351 351 350 350 350 350 350 349 348 346 345 344 341 337 325 324 326 327 336 344 342 340 338 338 337
304 303 303 305 308 311 317 334 339 343 345 347 347 345 343 343 345 348 347 347 350 350 350 349 350 349 347 346 345 343 339 337 328 324 323 327 337 344 343 341 339 338 338
303 302 303 304 305 307 311 323 327 336 339 341 341 340 339 339 340 340 340 341 345 347 349 349 349 348 344 342 342 341 338 332 328 325 323 329 337 343 344 342 341 339 339
299 302 305 305 305 305 309 309 315 324 331 336 339 339 337 337 337 339 336 337 341 344 345 348 348 346 342 338 337 339 336 332 330 329 327 332 335 341 345 344 342 340 339
301 307 309 308 307 306 306 308 307 313 321 329 335 337 337 335 333 333 332 333 335 334 338 341 341 342 337 336 334 334 334 332 330 330 332 335 337 338 343 346 343 341 340
307 309 310 311 311 310 308 307 305 308 314 320 328 335 334 333 333 331 332 333 332 334 335 336 338 338 337 336 334 333 332 332 332 331 329 333 337 338 341 345 346 343 341
306 308 308 310 310 311 311 309 308 307 309 313 321 329 334 331 330 331 332 332 333 333 334 334 335 335 334 334 334 333 332 332 332 332 331 329 333 337 339 342 346 344 343
305 306 307 309 310 311 310 310 311 308 309 312 318 322 327 329 330 329 330 330 332 334 334 336 333 333 333 333 333 334 334 333 332 332 331 330 330 334 338 339 343 345 343
304 305 305 308 309 309 309 309 312 312 310 309 313 318 321 326 327 329 328 327 329 330 331 331 330 329 330 331 332 333 332 332 331 331 332 331 328 328 332 337 342 344 345
302 303 304 307 307 308 308 309 311 311 310 309 311 315 318 322 326 326 327 326 327 326 326 326 325 324 326 325 327 327 329 330 331 329 329 330 330 329 330 334 338 341 343
301 302 303 305 306 305 307 308 308 309 311 311 311 314 318 321 324 326 327 327 325 326 323 322 322 323 321 322 322 323 323 324 326 329 328 328 327 327 327 329 331 334 337
301 302 303 305 304 305 308 309 309 310 311 314 313 318 320 320 322 323 325 326 325 324 323 321 319 320 321 321 322 322 321 322 323 324 326 328 328 327 325 325 327 329 331
300 301 302 302 302 303 305 306 308 308 310 315 316 314 314 315 317 318 320 321 322 321 322 322 320 317 317 320 317 316 317 320 321 323 324 325 326 326 326 325 324 326 327
298 299 300 300 300 301 303 305 308 310 313 313 314 312 310 311 312 313 315 315 316 317 315 315 313 317 319 320 315 314 308 310 314 319 321 323 324 326 326 324 322 323 325
296 296 299 299 299 299 300 304 305 309 310 308 308 309 307 307 309 310 310 311 313 312 311 310 310 309 310 314 314 314 309 303 310 312 315 320 321 323 325 325 326 323 321
296 297 297 297 298 298 298 299 301 303 302 303 303 303 304 303 303 305 306 307 307 308 308 308 308 307 308 305 309 310 308 309 306 304 311 313 317 318 321 324 325 326 325
296 296 296 296 296 298 298 297 297 297 300 302 302 301 302 301 300 301 303 304 303 304 305 305 304 304 304 304 303 304 305 305 306 302 302 303 307 312 318 321 323 325 325
297 295 295 294 294 294 297 297 296 296 296 296 295 295 296 297 298 297 298 299 300 302 302 301 300 300 300 301 300 301 300 301 300 300 299 299 300 305 306 309 320 322 324